GFSNW_sfc_rhum_003.txt.gz
RH
82 81 82 84 86 87 65 50 44 43 46 45 45 55 53 65 56 49 51 48 48 45 49 51 50 50 51 47 46 47 45 40 44 43 34 28 25 23 22 30 33 28 29 27
84 82 84 85 87 86 54 43 45 38 45 50 55 53 54 52 54 56 50 53 50 49 54 59 53 54 49 50 48 50 45 47 43 51 46 41 44 33 28 26 39 40 34 27
88 85 86 87 90 87 58 38 44 37 44 45 46 49 52 56 49 54 51 53 45 47 51 50 59 55 53 57 51 75 56 47 48 42 40 35 44 44 38 36 42 35 32 29
88 85 86 88 89 85 61 44 52 54 44 49 44 43 46 46 48 49 47 50 47 45 52 49 54 48 48 46 59 49 47 47 39 39 36 34 36 37 34 37 35 36 29 27
91 86 86 88 88 84 47 41 37 38 43 45 40 49 45 45 43 43 49 51 51 42 47 42 51 47 45 45 44 42 46 44 42 38 25 24 29 32 30 31 32 31 30 31
92 90 88 87 87 75 43 47 42 36 54 44 37 39 40 43 40 44 46 46 45 47 51 43 40 40 41 42 41 40 43 36 34 36 27 36 43 32 30 31 26 26 33 27
92 93 89 89 85 73 43 47 42 38 41 36 38 44 44 44 43 39 40 42 39 42 31 30 31 29 28 28 30 33 38 41 42 44 39 67 34 28 28 29 27 26 26 26
94 93 94 90 88 80 56 55 46 42 41 34 40 42 39 40 42 42 42 40 38 29 30 36 40 36 40 39 44 33 31 38 45 57 50 40 36 30 31 36 37 27 28 26
94 95 95 94 92 86 59 62 65 60 56 50 37 38 39 42 41 47 48 47 44 38 33 42 75 68 48 48 55 56 48 41 42 67 82 75 36 33 32 32 44 32 30 35
93 95 96 96 94 90 70 67 66 60 78 58 46 56 56 39 42 48 50 50 53 48 44 60 73 62 45 57 52 62 65 60 58 59 71 54 34 30 33 51 41 47 42 43
89 91 95 96 97 94 91 82 70 65 75 67 62 55 54 55 57 61 55 61 56 53 54 55 63 56 47 52 42 50 58 73 74 64 73 87 34 36 49 36 39 48 43 38
90 90 92 94 96 97 93 98 86 86 94 79 66 56 51 47 51 65 59 65 59 50 67 70 67 67 66 55 69 41 55 44 45 63 60 38 35 37 34 36 38 38 40 40
84 87 89 91 93 96 95 98 97 96 98 96 93 76 58 53 52 41 63 53 47 52 52 75 83 88 75 77 65 55 44 37 45 44 38 34 30 30 32 37 41 40 51 51
80 82 86 89 92 95 95 98 95 96 94 97 76 58 66 60 60 58 51 56 58 60 74 85 90 92 74 79 59 66 51 49 50 48 41 38 34 34 45 49 56 59 61 57
74 81 85 86 91 94 98 98 96 94 98 96 84 67 58 58 58 63 59 54 61 76 92 94 95 89 88 87 86 86 52 51 53 55 39 42 43 43 45 48 55 56 58 73
74 83 88 90 94 95 98 99 99 95 96 99 100 68 65 63 65 67 67 69 70 81 93 94 93 80 80 96 98 58 44 42 45 51 43 44 44 54 55 56 58 61 67 84
76 82 87 92 95 98 99 95 94 93 96 100 98 94 71 68 69 78 81 82 91 92 95 98 92 92 90 95 89 53 42 40 41 40 43 52 49 65 62 68 78 91 98 92
82 85 93 95 96 95 98 97 94 97 96 94 100 98 79 72 84 82 76 90 92 96 95 95 96 93 96 100 68 52 48 43 43 43 47 69 75 76 96 98 99 97 91 47
90 93 88 90 94 98 99 90 90 96 94 100 100 100 99 76 81 82 83 81 96 85 98 92 92 87 99 82 64 53 46 50 56 84 90 94 97 100 98 96 95 83 40 38
91 88 89 100 98 85 82 90 97 100 100 100 100 83 86 74 80 92 90 98 98 100 89 84 100 86 64 59 56 54 55 72 76 98 100 100 100 96 93 86 49 35 36 37
95 92 98 97 85 86 90 100 100 100 100 95 91 83 91 79 93 99 96 100 100 99 83 96 91 79 65 55 64 62 71 71 72 72 70 74 77 85 72 38 36 38 37 35
91 91 91 92 96 100 100 100 99 99 98 86 94 89 85 98 98 99 100 100 99 97 76 91 84 63 50 50 49 55 63 65 66 64 73 74 78 60 28 30 34 34 32 36
86 90 100 93 100 100 100 93 97 97 96 98 98 99 90 97 99 100 100 100 94 68 84 78 63 56 48 47 56 67 70 62 53 50 37 30 31 28 31 32 32 34 36 36
99 100 100 98 97 87 89 80 91 91 96 98 90 98 89 84 99 92 99 80 79 90 91 86 47 42 41 45 58 69 76 57 45 40 35 35 35 35 35 39 35 37 39 38
100 100 94 100 83 96 93 89 89 89 95 96 93 94 80 92 96 88 91 94 90 76 74 55 41 39 41 47 62 66 71 63 43 34 35 35 34 38 38 40 41 40 40 41
100 100 100 85 99 100 94 95 98 93 88 86 90 95 95 93 91 95 91 84 83 74 73 71 63 49 42 48 58 64 64 61 49 36 38 41 44 43 41 42 43 43 47 56
100 100 88 84 100 99 90 84 81 78 84 96 95 97 90 86 94 92 77 86 67 73 68 58 60 60 56 52 56 63 66 66 56 41 46 46 43 45 49 53 54 60 52 55

GFSNW_sfc_rhum_006.txt.gz
RH
88 85 85 83 87 86 74 73 65 55 57 63 65 72 59 60 55 52 52 52 49 50 51 52 54 60 60 52 53 56 59 59 64 60 47 44 39 36 33 47 47 44 47 45
90 86 88 85 86 86 78 63 58 52 60 69 71 59 57 55 56 59 52 57 54 51 58 65 60 64 54 53 62 63 56 58 71 78 64 54 59 44 37 41 50 61 50 44
89 88 88 88 89 86 78 63 62 63 60 51 54 55 56 61 56 56 51 55 49 50 58 56 66 62 66 65 58 77 64 58 61 61 52 48 60 56 51 52 59 54 46 41
91 88 86 88 89 86 78 60 64 62 67 60 53 51 48 52 57 54 49 54 49 50 59 58 59 57 60 54 62 57 57 58 51 48 46 44 43 44 43 52 47 56 36 36
92 88 86 87 88 85 71 68 54 54 53 48 42 55 54 48 48 50 53 59 50 46 56 52 59 52 54 55 57 56 56 59 53 52 36 34 38 34 31 35 37 39 38 37
93 93 87 86 86 83 61 58 51 57 64 51 45 57 52 53 48 51 51 51 52 60 50 41 39 41 47 53 53 51 54 52 50 51 38 44 51 39 38 36 33 34 39 32
95 93 91 88 86 80 66 64 62 60 52 43 46 47 46 48 50 49 47 45 47 51 36 36 44 39 36 35 42 42 55 55 55 62 57 79 45 36 35 41 34 33 33 34
95 95 94 89 87 82 71 69 66 64 52 43 46 46 47 47 49 51 48 45 45 39 42 50 52 50 55 48 56 52 39 52 61 75 72 56 48 41 43 49 47 37 40 38
94 95 95 95 91 84 76 74 79 72 68 59 40 43 47 52 53 57 57 51 54 50 46 53 89 90 64 62 72 67 57 48 63 94 87 92 52 45 40 43 64 53 48 46
92 94 96 96 94 90 87 81 76 76 81 62 56 65 63 50 54 56 58 56 57 56 59 78 90 78 58 74 70 86 79 73 75 74 84 71 46 45 43 70 66 60 55 54
90 91 94 96 97 93 93 90 80 86 88 79 65 58 62 56 58 67 62 67 66 69 70 75 74 75 62 71 62 74 78 89 90 80 84 86 47 49 61 52 55 56 58 53
91 91 92 94 96 97 94 98 83 82 96 92 76 68 63 49 53 63 60 70 63 64 78 71 74 73 67 61 72 64 70 58 70 76 80 56 51 53 47 46 46 50 51 50
86 90 91 92 93 96 95 99 97 94 97 96 94 83 67 59 59 48 69 66 56 61 72 80 85 88 76 84 75 61 63 50 60 60 54 52 45 41 54 56 57 61 62 66
80 85 90 92 94 97 94 98 96 96 96 99 88 63 71 68 66 62 58 61 65 70 80 91 93 93 79 90 77 84 67 66 67 67 57 52 50 50 57 64 65 68 64 62
77 84 88 90 92 96 98 98 97 96 99 99 95 79 68 64 66 71 69 62 69 82 91 94 96 92 90 94 92 91 72 70 80 73 55 59 58 56 66 67 69 66 68 81
77 86 90 92 94 95 98 100 100 98 97 98 100 80 77 74 75 74 74 76 75 86 94 96 93 83 87 99 99 79 60 56 55 57 54 57 58 58 63 72 71 74 82 85
73 82 88 91 94 98 99 99 99 96 99 100 100 99 81 77 78 87 88 85 94 93 96 99 96 96 94 98 92 64 55 54 55 55 59 65 72 86 80 83 96 97 97 94
80 83 89 96 94 96 99 98 94 98 98 98 100 100 92 83 93 98 92 99 98 99 97 97 97 96 97 100 80 67 64 60 60 65 76 82 85 94 95 96 98 95 90 74
88 96 94 93 95 98 99 88 90 97 96 100 100 100 99 87 86 89 90 88 99 97 99 97 95 97 99 86 79 74 67 70 84 98 99 97 98 100 99 96 95 89 92 68
94 93 95 100 99 87 86 92 99 100 100 100 100 95 98 90 89 95 96 94 95 100 93 93 100 96 76 69 69 73 76 88 90 100 100 100 100 99 97 93 92 78 43 42
98 98 100 98 84 95 93 100 100 100 100 99 97 92 95 91 99 100 98 99 99 96 96 96 95 89 83 70 75 75 80 80 82 85 88 91 92 95 85 84 49 42 46 48
93 94 92 95 98 100 100 98 100 100 97 98 97 96 97 100 100 100 100 100 98 96 90 96 89 84 64 60 59 64 74 80 80 75 83 86 84 78 72 47 43 46 44 41
91 96 100 100 100 99 99 98 98 99 99 99 99 99 98 99 100 100 100 100 98 84 95 85 82 78 60 60 62 73 82 82 78 77 71 63 67 54 39 42 39 39 43 44
100 100 98 97 97 95 95 95 97 99 99 98 97 99 97 97 100 99 99 99 94 96 97 91 82 73 68 61 67 77 87 83 68 63 49 44 43 44 40 43 42 46 49 51
100 100 93 95 94 99 98 97 95 97 98 97 97 94 87 94 98 86 96 99 95 87 90 92 68 57 53 60 74 82 86 86 66 53 46 46 44 47 48 51 53 53 53 54
100 100 100 97 98 98 98 98 100 99 96 98 98 93 95 91 91 98 95 94 92 87 93 95 91 68 58 60 70 80 83 86 76 54 46 47 50 53 54 53 56 56 58 76
100 99 97 96 100 100 97 96 98 90 95 98 95 98 92 93 96 98 91 92 91 95 95 94 88 84 78 64 66 78 83 84 82 65 53 56 58 58 64 71 82 84 71 79

GFSNW_sfc_rhum_009.txt.gz
RH
92 90 87 85 84 87 84 91 72 57 63 73 85 89 71 63 64 60 57 60 64 69 72 60 74 76 68 57 62 64 62 61 69 64 50 46 44 40 39 50 50 53 54 46
93 90 88 86 84 88 95 82 74 54 58 88 90 71 64 62 66 63 59 62 62 56 61 72 71 72 62 62 64 66 61 66 85 73 60 58 60 51 42 47 58 61 53 47
93 92 89 88 88 87 95 83 70 73 72 72 72 68 64 67 59 59 56 57 52 57 65 64 72 70 70 64 60 76 63 60 62 67 60 59 66 60 55 53 65 61 58 48
94 94 90 88 88 87 95 77 71 74 79 62 62 60 60 65 64 58 54 57 53 58 66 64 66 66 64 54 60 58 59 61 57 52 48 46 48 48 50 58 56 55 42 41
94 94 93 90 89 85 82 80 69 70 70 58 55 66 63 61 59 59 61 64 57 54 62 60 63 60 59 59 56 59 56 61 53 52 44 42 40 40 41 44 45 53 51 46
95 94 95 91 89 86 84 79 73 61 65 59 62 68 62 59 57 55 54 56 61 60 52 44 43 45 51 57 55 58 57 53 53 54 50 48 49 41 41 42 39 37 44 35
95 95 95 94 90 86 93 87 85 69 62 58 61 56 56 56 57 57 51 51 57 54 40 42 41 37 36 37 43 47 62 58 62 70 64 79 48 44 38 42 42 41 38 37
95 96 95 95 92 88 89 94 86 76 65 60 56 56 59 57 60 58 58 55 54 53 46 57 58 59 58 62 69 68 49 61 68 77 81 64 54 51 48 51 51 50 50 52
94 95 95 95 94 90 91 93 94 92 72 66 49 53 56 64 71 66 62 57 60 59 55 66 89 89 73 72 83 68 57 60 66 92 88 89 62 53 47 47 58 57 56 60
93 94 95 96 95 91 96 96 92 94 91 77 72 72 63 60 70 71 66 63 57 57 64 80 89 84 66 78 77 87 81 78 79 85 88 75 57 49 49 66 61 57 57 58
90 91 94 96 96 91 95 97 91 95 96 90 71 68 69 64 70 73 70 70 67 66 69 83 84 84 75 77 76 83 83 92 90 85 89 87 56 55 65 62 63 59 57 57
91 91 93 94 96 95 92 99 93 90 96 95 91 85 80 61 64 68 68 77 69 66 84 86 84 81 80 76 81 68 72 72 84 78 76 58 58 60 59 58 61 69 70 64
88 89 90 93 93 95 94 99 96 95 97 95 93 90 75 64 57 50 71 69 62 68 79 82 85 80 80 88 83 79 76 64 73 66 68 65 65 66 62 61 64 70 73 70
82 86 89 93 94 96 91 98 96 94 96 97 94 70 83 72 68 60 59 62 68 73 81 92 90 88 77 91 87 89 74 79 79 78 64 63 64 65 71 70 70 73 74 76
84 87 90 91 94 97 96 98 97 97 95 99 97 84 73 67 70 74 61 65 73 80 87 92 96 94 89 93 96 99 82 79 88 89 70 72 71 66 71 73 73 73 74 88
82 88 92 92 94 96 96 99 99 98 96 96 100 87 81 76 75 81 80 76 80 87 92 95 94 85 86 98 92 82 81 74 68 76 69 65 66 75 80 79 81 88 90 92
81 86 90 92 96 97 99 97 99 96 96 99 100 100 86 77 84 90 91 88 94 92 95 97 96 94 92 99 98 74 76 71 66 73 74 78 86 84 89 92 94 92 91 88
80 85 90 96 92 95 97 98 94 98 98 97 100 100 92 80 97 98 93 99 96 97 96 97 97 98 97 100 89 83 78 75 77 87 85 80 89 95 96 95 96 98 96 88
84 91 95 93 95 98 99 88 91 97 94 100 100 100 100 85 94 95 94 94 99 98 99 98 94 98 99 89 88 78 77 76 79 97 97 98 97 100 99 95 96 96 93 81
95 94 96 100 99 86 87 92 95 100 100 100 100 98 98 90 94 98 96 98 100 100 95 93 100 98 81 80 78 81 80 86 90 92 89 99 99 97 96 98 86 84 84 73
99 99 100 98 86 93 96 99 100 100 100 99 98 96 98 92 96 96 95 99 99 98 92 93 96 98 84 69 77 86 87 82 86 87 88 89 92 96 93 89 83 86 50 51
91 94 94 95 98 100 96 95 98 99 95 99 98 98 97 100 99 99 100 96 98 93 93 96 89 85 68 70 69 75 78 84 85 83 86 88 88 92 93 91 70 50 49 47
92 96 100 97 100 99 94 95 92 99 99 100 100 100 98 100 99 100 99 98 97 90 97 92 85 78 67 65 66 71 82 82 73 71 72 77 88 84 75 53 48 48 45 46
99 98 99 94 100 94 96 95 96 99 99 99 98 100 98 99 100 97 95 99 93 98 98 91 79 77 74 69 68 68 74 84 82 73 64 55 52 45 43 45 44 46 49 51
100 98 95 98 94 99 100 99 96 99 98 96 98 96 93 97 95 90 98 98 97 93 90 89 82 62 66 62 66 70 79 85 88 73 63 50 47 47 47 51 53 54 56 57
100 99 99 98 97 99 98 99 100 99 99 98 96 95 94 92 88 96 97 94 93 86 94 94 94 70 62 60 62 68 78 86 89 83 61 52 52 51 53 54 60 63 62 75
100 99 98 98 99 96 98 98 98 96 96 99 96 97 92 96 97 100 95 95 90 94 96 97 93 88 82 70 60 68 80 86 89 88 65 54 53 58 64 69 81 86 69 83

GFSNW_sfc_rhum_012.txt.gz
RH
94 93 90 85 83 87 85 93 73 78 70 81 87 88 82 86 90 84 81 57 66 69 71 67 79 80 74 62 59 62 72 64 72 62 54 46 46 42 41 49 51 58 57 48
94 94 92 87 84 86 96 86 81 78 78 80 89 70 69 85 81 71 70 79 68 70 70 79 74 73 65 64 63 63 60 74 86 78 69 62 60 46 43 51 58 61 57 49
94 94 94 91 89 87 95 84 73 70 76 79 76 69 71 72 66 63 59 62 60 65 71 68 75 73 70 67 62 76 63 66 66 65 63 61 66 61 52 49 62 54 59 53
94 93 94 93 92 89 94 79 69 77 66 60 68 61 63 67 64 58 63 63 57 61 70 67 73 72 65 57 64 60 56 62 62 54 53 52 55 57 60 60 57 47 51 51
94 92 94 95 92 88 84 74 70 73 72 64 65 70 68 64 63 62 65 66 58 55 62 61 66 63 62 60 54 58 53 59 51 48 43 42 46 45 47 52 55 55 55 46
94 96 94 95 92 84 88 88 81 61 70 63 63 68 62 60 59 57 55 59 52 50 50 43 42 50 51 54 54 56 53 48 45 50 52 46 43 44 46 47 46 43 44 37
95 95 94 94 93 88 94 94 90 64 64 65 64 60 59 58 60 60 56 54 55 57 48 43 40 42 52 54 58 54 58 60 63 63 64 73 50 49 44 43 46 45 42 43
94 95 95 94 93 89 90 95 83 73 73 67 65 60 61 59 59 61 59 58 59 60 51 60 61 64 62 63 73 68 56 62 74 74 78 63 59 52 50 50 62 61 58 59
94 95 95 96 94 89 93 96 96 88 70 63 56 62 64 68 70 66 62 56 60 62 60 74 86 87 72 74 83 65 59 63 65 92 86 83 62 53 51 50 65 65 64 65
93 93 95 96 95 90 95 96 94 95 86 84 76 64 64 67 74 73 72 62 58 61 74 88 92 86 74 78 80 81 74 75 78 87 88 77 59 54 53 66 60 73 73 72
91 91 94 96 96 91 94 98 95 94 96 93 83 73 68 71 72 76 70 71 69 72 80 86 79 86 77 80 80 83 79 90 88 87 90 84 61 64 68 64 74 68 64 65
91 92 92 93 96 94 91 98 93 92 96 94 93 89 85 68 72 72 74 81 73 70 80 84 83 85 86 82 83 75 78 76 82 74 75 62 69 63 63 60 62 68 74 72
90 91 91 93 94 93 92 99 97 96 96 96 93 92 80 70 64 58 74 78 67 73 79 88 87 80 85 87 86 82 77 71 74 69 72 72 66 68 68 68 67 66 75 78
85 87 91 94 95 92 91 98 97 94 96 96 95 76 84 75 73 64 61 65 70 74 82 90 88 86 82 91 85 85 74 78 80 82 73 74 74 70 71 70 76 80 81 79
80 89 92 94 96 94 95 98 99 98 93 97 98 87 76 73 74 66 62 65 71 78 88 91 93 94 89 97 97 98 89 82 86 85 74 71 78 78 73 77 79 74 73 86
88 91 92 93 98 94 96 97 97 98 97 92 99 89 85 81 80 79 75 78 84 89 92 96 94 87 90 98 91 80 85 81 72 75 77 70 78 77 80 79 85 89 87 89
85 91 93 95 94 96 97 97 99 96 96 96 100 100 85 80 84 91 91 88 95 92 96 97 95 91 90 98 96 81 82 83 77 78 74 79 83 81 86 90 90 88 87 85
86 91 95 94 92 94 96 98 94 98 97 96 100 100 94 80 98 98 94 98 95 96 98 97 96 97 97 100 89 84 80 80 80 83 84 82 89 94 93 91 90 94 97 95
89 96 91 91 95 97 98 88 93 97 94 100 100 100 100 86 97 96 96 94 99 99 99 98 93 99 99 91 88 86 82 77 80 93 96 98 99 96 93 94 92 98 95 89
95 92 93 100 99 86 86 91 96 99 100 100 100 94 99 92 95 99 96 98 100 100 97 96 100 97 89 86 85 82 80 80 90 95 90 98 96 96 92 95 91 97 92 91
99 99 100 99 88 92 96 99 100 100 100 99 99 93 98 91 98 100 96 99 100 98 94 95 96 97 87 72 82 86 91 87 89 84 85 86 89 92 98 89 95 90 87 66
91 92 93 96 97 100 93 98 98 99 95 99 98 98 96 100 98 98 100 93 98 94 93 92 95 85 69 70 75 80 82 81 84 84 84 86 91 92 93 94 93 91 62 52
93 96 100 96 100 99 91 98 96 98 99 100 100 100 98 100 99 100 99 96 97 92 97 93 89 79 72 74 70 76 82 85 85 83 86 88 90 90 93 92 83 61 55 51
99 99 99 96 97 96 94 94 94 96 99 100 98 100 97 99 100 98 97 99 91 98 99 94 78 72 76 78 73 71 72 81 81 77 74 69 86 90 77 64 53 53 51 50
100 99 94 99 93 99 100 99 99 100 96 93 95 97 94 98 96 92 97 98 97 90 89 89 84 66 76 74 68 66 67 72 82 82 77 67 55 49 48 49 50 50 51 54
100 98 99 99 92 100 99 100 99 99 95 96 95 91 94 96 94 92 95 92 92 86 94 94 96 70 63 59 58 59 64 74 82 87 83 71 60 54 52 51 59 60 62 78
100 99 97 98 97 97 97 98 99 93 95 99 97 93 88 94 96 100 96 93 87 91 93 96 92 86 80 73 72 65 65 75 84 87 90 80 61 58 57 62 79 89 72 83

GFSNW_sfc_rhum_015.txt.gz
RH
93 94 93 90 85 86 84 96 84 90 75 88 89 97 91 82 86 89 88 60 65 67 69 78 85 80 72 66 58 66 67 57 64 60 62 48 51 42 44 57 58 63 64 51
94 94 94 92 88 87 96 93 85 89 91 86 85 93 94 92 89 80 73 65 67 60 68 88 82 76 74 66 62 62 62 76 87 80 71 72 68 50 46 55 58 61 59 49
94 90 94 94 91 87 96 94 79 88 92 81 69 83 91 90 74 78 71 77 72 71 76 72 85 81 71 66 63 72 62 71 63 59 66 66 70 59 53 51 63 59 59 58
93 92 92 95 94 90 95 87 70 80 79 71 65 63 72 77 77 76 77 80 83 68 75 72 80 73 64 57 64 61 54 62 60 59 58 63 62 62 55 52 52 50 51 54
92 93 90 95 94 87 86 82 76 77 77 64 62 66 69 68 67 71 87 87 66 69 67 63 72 65 64 62 61 60 55 63 55 53 50 48 54 54 65 65 63 57 59 57
92 94 94 94 93 82 90 92 86 64 73 66 66 66 62 62 60 60 59 62 55 59 56 46 49 54 53 56 55 57 51 52 49 56 60 52 42 45 47 48 50 50 49 40
92 95 95 88 93 83 92 95 93 64 61 68 63 65 62 65 59 61 58 55 50 50 43 41 43 45 53 57 62 55 54 56 56 58 60 57 42 49 46 44 52 45 51 51
92 95 94 91 93 87 92 97 86 74 73 73 67 64 66 59 59 59 59 57 60 59 52 57 61 67 54 60 70 58 55 61 71 68 66 58 61 51 51 53 69 61 59 59
94 94 95 94 94 89 94 97 96 84 74 66 64 65 69 66 67 62 61 57 60 58 69 75 83 83 71 75 78 59 56 58 62 91 86 80 59 53 50 47 81 68 68 70
94 94 94 95 94 91 95 96 96 92 79 84 75 63 63 64 67 68 72 66 61 66 81 91 93 86 72 82 80 72 65 69 73 80 81 70 56 55 55 68 63 73 70 75
92 93 94 95 95 92 95 96 96 95 94 93 88 75 70 74 74 74 69 72 70 77 82 88 88 83 72 79 79 70 68 83 82 86 86 76 65 70 67 66 77 66 66 67
92 93 93 94 95 92 91 97 94 94 95 92 94 90 87 71 73 73 78 82 74 74 89 90 88 87 87 84 85 82 81 70 73 71 73 65 73 65 67 64 65 73 75 74
92 91 91 94 94 91 91 97 97 95 96 96 94 94 83 76 75 61 76 84 72 83 80 86 87 78 85 87 83 82 79 76 76 74 79 76 70 72 70 75 73 75 77 78
89 89 92 94 95 91 90 98 98 94 96 96 96 82 87 77 82 68 68 73 81 83 88 90 92 89 85 91 83 83 77 78 80 81 82 81 79 78 75 74 77 79 78 80
87 91 94 94 96 92 96 99 100 98 90 97 99 87 83 82 82 70 71 72 78 90 92 92 92 95 89 97 95 96 89 81 82 81 73 72 78 76 76 78 78 81 79 86
86 93 94 96 96 92 94 95 97 97 97 90 100 89 86 89 84 84 87 87 94 96 95 96 94 88 83 98 98 81 85 84 74 76 80 73 76 79 82 81 84 90 87 88
88 93 95 98 94 96 95 93 95 96 95 93 100 96 86 81 85 92 90 88 97 95 97 96 93 92 88 96 97 80 83 83 79 79 75 80 80 84 91 92 96 92 95 93
91 95 96 93 92 94 97 97 95 96 96 93 100 100 95 80 98 98 96 98 96 98 98 96 94 95 95 98 90 86 83 81 81 86 87 85 91 93 97 94 95 96 97 94
93 95 92 90 94 97 99 89 93 95 93 100 100 100 99 89 98 97 96 95 99 98 99 96 90 97 99 89 89 86 84 80 83 95 98 99 98 99 98 96 96 96 94 97
94 90 94 100 99 88 88 90 95 99 99 100 99 94 99 92 95 99 96 98 100 100 97 96 100 98 88 89 86 83 82 80 90 95 90 98 99 98 97 95 88 86 94 94
97 98 100 99 88 90 95 100 100 100 100 99 96 94 97 92 98 99 98 99 99 98 93 97 97 97 91 81 87 88 92 86 88 82 82 82 83 86 92 96 89 95 96 94
92 93 94 96 97 99 94 98 99 99 96 99 98 98 97 100 96 98 100 95 97 86 94 94 96 92 78 78 82 82 84 83 83 85 84 85 87 89 92 93 94 94 92 75
94 96 100 99 100 99 96 100 99 99 99 100 100 100 98 100 99 99 97 96 89 94 94 92 91 85 77 80 76 79 81 82 84 84 85 85 88 90 92 92 92 91 88 60
100 100 98 97 99 95 90 95 94 95 100 100 98 100 98 99 99 98 91 99 94 99 100 96 87 81 79 81 73 68 70 79 78 78 77 77 82 90 90 91 86 80 67 56
100 100 97 98 96 100 99 99 98 99 97 94 95 95 95 99 98 93 97 98 97 89 92 94 84 73 78 72 70 70 72 67 73 81 81 80 73 77 80 66 64 60 56 52
100 99 99 96 98 98 99 99 99 99 92 92 94 97 97 98 95 98 93 94 95 90 94 94 95 69 67 61 61 61 63 67 71 80 84 83 78 65 60 54 55 55 56 74
100 99 96 98 98 96 95 94 99 92 82 98 97 94 94 94 98 99 95 92 89 94 95 97 89 80 78 70 70 72 71 68 73 80 84 87 84 73 63 64 74 84 70 82

GFSNW_sfc_rhum_018.txt.gz
RH
93 93 93 92 89 87 84 96 92 92 92 99 98 98 94 87 88 89 85 80 65 73 86 76 75 83 74 60 55 51 55 61 59 61 54 44 46 46 49 63 65 70 69 55
92 92 92 92 91 86 95 93 97 87 89 98 97 93 93 90 91 90 83 68 60 60 76 91 86 75 67 63 58 62 60 74 88 79 74 74 66 53 49 56 60 65 62 54
90 91 89 92 93 89 95 96 92 97 97 91 82 93 92 94 88 85 74 65 57 73 82 76 87 83 72 66 61 74 62 72 62 68 65 63 71 57 56 54 68 65 62 60
88 91 90 90 94 92 96 93 77 83 81 75 70 73 83 82 90 78 74 75 72 71 84 78 83 78 68 62 74 62 53 68 71 59 62 66 61 60 56 56 57 56 58 52
88 91 92 91 95 88 95 87 80 81 68 61 63 71 74 81 66 78 80 78 68 64 68 69 82 71 72 71 65 56 53 64 55 53 52 57 66 65 58 60 60 56 60 57
89 91 94 93 94 88 92 92 90 62 66 60 59 65 76 68 63 76 83 65 71 66 58 52 54 58 57 58 54 57 52 52 59 71 60 50 50 47 71 65 65 60 66 54
90 90 94 95 92 87 87 94 92 69 58 61 61 62 65 71 63 76 78 74 62 55 45 53 50 47 55 57 60 53 53 52 58 62 64 60 48 63 47 54 56 50 50 55
89 91 94 95 91 90 89 97 89 72 72 74 69 65 64 57 61 60 61 56 56 47 50 80 73 72 50 62 63 59 54 56 69 62 58 56 63 58 57 56 72 68 61 62
90 93 94 96 93 89 92 98 95 80 75 72 67 67 66 63 62 60 64 61 62 59 69 70 82 94 70 62 72 57 57 59 56 88 83 68 59 54 49 54 81 65 63 68
91 94 94 96 95 91 94 96 96 87 80 85 77 67 64 62 62 67 68 62 65 66 83 89 90 82 71 74 71 63 70 75 72 83 82 71 56 57 54 66 66 72 70 67
93 94 94 95 96 91 95 96 96 94 92 94 89 77 71 71 69 60 62 63 65 77 81 87 91 81 76 82 78 67 65 82 83 87 87 76 62 67 63 64 73 66 67 66
93 93 94 94 96 92 92 97 96 95 93 93 94 92 89 78 71 71 75 79 74 72 88 88 87 85 84 83 83 83 73 62 66 70 73 67 79 69 71 65 67 71 70 72
92 92 92 92 95 94 91 96 97 95 97 96 94 96 86 80 86 66 76 87 73 84 83 89 89 78 88 88 84 82 81 79 77 72 77 75 70 69 67 71 68 69 75 76
89 88 88 94 95 91 90 96 98 92 94 97 97 83 88 80 86 73 72 74 86 87 91 92 92 84 86 87 81 79 76 76 80 83 86 81 78 77 70 71 74 79 79 81
89 88 92 95 94 91 95 99 99 98 88 97 99 84 81 88 78 78 74 74 82 93 92 89 92 94 91 98 94 94 89 81 82 79 75 76 78 73 75 76 78 79 80 87
91 90 93 95 95 93 92 94 95 97 99 92 100 89 86 84 80 84 90 93 95 96 95 97 97 91 89 97 96 81 87 85 78 77 81 81 81 82 82 84 88 89 88 86
88 93 96 97 95 96 94 90 94 96 98 92 100 99 85 82 86 93 90 88 97 94 96 97 95 94 89 95 95 77 85 85 81 80 78 82 83 85 90 91 96 90 95 94
92 96 96 93 90 93 98 98 94 94 93 90 100 100 95 82 98 98 96 97 95 97 98 97 95 95 92 98 88 88 87 87 87 88 87 83 92 95 97 96 94 96 94 91
96 95 93 90 94 97 99 91 93 96 90 99 99 98 98 88 98 97 94 95 99 97 98 97 90 98 98 84 88 88 86 81 89 97 98 95 98 100 98 94 93 93 89 92
94 89 90 100 99 89 88 90 94 99 100 97 98 96 99 95 96 99 96 98 100 100 98 96 100 99 88 87 85 82 85 85 95 97 97 99 98 98 97 96 94 93 92 93
96 99 100 99 88 90 97 100 98 99 99 97 96 94 97 92 98 99 98 99 98 99 95 98 98 96 91 83 86 89 92 88 85 83 82 78 72 81 87 92 94 93 91 97
91 94 95 95 96 96 91 99 100 99 92 99 98 98 98 100 96 96 99 97 96 94 94 97 99 90 82 81 86 91 92 89 87 82 80 83 85 87 89 90 92 94 95 94
94 96 100 100 100 99 97 99 99 100 99 100 100 100 98 100 96 99 96 93 95 92 94 79 90 88 80 84 81 82 82 82 82 82 80 80 83 88 90 90 92 93 94 92
99 100 99 97 99 96 90 94 94 96 100 100 98 100 99 99 98 96 90 95 91 99 96 98 92 84 81 83 78 73 74 75 75 75 77 80 82 85 90 92 92 92 93 85
100 100 98 99 98 98 100 97 99 99 98 95 95 96 96 99 98 95 98 99 97 87 92 91 86 82 83 81 78 73 66 71 74 77 78 79 79 79 81 87 90 85 78 68
100 98 97 95 97 99 99 98 99 100 92 94 93 96 95 99 96 99 96 94 95 90 95 96 92 84 74 70 68 65 65 66 68 73 77 78 82 79 75 66 61 60 62 74
99 99 93 98 98 97 96 97 99 93 88 98 95 93 94 95 98 98 96 95 90 95 96 94 84 78 72 70 70 73 73 73 74 74 76 80 84 84 78 78 82 86 68 84

GFSNW_sfc_rhum_021.txt.gz
RH
88 91 92 92 91 85 92 96 98 96 90 99 95 98 87 83 90 85 82 69 72 77 64 85 75 82 73 62 63 71 53 53 66 52 56 52 46 49 50 60 62 61 57 50
89 90 91 91 91 86 95 95 96 97 98 98 98 87 92 90 91 92 84 80 61 66 65 74 86 79 56 66 67 62 56 70 87 91 81 70 54 47 49 53 54 60 56 49
89 90 90 91 93 91 94 98 98 99 99 96 99 96 93 91 94 90 86 76 61 81 79 81 91 87 76 72 62 70 58 67 63 77 74 63 63 52 50 45 58 57 53 44
88 88 90 92 94 94 94 98 90 90 98 96 91 94 94 94 98 96 79 72 63 76 93 88 92 82 78 67 70 61 57 65 62 60 54 55 55 56 53 51 45 46 45 50
89 89 91 92 94 94 96 96 87 91 79 63 74 92 91 93 80 83 80 71 63 73 84 79 88 78 71 67 66 62 59 68 56 60 60 63 62 61 50 50 54 51 51 51
90 90 92 92 96 87 97 94 93 77 68 61 78 70 89 89 77 81 84 70 67 71 64 64 66 57 59 60 60 64 62 58 62 68 56 49 59 56 59 54 58 44 54 41
90 91 92 94 96 87 84 94 92 81 66 64 58 61 86 76 81 84 87 67 66 61 50 56 46 48 55 51 58 57 73 59 63 61 55 69 54 57 57 54 55 54 49 49
90 90 91 94 95 95 90 97 93 79 63 63 67 65 64 59 62 81 83 74 67 60 61 72 82 79 74 63 60 63 57 53 61 65 60 56 62 57 60 54 61 61 64 68
89 90 91 94 96 96 89 98 94 82 71 66 60 64 61 72 67 70 85 79 71 67 76 76 96 98 91 71 63 53 57 53 59 88 71 61 50 54 49 54 65 64 63 67
88 90 93 95 96 96 90 96 94 88 74 80 76 71 64 60 69 76 64 59 70 73 79 87 84 75 76 77 66 63 68 70 64 76 71 66 53 54 50 63 57 70 66 69
88 90 95 94 96 96 94 96 97 92 89 94 91 77 69 65 64 63 62 58 61 78 73 83 85 74 73 76 68 64 63 76 76 83 80 64 58 61 57 62 71 67 65 64
89 93 94 94 96 97 95 97 96 95 92 94 96 93 90 78 70 68 78 71 72 71 86 90 90 85 87 82 78 79 66 59 66 68 68 71 74 68 71 65 67 68 67 67
91 93 92 93 94 96 95 98 98 96 97 96 95 96 88 81 89 77 74 85 73 83 84 90 90 79 87 87 85 84 83 77 76 69 74 76 73 70 67 65 67 68 69 70
91 89 89 93 94 97 94 97 98 95 96 95 96 84 88 82 86 75 74 75 87 86 90 92 91 83 86 86 78 78 75 75 81 88 86 77 72 73 72 75 76 77 76 75
90 89 91 93 95 96 95 99 99 98 89 96 98 84 81 88 80 80 76 77 84 92 90 92 93 94 95 97 92 89 87 78 78 76 72 74 73 73 74 77 79 79 81 88
91 92 92 94 95 94 95 96 97 98 98 93 100 89 88 86 84 88 91 93 95 96 95 98 97 90 87 95 95 78 86 84 74 73 79 84 83 81 80 83 86 84 81 84
92 92 94 96 94 94 93 91 95 96 96 92 100 99 86 82 87 93 90 89 97 94 97 96 95 95 86 88 93 72 86 86 86 84 76 81 84 83 87 89 93 89 94 93
91 95 97 94 91 92 96 96 93 93 91 88 100 100 97 85 98 98 96 96 94 97 98 97 92 97 91 98 84 87 89 88 86 88 88 82 91 94 97 97 94 96 93 88
96 95 93 93 94 98 97 91 91 94 86 99 99 99 99 90 98 98 93 94 99 97 98 96 93 97 98 85 89 91 93 84 90 97 94 93 93 99 100 100 96 96 94 92
94 91 89 100 99 89 84 89 92 98 99 95 97 95 98 94 96 99 96 98 100 100 98 97 100 97 87 86 82 80 84 87 95 98 100 100 100 100 98 97 94 90 91 90
96 98 100 99 88 88 97 100 95 96 99 95 96 94 98 93 98 99 97 99 98 99 96 99 96 98 93 89 90 90 92 90 85 80 84 89 87 97 92 93 92 93 93 91
90 96 95 94 94 95 92 98 99 99 95 99 98 98 98 99 97 94 98 99 95 94 92 99 98 90 84 87 90 92 92 89 85 78 77 80 78 82 83 87 91 93 93 96
92 96 100 99 99 98 99 99 99 99 98 100 100 100 96 99 96 99 95 92 96 93 99 87 89 86 84 87 92 96 93 89 84 83 81 82 86 88 88 89 91 92 95 95
99 100 99 98 99 96 93 95 95 97 100 100 98 100 99 99 97 95 86 98 91 98 92 92 92 86 87 87 86 87 89 83 81 80 79 80 82 85 88 90 91 93 94 94
100 100 98 99 97 98 99 98 99 100 98 96 98 98 96 99 95 87 96 99 97 84 92 93 89 87 88 82 74 72 75 75 73 78 76 75 76 76 77 85 92 92 88 88
100 98 97 94 98 100 99 99 99 100 92 95 94 98 96 100 96 98 98 92 92 88 94 96 94 86 80 77 74 69 67 66 67 72 74 72 77 77 76 72 73 75 77 84
99 99 92 96 98 98 98 98 99 94 91 96 96 92 90 97 100 98 95 93 90 93 94 93 91 79 73 70 68 69 71 74 76 76 76 77 82 84 81 82 87 86 66 83

GFSNW_sfc_rhum_024.txt.gz
RH
85 88 90 89 92 91 90 78 90 96 91 98 97 96 90 86 85 82 87 72 51 47 48 51 56 56 50 40 45 77 63 37 54 74 52 42 42 53 51 59 53 39 35 29
86 90 90 90 93 83 84 61 88 97 88 96 98 86 88 88 89 92 92 89 48 42 44 55 65 51 37 48 49 56 50 46 60 64 60 52 59 42 43 40 36 40 41 32
86 90 91 91 93 91 84 71 96 99 98 94 95 94 94 95 84 85 81 83 48 43 42 42 59 65 52 52 47 66 52 44 43 49 44 45 62 62 39 43 50 38 35 29
86 90 91 92 94 93 86 72 71 79 97 88 95 94 92 94 94 89 86 90 65 39 44 48 60 58 61 61 59 58 56 46 40 38 43 40 43 55 55 40 37 39 32 34
87 90 91 92 95 95 92 64 70 67 66 70 72 97 92 92 91 89 94 81 69 44 53 51 60 62 56 67 60 52 49 47 42 44 46 42 42 39 45 44 35 32 32 32
88 90 91 93 96 91 91 81 70 60 59 53 82 91 90 88 79 88 73 56 53 53 56 50 42 43 45 48 58 58 50 46 46 48 43 47 52 41 39 37 32 31 37 29
92 91 92 93 96 91 77 78 63 65 53 52 74 61 92 90 88 89 69 49 48 48 42 44 43 46 47 48 48 45 50 48 51 48 41 84 37 38 32 35 31 30 30 33
92 91 91 92 95 93 90 92 70 67 61 47 77 65 79 81 88 88 82 78 66 48 48 62 78 90 86 77 52 59 56 52 65 66 51 41 36 43 41 44 39 35 34 36
93 91 91 92 93 96 92 93 74 63 61 50 58 71 53 66 86 92 93 83 69 62 62 71 98 98 95 92 75 55 57 61 75 69 69 69 35 40 35 35 41 41 36 43
93 91 90 91 94 97 91 92 76 68 67 59 62 52 54 47 74 93 87 88 86 80 80 75 79 76 62 83 80 82 65 59 85 89 87 43 41 41 40 40 40 47 41 45
93 90 90 92 95 97 95 95 82 74 70 74 80 62 53 51 57 93 79 84 87 94 90 87 76 62 65 56 47 58 61 73 65 78 80 69 42 44 41 47 51 50 49 50
90 90 90 93 94 98 95 98 85 83 80 83 86 79 74 64 57 59 66 60 68 85 89 75 69 60 60 53 52 52 52 49 42 44 45 57 53 51 51 46 49 50 50 49
89 90 91 94 94 96 95 98 95 90 90 88 83 79 73 70 76 65 53 64 54 63 62 70 75 67 59 60 56 56 54 54 47 52 59 58 54 54 49 46 49 50 49 51
88 89 92 93 94 96 96 98 95 86 85 84 85 71 74 69 70 64 60 57 65 61 60 70 72 68 65 63 56 53 51 54 53 65 64 58 55 51 52 55 55 57 56 54
89 90 92 93 93 97 97 98 98 95 85 85 90 76 72 71 65 66 62 63 64 63 72 73 77 73 72 78 66 62 53 51 49 46 47 45 48 52 54 57 59 57 61 64
92 92 93 93 95 97 99 100 99 98 97 88 99 80 80 74 70 72 75 75 76 80 79 86 83 78 69 84 72 55 52 54 50 45 45 56 48 53 53 57 60 60 59 62
92 92 93 95 96 96 96 92 96 96 97 92 100 98 81 75 78 80 75 75 84 80 84 83 80 78 71 70 72 50 56 56 60 55 56 65 57 60 60 62 66 70 70 68
91 92 96 95 91 92 94 92 88 91 89 86 100 99 95 78 93 91 84 85 82 89 87 84 79 83 76 96 62 57 63 64 62 62 62 54 64 68 75 77 80 84 79 75
92 96 94 94 95 97 96 90 87 91 84 98 98 100 100 86 96 93 90 91 98 92 91 86 80 82 99 77 64 62 67 63 68 80 82 83 91 99 99 96 90 83 81 75
94 89 92 100 98 92 87 84 85 96 97 92 92 83 99 92 93 98 95 97 100 100 98 93 100 92 70 69 63 58 65 71 76 93 100 100 100 100 98 88 79 70 64 71
94 96 99 99 89 85 92 100 95 92 99 88 86 77 92 85 96 98 92 99 99 100 93 98 94 86 77 74 77 76 81 76 70 64 67 70 73 81 79 71 68 67 69 72
90 94 94 92 92 96 98 97 98 98 93 96 95 89 86 95 89 94 96 99 94 98 81 95 88 71 69 76 80 79 74 69 65 64 67 64 69 62 60 63 68 71 71 75
93 95 100 97 100 100 98 97 96 100 100 100 100 100 93 93 84 96 86 93 91 80 97 85 70 71 72 73 80 84 73 67 60 62 62 61 68 66 65 68 70 71 74 77
99 100 100 99 100 92 91 84 90 90 100 100 96 99 95 90 93 83 89 88 82 90 93 82 60 65 71 74 81 81 80 65 64 66 65 68 68 69 69 68 71 73 76 79
100 100 100 100 95 96 95 93 96 100 96 96 96 98 85 94 92 78 90 95 90 77 78 68 62 69 68 75 79 78 73 66 61 57 56 59 60 61 64 71 74 74 75 76
100 100 96 93 95 99 97 97 100 99 89 89 92 97 94 98 89 93 96 86 86 76 78 78 77 67 61 60 64 60 56 52 52 53 54 56 57 56 55 57 63 69 70 72
100 98 86 90 93 95 93 89 98 91 85 94 92 89 88 93 98 98 84 87 75 78 79 76 77 72 68 60 56 55 56 56 56 57 58 59 65 64 61 63 66 62 50 60

GFSNW_sfc_rhum_027.txt.gz
RH
90 87 89 85 88 94 89 93 95 79 92 99 96 96 80 88 89 82 89 86 83 73 45 40 41 47 36 31 38 78 76 64 98 92 58 53 51 59 45 44 47 34 31 31
87 92 87 86 89 89 83 93 88 94 89 98 97 78 89 90 91 88 92 94 81 53 36 42 39 38 31 36 40 65 53 47 93 96 68 62 66 49 47 41 40 39 35 32
86 91 85 88 94 86 89 90 97 100 99 84 91 89 95 96 86 90 85 87 64 53 36 31 39 40 38 39 34 66 58 48 41 45 49 54 58 48 43 45 48 38 34 28
86 88 88 89 95 91 94 94 79 69 93 93 92 95 90 94 96 89 83 91 76 49 42 37 44 43 41 44 50 55 54 50 38 36 35 42 47 53 46 44 42 42 32 30
84 89 90 91 93 94 97 95 73 65 79 69 79 92 93 95 91 88 94 94 77 42 35 33 42 45 42 52 44 44 52 51 40 39 36 37 40 43 46 44 38 36 34 30
87 90 91 92 95 91 97 93 74 60 55 52 62 71 86 88 88 87 76 80 68 43 28 25 29 34 34 40 46 50 57 53 47 44 37 40 48 36 35 38 39 36 38 30
83 87 94 92 96 89 80 77 78 86 53 35 41 64 82 92 94 92 72 65 60 36 57 58 62 39 41 38 46 44 54 53 53 55 43 69 32 31 28 30 30 31 32 28
87 88 86 92 95 93 86 88 85 75 53 36 43 73 82 93 92 90 63 57 52 41 71 72 76 81 73 71 52 46 42 45 57 62 49 39 34 34 34 35 34 27 28 27
84 87 92 92 94 95 94 93 95 91 58 38 49 70 62 92 96 92 80 64 56 48 63 89 98 99 96 98 80 60 54 46 59 68 78 68 34 34 29 29 43 26 26 28
85 88 92 92 93 95 95 96 91 94 64 45 52 75 71 63 94 97 86 76 69 66 71 89 90 92 82 97 97 87 92 81 77 83 74 54 34 32 30 43 44 35 30 30
85 87 90 92 92 94 94 97 92 88 60 57 64 58 47 48 76 90 92 92 88 89 87 81 60 68 62 64 68 67 88 96 98 94 99 88 36 40 40 45 42 38 35 38
85 87 88 92 92 97 93 99 92 77 82 78 72 65 60 58 64 90 87 86 83 89 93 78 59 54 60 49 64 42 63 50 53 61 59 49 37 45 42 39 42 42 44 45
86 88 87 92 93 96 94 98 98 94 92 79 76 70 64 62 68 70 91 90 82 90 79 88 78 64 47 60 48 45 43 43 40 42 45 47 44 47 44 40 43 43 43 45
84 85 88 91 93 95 95 98 97 89 72 77 77 64 68 61 61 63 56 67 53 71 83 92 88 77 58 56 49 42 42 44 44 46 54 52 50 45 44 45 45 48 45 44
85 86 90 93 94 94 97 98 98 92 85 78 82 69 66 60 56 59 56 51 55 58 74 77 78 67 66 65 58 54 46 41 45 42 39 40 42 44 46 50 52 50 54 56
88 88 92 95 94 96 97 99 99 97 90 79 97 76 72 64 58 61 65 68 63 65 70 77 73 68 63 80 72 45 40 41 43 41 39 42 44 48 45 50 52 50 51 55
90 91 95 94 97 95 98 97 98 97 95 90 99 94 79 70 68 70 67 66 80 75 76 77 71 71 69 67 73 46 43 44 48 46 47 52 49 53 47 51 54 57 55 55
92 95 95 96 93 95 98 95 92 96 95 93 100 98 93 75 86 87 78 81 78 84 82 80 72 75 68 95 61 44 46 50 50 50 51 46 48 52 59 63 66 70 66 63
95 96 94 95 94 97 98 89 87 93 92 99 99 100 100 81 94 88 86 83 93 83 84 78 79 73 99 84 64 51 54 53 58 67 68 70 80 92 90 83 74 70 70 64
95 91 95 100 98 92 89 83 85 95 97 94 89 71 99 88 90 98 94 96 99 100 96 85 96 90 66 63 57 47 53 56 74 95 99 100 100 99 95 77 66 60 62 61
97 98 99 99 91 84 89 100 96 95 97 85 78 64 92 83 96 97 94 100 100 100 91 94 89 80 72 64 64 58 63 65 63 56 66 68 74 76 70 68 58 54 57 61
92 94 92 90 93 99 100 99 98 96 93 89 85 80 77 90 90 95 98 100 96 99 74 97 88 65 60 67 66 65 63 61 59 56 59 59 60 59 54 56 59 60 64 68
94 94 100 98 99 100 100 98 98 96 95 100 99 99 88 86 86 96 89 100 93 72 91 82 66 67 64 70 72 70 62 58 59 61 60 55 56 54 57 62 61 60 63 69
99 100 100 100 100 90 89 76 85 89 99 100 96 97 90 81 92 80 98 84 78 90 92 83 55 60 65 72 74 64 61 58 61 62 63 66 63 63 60 63 60 63 69 78
100 100 100 100 95 96 93 91 96 98 94 93 95 96 80 93 94 74 88 95 90 78 76 64 55 62 67 77 76 64 63 60 58 55 57 61 60 61 67 67 66 67 73 74
100 100 98 92 97 98 94 98 100 99 86 90 92 98 99 96 88 89 90 83 83 76 75 80 70 63 68 76 74 62 57 54 51 50 51 52 54 54 58 64 66 69 72 76
100 99 76 88 94 93 91 88 98 83 82 99 96 98 99 90 93 91 80 84 74 80 75 68 69 70 74 66 58 55 53 50 51 53 54 57 57 53 53 63 68 63 54 65

GFSNW_sfc_rhum_030.txt.gz
RH
88 89 90 91 84 92 91 97 98 93 93 99 98 97 77 67 84 85 92 93 94 94 76 76 54 52 40 35 67 81 81 94 99 98 81 68 69 69 67 64 58 53 50 51
86 85 89 86 90 91 96 98 98 95 91 98 98 83 78 76 93 93 94 94 89 82 79 78 47 42 34 38 57 73 79 92 100 99 89 76 87 71 65 55 56 59 55 52
84 87 87 84 95 86 94 99 98 100 99 90 88 88 83 85 86 93 90 90 86 91 86 55 44 40 40 43 43 70 78 85 97 98 83 77 79 75 59 64 72 59 51 45
80 86 88 91 94 86 95 98 91 82 98 97 95 88 89 96 98 91 89 95 94 89 69 60 38 38 43 48 51 62 86 73 69 62 62 62 59 60 52 64 59 64 50 38
78 82 84 91 93 90 98 98 87 85 74 73 88 92 89 92 91 95 95 95 89 74 68 38 41 39 45 50 43 54 70 80 54 49 48 48 56 55 53 50 52 54 51 48
81 81 89 90 94 92 99 97 80 74 75 72 81 82 82 85 88 89 79 86 85 85 62 32 32 35 38 44 55 60 76 74 61 60 46 48 60 52 56 55 50 46 53 42
82 79 88 88 96 89 89 85 87 91 83 69 58 51 64 81 87 94 85 78 81 60 45 40 38 44 42 45 46 44 59 72 69 81 59 83 50 42 38 42 41 45 44 41
78 79 90 89 91 94 89 85 90 94 92 71 67 46 79 92 96 95 87 78 61 58 73 68 83 81 77 70 63 59 54 63 84 91 70 51 46 44 44 46 42 36 43 42
77 80 87 85 91 94 95 93 95 96 95 82 52 73 82 97 98 98 82 68 65 64 90 87 99 93 93 96 84 68 65 57 74 97 89 87 53 43 36 40 59 49 37 40
74 82 88 86 90 94 96 97 91 98 97 73 62 71 82 89 98 98 86 79 74 78 95 94 93 87 82 94 99 95 86 86 93 86 97 75 47 43 40 62 62 49 42 46
74 86 88 85 85 95 96 98 93 96 96 82 70 67 84 72 95 96 90 89 86 93 94 93 86 91 87 91 82 86 88 96 96 94 99 92 45 48 54 58 56 49 55 56
74 84 87 85 88 95 95 99 94 95 100 94 78 69 65 62 70 93 97 92 87 90 93 91 71 73 76 75 93 62 87 81 90 86 77 57 53 60 55 51 52 58 65 64
74 81 85 83 89 93 94 99 99 98 99 92 88 80 67 66 68 80 93 96 92 91 91 91 90 74 72 76 71 62 61 62 58 63 56 56 53 59 59 55 58 60 60 61
74 76 84 83 89 93 94 98 98 98 96 91 90 68 77 67 71 76 90 93 84 93 96 97 97 94 71 77 65 61 57 54 59 60 64 60 61 59 59 59 60 59 58 61
76 78 85 84 92 93 95 98 97 98 99 95 92 74 74 66 64 71 76 92 70 80 97 97 98 94 84 82 72 70 56 54 58 61 50 52 60 58 57 60 64 63 62 68
78 82 85 88 94 96 98 98 100 97 96 97 100 81 79 74 65 68 70 76 74 82 89 93 86 77 84 91 90 56 50 52 52 52 54 56 58 59 58 62 66 68 68 68
80 84 88 92 97 96 99 96 98 96 95 96 100 99 84 77 79 84 82 77 92 93 90 94 90 88 87 85 95 60 54 58 58 55 56 67 64 67 63 64 67 68 70 72
84 86 92 97 94 95 99 98 97 96 97 94 100 100 96 81 92 97 92 94 93 95 96 93 91 89 86 98 78 58 59 61 63 65 63 63 65 68 77 79 77 80 81 79
85 93 96 97 96 98 100 91 96 97 95 99 100 100 100 86 96 93 92 95 98 93 87 87 93 91 99 87 78 63 66 67 74 86 84 80 86 90 89 88 84 83 84 81
94 95 98 100 98 94 92 94 99 99 99 99 99 86 99 92 93 98 97 99 100 100 99 95 99 97 83 75 70 64 68 80 87 96 100 100 100 96 92 87 83 80 81 82
98 99 99 100 90 90 96 100 100 100 100 96 89 82 97 87 98 99 98 100 100 99 98 95 98 89 89 72 76 79 83 84 83 82 90 88 91 92 81 75 72 72 75 80
94 95 94 94 95 100 98 100 99 97 98 96 92 90 91 98 95 96 100 100 99 94 90 99 87 88 71 79 82 80 78 76 75 77 81 84 78 76 68 69 74 79 82 84
98 97 100 98 100 100 98 98 97 96 95 100 99 99 96 98 94 99 99 98 96 87 88 84 86 84 83 87 86 82 73 70 69 70 66 63 67 68 69 77 78 79 85 86
99 100 100 98 100 95 96 93 94 98 100 100 98 99 97 95 98 97 92 96 92 95 96 93 88 86 90 80 82 76 72 68 67 68 69 72 71 77 78 79 80 85 92 90
100 100 100 99 99 98 99 99 99 100 94 96 98 98 94 96 96 94 91 94 96 92 92 94 81 85 91 90 72 66 68 66 63 65 68 73 76 80 85 85 88 89 91 90
100 100 98 97 97 99 98 100 100 100 89 99 98 98 97 94 92 92 94 93 93 92 98 97 92 87 90 72 65 63 60 59 61 63 67 71 74 81 84 82 85 89 87 84
100 99 90 96 99 97 97 98 100 84 86 99 99 95 97 92 91 96 91 93 96 98 97 96 88 91 85 63 59 58 56 57 58 65 68 68 67 66 73 76 80 78 69 74

GFSNW_sfc_rhum_033.txt.gz
RH
78 86 87 89 86 92 96 98 99 97 91 99 98 99 81 65 70 78 81 91 95 95 94 97 90 70 53 48 60 72 75 92 99 96 78 78 81 89 85 77 71 69 63 55
78 88 84 90 88 94 98 98 98 97 91 98 100 92 78 70 75 81 95 96 93 90 94 98 81 61 42 58 64 72 79 97 98 99 90 91 94 82 79 87 77 70 63 56
79 85 80 84 86 91 96 98 98 99 99 94 90 95 90 88 76 78 91 94 91 94 95 86 82 62 48 59 59 72 71 88 98 99 98 82 92 82 79 80 82 77 57 61
77 85 80 84 86 92 95 98 96 86 98 97 91 90 94 94 90 89 89 97 94 94 97 96 87 67 45 52 70 83 80 98 92 93 89 84 70 76 77 72 75 71 51 52
70 81 77 84 87 96 97 98 97 86 89 80 96 96 95 92 80 93 97 99 94 93 94 71 70 62 53 60 72 86 84 87 84 85 80 70 70 67 62 61 60 62 62 57
68 80 78 83 87 94 99 98 89 83 87 85 93 94 94 83 77 80 82 90 87 95 86 69 57 37 47 46 49 70 78 82 92 77 78 69 68 64 62 57 59 57 69 51
69 78 79 85 87 94 98 90 91 94 91 80 80 79 81 81 78 94 81 89 89 71 63 66 58 51 42 48 50 53 80 77 79 86 63 81 48 47 55 57 55 55 51 42
66 76 74 84 89 86 99 86 92 96 94 78 76 84 84 85 91 89 90 85 69 71 70 75 82 80 68 86 73 69 62 73 86 93 86 61 50 47 50 57 56 52 52 50
69 75 75 81 88 88 98 93 96 96 94 90 74 80 85 94 95 98 87 74 68 69 86 84 96 99 90 98 87 73 69 70 77 98 94 86 54 46 42 46 61 56 52 56
66 74 75 83 89 87 96 97 92 96 97 84 84 88 89 88 95 98 95 80 75 80 95 95 93 98 86 92 88 95 88 83 92 91 99 87 54 44 45 59 56 60 54 56
64 73 75 84 87 86 97 99 94 95 97 88 77 74 89 85 94 98 94 89 83 93 94 93 96 87 84 91 86 88 94 97 92 90 96 93 54 50 52 55 67 69 75 74
65 73 73 85 86 88 94 99 95 96 98 98 88 76 73 73 82 98 98 93 88 88 96 92 84 86 96 92 94 85 89 77 85 83 74 62 63 62 59 56 58 74 78 77
67 71 72 84 84 87 94 99 99 98 99 96 99 91 74 71 78 81 96 97 89 92 92 91 89 76 82 89 84 86 81 75 79 80 65 61 59 62 61 61 66 70 69 71
72 70 72 82 84 87 93 98 98 97 97 97 92 74 82 74 76 84 91 92 92 92 97 96 96 93 84 86 70 72 65 70 67 68 70 68 64 63 65 68 66 70 71 70
70 71 74 83 84 89 95 97 96 97 100 98 96 83 80 75 77 81 91 93 94 98 96 95 95 95 87 88 82 74 58 62 67 69 54 52 57 64 64 62 69 69 73 77
70 75 76 83 85 92 97 99 99 97 98 99 100 85 84 80 74 82 93 97 90 92 94 96 95 80 82 92 89 60 54 54 51 51 58 62 65 65 64 67 71 71 72 72
76 76 78 83 89 98 99 95 96 94 96 99 100 100 86 78 81 88 87 83 93 94 93 96 93 89 86 92 96 65 59 62 66 63 58 68 69 73 70 70 74 74 78 79
80 81 82 85 93 97 98 99 97 95 98 97 100 100 97 82 95 96 95 96 96 94 97 94 95 90 91 98 78 67 66 68 69 70 68 67 73 76 80 76 75 82 85 82
85 85 85 98 98 99 99 96 94 98 95 99 100 100 100 88 97 94 94 96 98 97 94 96 95 94 98 83 81 68 71 69 84 88 82 78 83 89 87 84 84 86 89 82
86 97 99 100 99 96 91 94 97 99 99 99 99 92 99 93 94 98 97 99 99 100 99 94 99 96 85 86 75 68 70 83 83 88 94 93 92 91 89 86 83 79 79 74
99 99 100 100 94 89 96 100 100 100 100 98 93 89 97 89 97 99 98 100 100 100 96 96 98 95 90 76 82 84 87 84 82 84 89 84 79 84 86 88 84 82 83 82
95 95 96 96 97 100 99 100 100 100 97 98 94 95 92 96 95 96 99 99 98 93 95 98 95 86 76 86 90 91 90 86 89 89 89 87 82 75 76 77 80 85 88 78
96 96 100 99 100 100 99 98 99 98 100 100 100 99 93 96 95 99 98 98 97 90 90 93 88 85 90 91 89 87 86 84 84 87 83 73 69 67 72 84 86 88 89 87
99 100 99 96 99 97 91 94 94 94 100 99 97 99 96 96 97 98 94 89 92 97 97 93 91 89 93 84 85 88 85 71 71 72 72 73 72 81 84 86 86 85 90 90
100 100 99 99 99 99 99 100 99 100 96 94 96 97 94 98 96 94 91 95 97 93 90 93 93 94 92 78 83 76 74 70 69 68 71 76 79 84 93 92 92 90 91 89
100 99 99 98 97 99 99 100 100 100 92 97 96 97 98 94 96 96 96 94 93 86 96 98 97 96 89 82 77 76 67 65 67 70 76 79 83 88 93 92 91 88 83 80
99 99 94 96 98 99 99 99 100 92 95 99 99 90 87 94 96 99 95 92 92 98 99 98 94 93 79 72 63 63 63 65 67 72 78 80 78 76 80 83 82 75 70 73

GFSNW_sfc_rhum_036.txt.gz
RH
65 69 82 81 83 87 91 99 99 97 90 99 98 99 76 67 81 79 82 79 84 95 95 98 98 94 64 54 58 85 70 84 95 81 54 59 84 86 92 99 98 92 71 55
66 66 78 83 85 88 99 96 98 97 88 99 98 92 83 71 75 85 82 88 83 88 95 99 89 88 62 59 54 68 72 96 96 89 85 85 97 90 87 91 96 86 63 57
66 68 74 81 86 87 98 98 100 100 98 96 94 92 88 83 75 73 75 90 91 96 97 94 94 89 61 59 62 66 65 81 97 93 92 94 99 96 94 98 96 80 75 67
60 68 76 82 84 87 99 99 97 90 97 98 86 80 82 87 86 79 74 97 95 95 98 97 90 84 72 67 67 70 71 91 82 92 95 93 95 93 91 88 78 70 64 53
57 67 76 82 83 88 100 99 98 89 81 80 88 91 92 87 83 87 96 99 94 94 97 86 82 77 65 59 75 88 82 80 86 95 86 90 91 80 85 71 71 70 64 54
56 64 75 82 86 92 99 99 90 86 89 84 93 90 85 88 83 81 77 90 96 98 92 74 70 71 68 56 71 78 87 84 92 100 85 77 76 79 71 62 62 71 68 63
54 63 72 77 83 89 99 97 93 93 95 87 86 81 82 87 86 92 76 88 93 76 66 74 78 73 72 56 54 67 86 86 89 98 78 88 47 48 60 56 57 59 53 52
54 61 67 76 83 84 98 98 98 94 95 81 78 77 84 83 83 88 88 82 81 64 74 88 82 76 72 87 74 61 64 84 92 99 94 67 54 50 62 66 61 59 54 54
55 62 67 75 77 85 97 98 97 93 94 92 69 84 80 93 95 93 92 87 72 71 94 83 90 98 89 95 93 85 73 76 84 98 99 92 58 49 47 50 63 60 57 62
57 60 68 75 76 88 96 98 96 94 93 82 81 90 87 89 94 96 96 90 80 77 94 96 97 96 89 93 92 93 92 86 93 87 99 91 66 50 50 65 58 64 62 61
58 61 68 74 76 88 95 97 97 93 95 87 77 80 86 89 92 96 91 91 89 98 88 94 91 94 94 91 89 88 87 94 96 91 97 94 67 50 60 52 73 79 82 81
58 62 72 70 74 85 90 99 96 95 94 95 89 86 76 73 79 95 98 98 91 90 93 96 95 93 95 88 99 84 91 86 91 85 81 64 67 65 65 62 66 83 89 87
60 63 72 69 74 86 92 99 99 96 98 95 96 88 77 78 86 89 99 98 89 93 93 97 91 83 94 96 94 93 87 82 84 80 68 76 66 73 72 66 74 77 80 80
59 69 68 70 77 85 88 99 97 96 95 97 87 78 85 75 88 91 92 96 95 91 96 98 95 87 84 87 77 85 78 75 74 80 66 74 69 64 69 75 73 76 78 77
66 70 70 72 80 86 94 97 96 94 96 97 97 84 81 79 82 87 93 94 96 99 99 97 95 95 91 92 88 82 63 72 73 73 53 55 57 64 70 72 78 77 77 80
68 71 73 74 80 89 98 99 99 97 94 98 100 87 84 85 83 87 93 96 97 98 98 96 97 86 88 94 95 68 56 53 54 56 59 68 70 68 68 74 77 76 76 74
73 75 76 76 81 97 99 93 95 93 95 99 100 99 86 79 80 90 96 90 96 99 97 96 92 86 83 91 98 70 64 57 65 64 62 70 71 73 74 74 78 77 79 77
79 80 80 79 84 94 100 99 96 93 97 96 100 100 96 82 95 96 95 97 96 95 98 95 96 92 93 99 81 71 71 70 72 76 72 68 76 76 81 78 76 82 85 83
82 86 82 95 99 100 99 96 94 96 93 100 100 100 100 88 97 94 95 96 98 96 98 97 97 96 98 81 80 72 73 70 86 89 84 80 84 88 86 83 83 85 89 85
87 95 99 100 99 94 93 96 98 100 99 99 98 93 99 93 94 99 97 99 100 100 98 94 100 97 87 87 84 77 74 85 84 88 95 94 93 91 88 84 83 78 80 80
98 99 100 99 94 89 97 100 100 100 100 98 94 90 98 91 98 99 98 100 100 99 95 99 97 97 92 83 85 86 84 85 86 82 82 79 78 83 87 88 85 81 79 74
98 97 97 98 97 100 100 100 100 100 98 98 97 96 91 98 96 98 99 99 98 95 95 97 97 88 84 88 91 93 90 87 88 87 84 84 83 80 81 82 82 83 74 71
98 98 100 100 100 100 99 98 100 99 99 100 100 99 91 96 93 99 97 96 97 90 94 93 91 89 92 92 92 92 91 92 94 94 85 77 78 74 76 82 81 69 70 73
99 100 99 99 99 98 95 92 94 93 100 99 96 100 95 94 96 97 94 96 91 99 100 89 88 88 93 90 90 92 94 92 89 80 75 76 76 78 77 78 73 72 77 81
100 100 99 99 99 99 99 100 99 100 97 94 94 95 92 98 98 93 92 97 97 93 85 90 92 93 92 90 90 88 84 82 76 72 76 80 81 87 93 90 86 83 84 81
100 99 98 98 98 99 99 100 100 100 94 97 95 97 94 94 95 98 95 95 92 82 95 97 99 96 84 86 86 78 72 72 72 73 76 78 81 88 95 91 90 89 85 80
99 98 98 98 98 98 98 99 100 95 93 97 97 86 80 95 100 99 93 90 87 97 99 99 96 92 89 83 78 77 76 77 76 79 85 91 89 85 84 88 86 79 74 76

GFSNW_sfc_rhum_039.txt.gz
RH
59 59 62 69 86 84 90 97 99 96 92 99 99 96 80 68 87 84 84 78 80 83 81 96 97 88 80 63 75 94 82 85 96 77 54 65 63 89 92 98 94 97 98 73
60 58 61 68 85 86 99 97 97 98 87 99 99 93 84 71 87 89 81 82 78 75 92 99 85 83 70 64 77 82 73 95 97 83 85 67 86 77 79 96 94 97 98 75
60 59 63 71 79 85 98 98 100 100 98 93 85 89 87 90 76 80 74 81 82 93 97 95 94 88 74 68 60 66 62 88 89 79 74 80 100 96 94 99 99 83 92 68
61 61 61 72 79 79 98 98 97 93 100 98 79 81 80 80 89 77 72 91 87 92 99 95 96 93 80 69 67 66 78 95 82 79 79 90 100 98 98 100 90 98 80 66
59 61 65 72 82 82 100 99 98 87 89 83 82 84 95 89 78 84 88 96 92 93 98 94 94 80 75 71 83 80 79 85 91 95 80 97 98 93 96 98 94 95 90 60
61 57 62 70 82 87 98 95 93 85 86 88 94 93 87 83 72 83 77 81 89 98 93 87 69 74 88 88 86 93 90 88 96 95 91 95 97 95 87 82 83 74 67 68
63 58 61 68 77 85 99 96 99 95 96 82 83 81 77 81 83 94 84 87 93 82 77 76 80 86 87 85 79 68 84 79 86 97 95 97 54 55 69 75 71 59 62 50
64 59 59 67 72 78 97 97 100 95 94 83 81 80 83 82 79 92 90 82 74 78 87 91 96 94 91 87 71 69 65 78 94 99 96 74 56 49 62 72 69 62 58 53
65 58 60 66 73 76 94 96 98 100 94 92 74 86 87 93 94 94 91 88 87 89 92 88 95 98 88 93 93 84 71 71 85 99 98 96 61 58 51 54 63 56 60 59
65 60 61 66 75 77 92 96 96 100 93 87 78 89 88 89 95 97 95 92 92 81 98 94 97 98 87 90 82 96 89 84 89 96 95 88 72 66 52 68 62 64 63 63
66 60 61 67 73 77 92 95 94 99 94 90 79 84 91 95 95 97 92 99 93 97 98 93 95 94 96 93 88 88 92 94 97 89 96 90 60 54 59 52 73 80 82 78
66 60 61 69 69 74 88 99 97 98 93 94 92 78 76 83 88 93 98 99 93 93 91 95 94 96 96 92 99 87 91 82 91 85 81 65 72 72 72 68 71 84 89 91
61 60 60 71 68 72 88 98 98 96 98 95 96 89 83 82 84 82 96 98 91 95 94 96 98 95 94 96 94 94 88 83 87 81 76 78 73 72 76 73 82 89 86 83
62 63 69 68 71 73 83 98 97 95 94 97 88 81 89 82 92 93 92 97 92 95 97 97 97 96 88 92 84 90 86 84 84 84 77 73 66 68 76 82 80 81 80 77
68 72 70 71 73 79 89 96 97 96 96 98 97 87 82 84 93 95 95 96 98 99 99 99 98 96 89 93 89 89 80 82 80 77 63 60 63 66 74 76 80 77 77 80
73 72 72 73 74 82 98 100 98 96 92 95 100 88 85 87 88 92 96 96 98 99 98 97 96 88 88 96 96 72 65 64 65 65 60 68 75 74 75 79 79 78 78 75
69 73 76 76 78 95 99 98 97 93 93 98 100 99 87 80 83 92 98 96 98 99 99 99 95 89 90 92 95 70 68 64 67 70 69 74 72 76 78 76 79 78 78 75
76 80 79 79 81 91 98 98 95 93 96 94 100 100 96 83 96 98 96 98 98 96 99 94 95 89 90 98 82 83 77 77 77 79 78 68 79 81 86 80 78 83 84 80
83 84 82 92 98 99 99 96 92 94 92 100 100 100 99 89 97 94 94 96 100 95 98 98 98 96 98 81 75 76 76 74 82 90 88 83 84 89 88 85 85 86 89 83
88 94 99 100 99 96 97 95 99 99 98 99 99 93 99 95 95 99 98 99 100 100 98 97 100 98 88 87 85 85 73 83 85 89 97 95 94 92 90 86 86 79 81 81
98 99 100 99 94 96 97 100 100 100 100 98 94 92 98 92 99 100 99 100 100 98 94 98 95 98 92 85 86 87 85 86 83 80 81 80 78 84 88 89 85 81 80 76
97 100 98 97 98 100 100 100 100 100 98 99 98 96 93 99 97 99 100 96 99 93 95 97 94 91 84 90 91 92 90 86 86 86 85 83 81 79 81 81 80 81 77 67
98 99 100 100 100 100 99 97 100 100 98 100 100 99 94 98 95 98 95 96 98 92 96 96 93 89 90 92 94 95 92 91 92 90 85 82 83 78 77 82 74 70 69 67
98 100 99 100 100 98 98 96 96 96 100 99 95 99 95 95 98 97 95 94 92 99 100 90 89 87 92 92 93 93 97 95 92 91 85 83 81 83 77 70 67 66 69 71
100 100 99 98 99 98 99 98 97 100 99 98 94 95 88 96 96 93 93 97 98 96 88 92 92 92 92 93 94 95 95 90 86 84 86 85 82 84 83 74 71 69 69 67
100 99 98 96 99 98 99 100 100 100 95 96 93 93 91 91 95 96 96 95 95 83 95 97 100 95 92 93 92 92 90 86 84 82 80 80 82 83 90 84 80 76 70 68
99 98 98 99 99 99 98 99 99 93 92 95 95 86 80 94 100 98 92 89 87 95 98 99 97 92 93 90 89 88 85 83 82 81 88 85 82 77 78 87 87 80 75 77

GFSNW_sfc_rhum_042.txt.gz
RH
65 62 63 60 68 81 88 98 98 97 91 99 100 100 81 73 89 80 79 76 83 85 86 86 81 90 82 72 82 94 76 95 98 83 62 67 69 74 75 95 89 90 86 77
66 63 63 60 69 76 97 99 98 97 84 99 100 93 82 78 91 86 76 82 76 81 86 98 80 75 65 70 80 92 75 96 98 83 90 70 85 71 70 87 96 96 98 68
66 63 62 59 69 76 97 98 100 100 97 94 87 94 83 90 80 85 75 84 80 85 84 83 88 83 74 72 71 68 68 86 90 87 76 84 98 95 83 99 98 96 89 73
66 64 62 61 70 78 98 98 98 94 100 99 86 79 75 92 89 81 78 92 83 85 95 85 89 84 82 75 72 69 78 96 92 88 78 77 96 98 95 100 94 96 67 84
65 65 63 62 71 82 98 99 97 95 83 88 92 86 88 79 88 87 86 91 80 78 85 78 85 84 90 86 86 80 87 92 81 86 73 92 100 94 95 95 94 87 90 93
66 66 64 61 71 88 98 95 96 93 90 87 97 93 88 84 72 79 76 77 79 90 80 76 74 82 82 86 85 92 94 96 87 93 82 99 99 92 90 96 94 89 95 80
66 66 62 60 67 82 98 95 99 97 98 88 85 79 83 87 86 83 82 79 86 82 83 90 90 92 84 87 92 83 94 95 95 98 96 98 84 80 93 89 79 80 77 58
68 67 61 62 66 76 96 97 99 99 96 78 78 83 80 79 80 87 82 78 77 90 94 97 99 97 96 88 78 80 83 83 99 99 99 89 57 59 81 91 79 57 63 58
68 66 63 62 67 76 91 96 98 100 94 89 73 83 79 93 96 94 91 89 90 95 94 98 96 96 88 96 96 83 82 76 95 99 99 96 64 62 61 54 79 61 58 62
68 67 63 63 66 73 88 97 94 100 96 89 79 89 90 84 93 97 93 91 98 92 97 96 97 96 83 96 89 96 93 90 99 96 99 85 68 66 65 69 63 66 67 62
67 70 61 62 69 71 86 94 92 100 97 92 85 85 93 94 90 96 94 96 99 98 99 88 92 95 95 92 85 91 93 95 98 94 88 94 62 55 58 55 63 73 75 75
69 63 61 59 71 70 79 99 90 98 100 94 93 85 78 74 82 93 97 94 95 87 94 93 95 96 98 92 98 90 92 80 87 84 82 64 76 67 66 69 67 79 88 91
61 62 63 70 68 70 78 97 95 99 97 94 94 88 87 87 88 90 96 97 95 97 94 95 96 87 94 97 95 91 88 85 90 84 77 78 77 73 78 82 86 91 89 85
61 64 71 72 71 71 75 97 94 98 95 96 90 82 92 89 96 96 93 96 91 97 98 97 96 94 89 92 86 90 86 87 86 86 77 78 72 72 81 90 87 86 83 80
67 71 71 73 72 73 84 94 94 95 99 98 96 89 92 89 95 96 95 96 95 98 99 99 96 97 90 90 83 94 89 86 87 82 67 64 65 70 81 84 87 82 79 76
64 64 68 73 76 76 96 100 99 96 97 96 100 90 94 92 97 97 97 97 98 98 98 97 96 89 90 98 97 77 76 75 71 70 68 69 78 76 80 83 82 80 76 70
72 73 74 76 76 93 97 98 98 93 95 98 99 98 88 82 89 96 98 97 99 99 99 99 97 91 90 93 97 67 76 71 68 72 71 74 77 78 82 79 78 75 73 68
80 81 80 78 78 88 98 96 92 94 97 95 100 100 95 85 98 99 98 99 99 99 99 97 97 93 93 99 83 82 79 78 78 81 76 73 82 84 87 82 77 79 78 72
86 83 82 91 97 99 97 95 91 94 92 100 100 100 99 90 97 96 96 98 100 96 99 98 96 96 98 83 77 82 77 77 82 90 89 87 90 92 90 86 84 80 82 77
86 93 99 100 98 94 98 97 99 99 98 98 99 92 99 96 96 99 98 99 100 100 97 96 100 96 89 84 85 84 78 86 88 89 97 97 97 94 91 85 83 76 77 76
96 99 100 99 97 98 98 100 100 100 100 98 97 93 98 93 99 100 99 100 100 99 93 98 95 95 92 87 88 87 85 88 84 81 80 81 79 84 87 88 84 79 75 73
96 98 98 98 98 100 100 100 100 99 97 99 99 97 94 100 97 99 100 97 95 94 96 98 96 91 86 91 93 91 89 87 84 86 83 84 82 81 82 82 82 79 71 65
96 98 100 100 100 100 100 95 99 99 99 100 99 99 96 99 95 98 96 99 99 93 97 96 94 90 88 93 95 95 92 90 91 92 87 83 84 78 77 80 72 65 65 64
99 100 99 100 99 100 98 98 97 97 100 100 97 99 97 95 98 98 98 96 93 99 100 91 88 85 90 93 95 93 96 94 94 93 88 86 82 80 75 70 64 63 65 62
100 100 99 99 99 98 99 99 98 99 100 98 95 96 88 96 95 91 95 97 98 97 91 92 91 88 93 94 96 97 96 95 94 92 90 85 78 77 75 68 65 63 63 61
100 99 99 97 99 99 98 100 100 100 97 97 96 93 93 93 93 96 99 95 95 85 95 96 99 95 93 95 96 95 94 94 93 89 85 78 77 76 76 72 65 62 64 65
98 98 96 100 99 99 99 99 99 94 93 98 94 88 84 94 100 98 94 90 88 95 97 99 98 95 94 94 94 94 93 92 90 88 86 84 75 70 69 79 85 77 70 72

GFSNW_sfc_rhum_045.txt.gz
RH
65 65 68 63 59 65 86 98 100 90 88 100 100 100 90 81 90 77 78 78 78 80 78 84 89 85 79 72 82 92 74 96 96 85 70 63 70 75 74 93 87 90 82 73
65 67 68 62 61 66 98 98 97 97 91 99 98 96 94 85 86 82 71 81 79 80 86 90 75 76 68 77 81 91 76 97 96 77 86 78 82 76 66 73 85 94 94 63
65 67 67 64 63 68 97 100 100 98 98 95 95 98 98 92 78 81 75 85 81 85 90 80 84 78 73 72 72 73 68 86 84 80 70 82 97 87 76 92 98 81 81 66
64 67 66 65 62 73 98 98 99 92 99 99 93 90 86 88 81 82 80 93 85 87 96 86 86 76 76 76 74 71 82 96 85 79 80 79 87 87 95 100 91 95 62 61
64 66 66 63 64 75 97 100 98 95 91 86 87 97 94 89 93 86 91 88 82 84 87 77 80 74 84 73 81 79 80 88 85 84 66 70 99 92 95 96 95 95 94 91
65 68 67 62 64 77 98 96 93 99 94 97 98 95 89 81 80 84 78 80 87 90 75 66 64 84 83 80 85 90 90 92 89 91 80 94 99 95 95 92 88 85 96 80
65 67 66 63 64 73 99 96 98 99 97 96 93 83 83 86 80 90 88 80 84 88 84 86 88 93 92 79 87 81 90 96 89 98 96 98 84 86 89 95 86 77 76 73
58 67 67 64 64 67 96 96 99 99 98 89 80 80 81 86 86 88 79 83 80 86 88 98 97 94 98 93 94 88 84 89 98 99 97 78 67 87 85 95 83 69 70 62
59 67 68 63 64 68 89 95 98 99 95 93 76 91 76 90 88 91 81 90 90 93 94 99 98 98 88 98 97 88 93 84 97 99 98 94 68 60 62 87 86 70 63 61
61 66 68 62 62 72 86 95 96 99 99 91 81 90 88 83 91 95 92 94 96 91 98 99 96 92 83 97 93 94 98 99 97 99 98 84 62 58 65 70 63 55 58 62
68 68 62 63 64 71 84 92 94 99 99 93 85 86 93 91 89 96 97 97 98 98 100 99 88 95 95 90 87 90 92 96 97 97 99 91 63 62 60 55 64 64 68 70
63 61 63 64 71 70 76 96 84 91 99 93 96 89 80 76 73 90 97 93 96 92 98 98 93 97 98 91 95 90 92 79 87 85 79 61 69 65 60 67 69 74 83 80
59 60 62 70 74 71 75 96 95 98 99 95 95 89 92 86 85 82 95 97 93 97 92 91 94 89 91 96 94 92 89 85 88 85 73 75 70 69 70 80 83 84 82 80
64 64 66 65 69 72 73 95 92 97 98 97 89 87 93 90 96 96 94 94 95 95 97 98 96 93 90 94 86 90 84 88 86 87 77 78 68 73 72 86 84 82 75 72
61 60 64 64 69 73 83 92 91 91 98 98 96 91 92 92 96 97 96 96 95 97 99 98 96 96 93 94 86 95 91 85 88 76 69 67 65 74 82 82 84 76 71 70
68 68 69 72 72 77 94 98 99 94 96 100 100 91 94 96 97 98 98 97 98 99 97 95 96 92 92 98 97 77 83 82 71 66 70 68 79 77 77 83 82 75 67 63
73 76 75 76 78 93 96 96 98 90 97 100 100 97 88 87 94 98 98 98 98 99 98 99 97 95 92 97 98 73 78 74 72 73 70 74 77 76 79 78 75 69 64 60
81 80 79 81 78 84 96 92 90 91 100 97 100 100 93 88 98 99 99 99 99 99 98 98 98 95 96 100 85 82 81 82 83 78 78 76 85 84 83 76 71 71 69 65
84 82 82 91 96 98 96 94 94 97 96 100 100 100 100 92 97 97 99 98 100 97 99 99 98 97 99 87 83 80 83 79 79 89 88 89 87 89 86 82 79 74 74 69
84 89 97 100 98 90 98 99 99 100 97 98 100 93 98 94 97 99 98 99 100 100 97 95 100 99 89 87 86 87 83 84 88 89 99 99 100 93 89 83 75 71 69 67
96 99 100 99 98 97 98 100 98 100 100 97 88 96 97 95 99 100 99 100 100 99 94 98 95 96 91 87 90 89 87 87 84 83 80 83 82 85 85 84 79 73 69 67
96 99 98 99 98 100 100 100 100 100 98 97 99 97 95 99 97 99 100 97 98 97 95 98 95 89 85 91 93 93 89 87 86 86 88 89 84 82 81 79 78 75 67 61
94 96 100 100 100 100 99 99 99 100 99 100 99 99 97 98 94 98 98 97 97 88 98 95 94 88 85 92 94 94 92 90 91 92 89 84 84 78 76 77 69 63 62 60
98 100 100 100 100 100 98 98 98 96 100 100 98 99 98 96 99 98 99 95 92 98 99 94 87 82 88 94 95 93 95 93 93 93 88 84 80 79 71 67 61 60 60 59
100 100 99 100 99 98 98 99 98 98 99 100 97 98 90 97 97 91 95 96 98 97 91 92 90 86 93 94 96 96 96 96 96 92 86 82 78 74 72 66 61 59 59 57
100 96 98 98 98 98 98 99 100 100 99 98 98 94 94 94 95 96 99 95 94 83 95 96 99 95 93 95 96 95 95 95 95 90 83 79 76 74 74 68 65 61 60 60
94 99 95 99 99 99 98 99 99 95 96 99 96 91 82 94 99 98 94 90 86 95 96 99 98 96 94 95 95 95 95 95 93 88 85 83 75 71 71 76 80 74 67 69

GFSNW_sfc_rhum_048.txt.gz
RH
65 66 67 66 63 66 79 96 100 84 83 99 97 98 96 83 70 64 64 57 62 63 58 65 63 64 58 52 58 74 62 79 84 71 43 44 47 56 57 81 72 67 67 59
65 65 66 65 64 65 97 98 99 91 84 100 98 94 96 82 70 65 61 65 58 56 61 78 61 60 54 58 59 63 63 94 82 68 70 58 64 52 50 55 67 88 85 51
64 65 66 66 64 67 95 100 100 99 96 89 79 86 99 92 72 65 64 69 58 61 63 61 65 64 67 62 57 66 59 71 69 61 58 66 93 65 55 77 97 70 67 52
64 65 67 67 64 69 96 98 100 93 100 88 72 74 87 78 82 68 65 66 60 63 79 70 68 57 72 69 68 69 80 96 70 62 59 57 73 76 68 96 85 92 57 54
64 66 66 67 64 74 96 100 99 92 83 75 76 83 81 68 74 67 70 68 60 56 65 55 64 58 62 72 73 85 82 84 72 78 57 63 85 66 73 94 94 95 94 92
63 61 66 67 64 76 97 96 90 98 85 81 95 91 74 71 70 73 68 59 67 67 56 50 52 62 75 64 68 84 94 93 73 82 56 75 97 94 94 94 89 91 93 73
65 60 65 67 63 70 98 94 97 99 95 86 80 76 70 72 70 71 66 61 61 72 62 63 68 77 79 83 80 75 95 75 71 78 71 95 84 68 85 89 77 70 66 58
64 63 65 67 62 65 93 93 97 98 98 81 76 70 65 65 67 69 69 67 58 64 80 96 98 94 98 89 82 90 86 85 88 88 77 63 70 82 82 78 71 64 61 51
61 66 67 63 63 66 86 93 96 99 99 88 64 67 63 81 81 84 74 79 69 77 94 98 92 88 67 86 84 76 78 78 90 96 90 73 48 48 48 88 92 61 54 56
67 66 63 63 65 71 83 94 93 98 99 73 66 70 71 73 76 89 92 95 98 86 99 99 89 69 56 80 71 89 95 98 95 91 96 59 42 47 50 61 64 61 55 51
60 61 61 63 69 72 82 90 93 98 99 84 77 68 71 73 73 83 94 92 96 98 100 99 84 64 60 64 58 64 72 79 87 86 91 82 42 48 51 47 49 49 51 64
59 59 59 60 71 73 75 96 85 85 99 89 83 76 69 67 63 81 92 91 90 92 98 98 75 71 72 57 63 62 69 52 60 62 58 41 43 47 44 48 54 55 68 62
59 64 60 64 61 68 76 93 95 94 98 84 81 69 75 73 72 72 91 94 86 95 84 87 77 76 63 66 66 65 64 58 59 66 45 50 46 50 52 57 59 66 67 68
59 58 59 60 62 67 72 92 92 94 97 96 71 76 82 82 90 91 90 93 96 96 94 97 89 82 68 69 64 63 55 64 60 58 50 44 45 49 51 65 64 65 62 62
62 64 67 60 62 70 78 89 91 89 97 98 92 83 85 88 92 98 97 97 93 96 98 98 93 83 79 76 71 73 62 57 58 47 44 48 48 56 61 62 66 61 61 62
67 68 70 72 73 75 83 94 96 91 94 98 100 89 90 90 96 97 95 96 95 97 92 87 85 80 73 80 73 54 53 53 45 44 50 51 59 62 63 66 64 58 58 60
79 78 76 77 76 87 91 92 98 89 93 100 99 97 90 84 94 97 97 97 97 98 97 97 91 91 89 84 82 52 54 53 53 55 54 56 60 60 65 64 59 57 54 52
84 84 82 79 79 81 93 88 84 85 99 98 100 98 86 82 98 99 98 99 98 98 96 96 93 88 90 99 70 60 60 57 57 55 56 60 65 67 68 61 59 62 64 55
82 82 80 88 89 93 94 90 93 94 99 100 100 100 98 82 91 97 98 98 99 96 97 96 97 96 98 77 65 61 60 62 61 71 71 73 72 78 74 69 63 63 61 55
84 85 94 98 90 87 98 100 100 99 99 96 94 80 90 85 88 98 96 98 100 100 95 91 100 94 72 74 72 71 70 66 72 81 95 96 99 88 83 67 59 59 56 54
94 99 100 96 97 98 98 100 99 99 98 92 82 85 89 86 95 97 97 100 99 100 88 90 92 78 74 70 76 77 75 71 69 66 64 68 68 73 71 67 62 58 55 53
95 98 96 98 98 100 100 99 100 98 98 91 96 94 93 97 91 96 98 99 98 99 82 95 90 70 69 73 78 78 75 70 68 70 70 68 68 66 65 64 61 58 54 49
94 96 100 100 100 100 100 95 100 100 98 100 99 99 96 95 90 98 96 100 96 79 95 87 73 73 68 76 81 82 79 75 75 78 74 71 72 66 64 65 58 52 49 46
97 100 100 100 100 99 99 93 95 94 99 98 98 99 98 95 100 96 100 94 89 97 97 88 59 60 67 79 84 83 83 79 78 78 75 74 70 68 62 58 51 50 51 52
100 100 99 100 98 99 99 96 96 95 94 100 97 98 90 98 99 89 94 96 96 88 79 69 62 68 81 81 85 83 82 80 79 74 73 71 66 63 61 54 50 49 51 51
100 99 99 89 99 100 99 100 100 99 95 97 98 98 99 97 91 91 98 88 83 78 82 82 79 80 80 83 86 84 82 80 78 73 70 66 65 63 60 55 52 51 53 56
96 98 88 92 96 95 93 91 95 90 98 100 98 98 99 90 97 97 85 86 81 80 78 81 84 91 83 85 85 84 83 81 75 72 70 67 62 58 59 67 68 64 54 57

GFSNW_sfc_rhum_051.txt.gz
RH
66 65 64 65 65 64 78 96 100 92 81 98 90 79 84 91 78 62 57 50 50 55 50 60 57 58 50 39 43 58 48 55 79 70 40 41 52 57 58 81 67 59 62 57
66 65 64 66 66 66 98 98 99 90 74 99 84 74 88 91 85 74 57 57 50 43 51 67 50 49 45 46 47 51 53 69 78 65 51 44 54 49 51 56 62 85 87 50
66 64 66 66 66 68 93 99 100 99 93 89 61 69 97 97 74 64 56 54 47 48 53 47 56 64 57 52 48 65 56 60 66 63 58 63 83 56 46 63 93 68 63 50
66 63 64 67 65 70 93 98 100 90 100 88 64 53 85 86 85 58 54 58 51 52 62 54 55 54 63 58 66 59 61 77 58 55 50 48 61 66 61 80 66 83 55 51
65 64 63 67 65 72 94 100 99 95 85 52 58 73 68 92 67 58 58 55 47 44 51 45 54 49 55 58 62 66 69 73 64 69 52 57 72 56 56 60 64 72 79 85
63 65 65 67 65 72 96 94 91 98 77 67 67 68 56 80 57 63 58 49 54 50 51 44 41 43 43 50 60 76 95 95 78 82 48 57 83 66 75 83 94 94 97 77
62 62 66 67 64 69 93 89 95 98 90 78 69 61 54 57 59 62 56 51 51 62 48 50 53 56 62 64 63 55 90 77 73 78 55 91 74 57 81 88 80 73 78 66
67 66 67 65 64 66 91 86 97 98 98 69 65 60 58 56 58 63 59 54 52 53 72 93 87 85 88 87 82 79 66 90 82 81 71 49 56 66 82 84 72 72 59 50
61 64 64 62 67 70 78 90 96 99 99 76 54 56 57 65 67 69 62 67 57 68 87 96 84 77 60 81 82 81 86 78 98 89 90 78 48 45 48 69 96 66 64 52
57 58 60 62 65 72 79 88 92 99 99 74 58 67 62 60 64 70 75 84 86 73 95 98 84 67 45 62 67 91 98 99 97 70 88 56 34 40 48 74 60 64 74 52
58 60 61 60 63 71 79 90 92 96 98 88 74 61 58 62 60 76 81 87 92 96 99 98 86 64 53 47 45 65 76 77 77 74 78 77 36 46 54 49 43 46 53 69
60 59 64 62 63 63 71 94 87 86 99 95 82 70 60 58 59 70 80 81 81 88 96 96 78 61 52 46 69 43 58 43 49 54 52 35 37 40 36 38 47 49 56 53
60 59 57 60 59 59 68 92 90 91 97 87 75 65 65 64 65 58 85 89 78 87 70 92 76 77 51 58 48 52 45 38 50 58 39 42 37 37 42 44 51 57 58 60
61 64 64 62 61 60 66 89 90 91 96 95 68 65 71 72 80 79 78 80 92 93 95 96 92 87 57 55 54 50 48 52 55 48 40 38 38 44 48 54 55 56 56 57
63 67 68 67 68 66 69 74 81 87 96 97 86 73 74 76 88 90 96 94 93 96 95 96 96 72 70 60 61 60 52 50 54 43 40 44 47 50 52 53 56 55 57 61
67 74 74 74 72 74 84 95 95 90 93 99 99 88 82 87 91 94 95 94 97 95 95 88 69 67 70 75 68 42 38 40 36 39 43 45 50 53 53 56 54 52 54 57
73 78 80 79 76 80 93 95 98 89 93 99 99 95 88 84 92 97 94 96 96 97 93 89 88 79 78 74 71 42 47 46 46 43 47 50 53 53 57 55 53 52 51 51
82 83 82 82 77 77 87 84 82 84 94 99 100 95 80 89 96 97 97 98 98 99 97 96 93 79 78 92 59 48 48 51 50 47 47 52 56 58 58 53 53 56 56 53
82 82 79 82 85 85 92 91 94 87 98 100 99 100 97 78 86 97 99 99 99 97 98 95 95 94 98 73 60 53 54 57 57 61 59 61 62 68 64 61 60 64 59 53
84 77 90 94 80 86 94 99 99 100 99 100 94 71 79 79 79 97 98 99 100 100 97 92 100 94 63 60 64 63 61 60 62 73 87 87 96 80 71 64 59 53 53 52
96 98 99 96 93 99 99 100 100 93 100 86 84 79 82 82 89 91 97 100 100 100 93 90 94 75 64 57 61 65 67 64 63 61 60 65 63 70 71 64 57 52 52 51
96 98 97 98 99 100 100 100 99 96 99 87 92 94 90 93 91 97 96 100 97 100 74 90 90 62 59 61 66 69 67 64 61 62 62 64 60 60 61 59 56 53 49 46
96 99 100 99 100 100 100 100 100 99 99 100 100 99 95 91 90 97 98 100 98 74 94 83 65 67 54 66 72 74 71 69 67 69 68 63 66 59 58 58 52 48 45 42
98 100 100 100 100 99 99 93 97 96 99 98 98 99 98 93 100 97 100 93 88 96 97 90 52 55 60 69 75 77 78 73 72 72 71 71 66 64 58 56 48 45 45 47
100 100 100 99 97 97 97 93 94 94 94 98 97 100 91 100 100 92 96 97 98 85 79 75 68 64 69 72 79 76 75 73 71 69 70 68 64 61 57 51 47 46 48 48
100 100 100 87 100 100 98 100 100 97 92 95 99 100 99 100 96 97 99 93 85 84 84 84 78 75 75 74 79 78 75 72 70 67 66 63 61 59 54 49 48 48 51 55
100 100 84 89 96 96 91 82 90 86 98 100 100 100 100 92 98 96 83 92 85 87 82 75 80 87 84 80 80 78 77 74 69 67 66 63 58 52 52 59 65 62 53 56

GFSNW_sfc_rhum_054.txt.gz
RH
65 67 64 64 65 66 80 97 100 88 82 99 98 90 75 84 82 79 59 52 51 56 63 65 58 57 51 38 42 58 55 55 92 81 52 53 61 69 68 93 84 88 91 78
65 67 64 65 66 67 97 99 99 88 91 97 93 89 92 90 96 77 58 56 48 45 57 72 57 54 47 43 46 54 54 80 83 71 63 51 63 60 58 62 77 90 96 68
67 66 64 66 67 68 95 99 100 98 96 91 91 73 96 98 86 71 56 53 47 55 63 57 68 63 57 56 53 63 57 59 80 95 73 72 82 62 59 75 95 80 75 60
67 65 65 67 67 69 95 97 100 95 99 87 82 69 89 96 96 69 56 57 51 53 65 54 64 61 65 61 66 57 67 83 69 65 59 55 67 74 67 75 69 82 60 59
64 63 66 68 66 73 93 98 100 95 86 75 71 74 86 98 78 80 58 65 51 50 57 48 58 58 56 70 71 66 68 77 67 76 59 63 72 62 62 61 64 64 62 66
66 67 66 68 66 72 96 94 92 98 89 66 82 72 65 83 74 70 59 52 56 61 58 56 54 53 46 50 64 78 92 88 80 88 60 64 83 66 61 58 53 57 74 63
64 68 69 65 66 71 95 93 97 98 95 71 64 57 53 76 71 68 58 54 63 63 53 56 57 63 66 61 60 59 78 92 79 95 74 94 79 69 73 83 77 69 75 81
58 59 62 63 66 70 90 90 98 97 98 88 62 59 58 56 63 73 61 63 61 63 76 86 88 90 82 83 70 73 70 78 89 97 91 66 60 74 81 90 75 69 78 74
60 59 59 61 63 69 82 94 96 98 99 84 75 62 58 74 69 76 73 70 66 74 91 93 84 81 70 91 85 82 77 81 99 95 98 88 65 53 55 72 95 78 80 73
59 60 62 64 62 68 81 92 90 98 99 90 76 73 77 64 70 80 79 82 90 83 93 98 92 74 55 84 76 94 96 99 95 93 91 74 44 53 64 87 75 72 81 70
61 61 60 62 64 65 77 90 93 96 98 90 80 71 72 72 74 84 89 91 91 96 98 96 93 87 64 64 61 87 86 95 96 86 87 87 49 59 70 62 58 55 60 71
62 60 59 60 60 61 64 95 86 90 98 94 86 78 70 71 76 84 84 86 84 88 95 97 90 83 68 67 74 61 76 63 68 70 70 46 47 52 47 51 57 63 70 72
57 56 61 62 62 60 63 90 90 96 98 95 97 81 71 68 77 77 90 93 79 90 82 92 88 86 80 78 68 66 54 48 60 63 57 49 45 48 55 60 72 70 70 74
61 59 63 66 68 68 61 87 88 94 96 99 85 69 80 78 83 84 84 80 88 89 96 97 96 88 79 80 73 73 62 57 60 62 53 47 58 64 67 66 64 63 65 69
63 62 66 69 70 68 75 81 83 85 96 96 91 80 83 82 89 93 93 89 93 98 99 98 97 90 82 82 84 85 70 72 77 69 52 59 68 68 64 66 66 65 70 75
65 68 78 74 75 72 85 96 96 89 92 99 96 88 89 93 93 93 94 96 97 96 95 94 85 76 78 91 88 58 52 53 49 55 60 61 64 65 64 65 64 62 67 71
79 83 82 80 77 89 94 97 98 89 97 99 99 98 91 90 96 99 98 98 97 98 94 96 95 90 88 90 92 56 62 60 59 59 60 67 66 72 65 62 61 60 62 63
75 81 80 83 79 81 92 84 81 92 98 98 100 98 92 92 98 98 97 99 99 97 96 97 96 93 90 98 82 66 63 63 66 62 66 68 71 67 64 63 61 62 63 60
81 82 81 87 90 94 92 92 90 88 97 98 100 100 99 92 94 98 99 99 100 98 98 96 98 91 98 88 77 73 71 72 72 78 74 76 76 77 71 72 70 70 68 61
86 87 92 95 88 89 96 99 100 100 100 100 99 84 92 91 90 100 99 99 100 100 98 96 100 97 80 79 76 76 76 79 80 86 89 89 93 86 79 74 66 61 57 58
96 99 100 96 91 100 100 100 100 99 100 96 93 87 91 90 98 100 98 100 100 100 99 98 99 92 80 68 71 76 78 79 78 80 78 82 81 82 73 67 60 56 56 57
96 98 97 99 100 100 100 100 100 100 100 96 97 98 96 98 98 100 100 100 100 100 92 97 97 83 69 70 78 81 82 80 78 77 70 73 71 68 68 68 59 56 53 51
98 100 100 100 100 100 100 99 100 100 100 100 100 100 99 97 98 100 100 100 100 88 94 93 89 75 65 77 83 86 84 80 78 81 76 72 74 65 63 62 55 50 50 47
100 100 100 100 100 100 100 98 99 99 100 100 99 100 99 97 100 99 100 99 97 96 96 96 86 79 75 80 83 85 85 81 80 79 77 77 73 70 63 56 50 48 50 52
100 100 100 100 100 100 100 100 99 100 99 100 100 100 97 100 100 96 99 98 98 94 98 99 94 88 88 86 88 89 86 82 82 79 79 77 70 67 63 54 50 49 50 53
100 100 100 97 100 100 100 100 100 100 99 100 100 100 99 100 100 99 97 95 96 98 99 97 94 93 93 89 86 88 86 85 80 79 76 73 71 68 64 56 54 53 56 57
100 100 93 97 100 100 100 95 98 90 99 100 100 99 98 95 97 99 94 98 99 99 98 96 92 94 93 90 90 88 89 85 81 78 79 75 68 62 62 72 78 69 62 64

GFSNW_sfc_rhum_057.txt.gz
RH
67 68 64 63 65 66 83 98 100 87 91 100 100 97 84 82 84 92 91 83 59 72 74 73 70 74 61 50 53 64 63 73 95 86 62 59 69 82 79 93 84 94 93 82
66 68 64 65 67 67 99 99 99 88 90 99 97 88 95 89 92 95 75 68 56 56 65 80 60 61 50 48 51 64 60 83 89 80 68 66 77 70 63 70 83 95 96 73
65 65 64 66 68 69 94 98 96 97 96 96 93 90 98 96 89 88 66 58 55 73 72 80 81 68 62 58 55 65 58 63 80 91 80 73 86 73 69 76 99 90 89 65
65 67 66 68 67 72 94 98 99 94 98 90 90 96 97 99 97 79 66 59 61 75 91 74 70 70 72 68 65 60 66 88 79 76 70 68 75 70 70 86 77 86 68 64
64 68 71 67 67 74 94 100 96 97 98 88 87 83 96 100 92 84 67 67 57 59 76 62 68 67 76 81 72 68 72 82 85 82 69 71 80 71 72 69 66 74 70 69
58 59 62 65 66 78 97 95 92 99 91 83 90 80 95 88 86 70 64 62 72 78 74 64 59 59 56 67 81 90 89 89 85 95 71 75 83 72 67 66 62 59 75 56
59 59 59 61 63 73 96 96 98 98 95 91 82 67 74 90 84 83 64 70 79 70 64 62 69 70 72 68 64 74 85 89 82 97 86 94 59 75 71 75 74 61 59 54
57 59 59 60 61 65 97 94 99 97 98 87 78 63 70 81 70 76 82 74 74 70 77 87 89 91 82 77 73 75 72 85 96 98 95 73 85 85 86 91 76 72 75 64
59 59 60 61 64 65 92 95 95 99 99 92 86 77 73 85 78 80 83 77 78 79 93 88 88 81 78 90 82 83 79 86 97 96 97 97 69 66 64 74 95 77 72 77
59 60 60 60 62 64 84 94 88 98 96 90 87 84 88 67 73 87 91 91 89 85 95 95 89 81 59 93 89 95 98 99 98 92 96 82 56 66 64 94 74 74 83 79
61 59 58 60 60 62 76 90 92 97 98 95 88 86 84 83 84 92 91 89 89 94 94 94 89 91 70 76 79 90 84 89 87 82 95 91 49 65 72 62 60 59 78 74
64 57 55 57 63 62 67 95 87 89 99 95 91 82 73 83 87 91 88 88 90 86 95 97 94 92 84 83 83 82 81 79 88 82 77 53 52 52 51 54 61 71 74 81
64 61 57 59 65 64 67 90 90 94 98 95 97 93 84 77 85 84 92 94 81 87 88 93 92 98 90 94 85 76 71 61 68 69 58 53 47 51 71 72 81 79 79 80
65 61 61 60 65 67 70 89 89 92 96 99 86 75 88 88 88 89 87 84 90 87 92 96 97 93 85 90 83 80 65 57 61 64 58 56 62 71 76 74 72 71 72 75
65 67 65 65 72 70 81 92 87 84 96 98 94 84 91 90 92 95 92 86 92 98 99 95 88 88 84 92 91 93 72 71 75 75 59 65 67 67 71 72 70 73 77 86
65 71 76 76 79 73 90 96 96 86 92 99 99 86 95 94 94 96 98 98 96 97 96 95 90 77 85 95 87 70 67 66 62 63 62 59 68 69 72 68 70 72 76 81
68 73 76 80 81 92 95 97 98 89 94 99 99 98 93 93 96 98 98 98 97 97 95 91 90 91 85 87 96 62 65 72 70 68 63 68 73 77 68 68 71 68 69 70
70 78 80 82 81 84 95 84 80 92 98 98 99 98 94 94 98 98 96 98 98 97 95 93 94 93 90 98 86 81 76 77 74 72 68 73 75 69 68 68 67 71 71 68
72 81 80 91 95 98 93 92 87 91 98 100 100 100 98 95 95 97 99 97 100 97 96 91 97 94 96 90 87 86 85 80 73 78 80 81 82 78 74 72 73 74 72 64
82 90 92 90 91 93 97 99 99 99 98 99 99 90 95 96 93 99 99 98 100 100 99 98 100 97 89 72 80 88 84 86 86 84 84 89 91 86 80 78 74 71 66 61
97 99 100 98 92 99 99 100 100 99 100 98 96 92 92 90 98 100 98 100 100 100 99 99 100 99 76 71 83 84 87 87 87 85 80 73 83 89 82 78 69 60 59 63
92 96 96 99 100 100 100 100 100 100 99 97 98 97 97 97 97 100 100 100 100 99 97 100 99 94 70 76 84 85 89 83 85 82 74 72 71 74 68 64 62 59 54 51
97 100 100 100 100 100 100 99 100 100 100 100 100 100 98 97 97 100 100 100 100 95 99 96 91 78 75 80 84 88 84 82 85 84 79 76 82 72 71 69 58 54 51 47
100 100 99 100 100 99 99 99 99 100 100 100 100 100 99 97 100 99 100 99 99 98 97 96 96 90 86 86 84 88 88 85 85 85 82 78 73 71 68 68 60 52 53 54
100 100 99 100 99 100 100 100 100 100 99 100 100 100 98 100 100 97 99 98 99 96 99 100 97 92 93 92 88 91 91 88 84 83 82 77 70 66 61 56 52 51 52 52
100 100 99 98 100 100 100 100 100 100 99 100 100 100 99 99 100 98 98 99 94 99 98 98 97 94 92 92 90 92 92 92 86 81 78 73 70 66 61 56 54 52 55 58
99 99 96 98 99 100 100 99 99 92 98 100 100 99 94 95 96 98 95 98 98 98 98 98 92 93 93 91 91 93 94 91 87 84 83 76 70 63 63 71 78 73 63 60

GFSNW_sfc_rhum_060.txt.gz
RH
63 68 64 63 66 68 82 97 100 85 91 99 96 99 84 79 93 93 97 94 72 82 74 72 75 75 70 56 58 69 67 83 96 84 70 63 73 81 80 94 84 96 93 81
66 67 67 66 66 72 98 96 97 87 88 98 98 86 82 94 98 97 89 81 60 66 68 79 69 69 54 56 56 66 64 83 96 82 74 69 77 76 74 74 87 96 92 72
66 68 70 67 67 73 94 98 98 95 97 95 96 96 99 98 85 95 80 67 60 69 85 81 75 77 72 61 56 66 59 72 76 87 78 82 91 81 72 83 97 93 87 76
60 61 64 67 68 74 94 97 98 95 98 92 92 96 98 99 98 80 71 67 71 84 88 75 82 79 74 68 69 63 66 80 81 77 74 74 77 78 82 89 80 87 77 68
59 60 61 64 67 74 94 99 99 95 97 93 96 89 99 100 91 86 84 86 76 74 80 69 76 73 80 78 68 70 69 90 88 86 72 76 84 77 76 78 78 80 74 73
57 58 61 62 65 78 97 96 90 99 90 94 93 91 96 92 84 78 73 70 76 81 82 68 65 62 64 69 79 88 77 81 85 98 74 79 82 75 72 71 67 63 78 61
58 56 60 61 63 73 98 95 98 99 95 89 83 80 85 91 83 84 75 73 77 71 66 65 61 65 72 70 78 72 88 87 81 97 88 97 59 70 65 66 59 56 54 49
60 60 60 61 64 66 96 95 98 97 98 84 89 86 82 76 75 83 87 82 80 72 74 82 80 81 78 76 75 72 70 84 96 97 96 76 74 87 88 92 73 69 73 65
60 59 60 60 61 66 92 96 95 99 100 90 91 98 84 88 88 89 88 83 83 79 91 88 84 86 73 83 87 82 82 82 98 93 92 96 67 72 71 74 93 72 77 72
61 61 59 58 61 62 86 92 88 99 99 87 89 98 93 80 86 92 93 91 88 84 94 90 79 78 66 93 89 91 99 99 98 94 94 83 61 58 71 94 73 75 81 75
63 66 58 54 58 64 80 91 90 98 98 94 90 80 98 92 88 90 90 88 88 93 95 86 89 93 80 86 83 92 85 96 96 92 94 94 54 76 76 65 65 62 68 83
63 65 63 57 58 65 70 94 89 87 99 94 85 79 74 76 91 86 89 85 89 89 92 97 95 89 94 86 94 86 84 75 82 81 76 56 52 59 47 53 62 69 75 78
63 63 64 60 58 62 70 93 89 90 98 94 96 92 81 79 83 82 89 94 80 88 84 88 92 96 94 87 92 87 79 67 76 75 61 60 53 50 50 68 79 78 79 81
65 63 65 65 65 64 70 94 90 91 98 99 88 77 89 89 89 90 86 83 89 86 91 95 94 94 84 82 80 75 65 66 72 70 58 56 66 63 67 73 71 70 74 80
64 67 66 71 73 72 82 94 90 83 93 99 94 79 86 92 92 94 90 85 91 97 99 98 96 89 86 92 94 95 80 74 73 71 55 62 69 65 66 72 69 70 77 88
67 65 69 76 76 76 92 94 96 84 86 98 99 85 96 94 94 96 98 95 93 96 97 96 92 77 82 96 92 61 77 72 67 62 68 67 70 69 71 73 72 76 82 87
68 70 75 80 81 94 96 96 98 85 90 98 99 97 93 92 95 98 98 97 98 98 96 98 91 89 86 90 96 68 80 79 74 70 68 77 74 72 68 70 76 72 76 79
68 76 77 79 81 86 95 81 77 93 97 98 100 99 91 95 98 98 95 97 98 99 96 94 92 92 92 99 81 80 82 80 80 80 80 81 75 69 71 74 72 77 79 76
69 78 77 90 94 98 93 89 87 92 98 100 100 100 97 95 95 96 99 97 99 95 98 94 98 93 100 87 75 78 79 83 84 84 79 81 80 78 76 76 77 79 78 74
81 90 92 94 93 90 94 98 97 99 99 99 99 90 96 96 95 98 99 99 100 100 98 98 100 98 83 72 76 84 93 93 93 95 91 86 89 88 82 78 75 74 72 70
96 99 99 97 91 99 99 100 100 97 100 98 98 95 92 91 97 99 99 100 100 100 100 100 100 99 90 72 88 91 93 94 93 92 89 84 78 80 87 81 76 74 67 65
90 94 95 99 100 100 100 100 100 98 99 97 97 96 94 97 96 100 100 100 100 99 99 100 99 92 80 86 90 81 84 80 80 84 84 79 75 76 76 71 67 63 63 67
97 100 100 100 100 99 98 96 98 100 100 100 100 100 99 98 98 100 100 100 99 99 100 99 94 85 83 89 87 85 91 82 80 84 82 77 84 75 70 68 66 64 63 68
98 100 99 99 99 99 99 98 98 100 100 100 100 100 99 97 100 99 100 99 100 99 98 98 97 90 88 84 83 86 98 97 86 83 82 78 78 82 84 77 65 62 69 75
100 100 99 100 99 100 100 100 100 100 100 100 100 99 98 100 100 99 99 100 99 96 99 99 96 90 89 88 87 89 90 93 86 82 83 78 70 71 72 70 72 61 56 54
100 100 99 98 100 100 100 100 100 100 99 100 99 100 100 99 100 100 97 98 96 98 99 99 97 91 89 91 90 91 90 91 88 82 79 76 71 66 62 59 63 66 62 60
96 100 98 99 99 100 100 99 99 91 99 100 100 99 96 95 98 98 97 97 97 98 98 98 92 94 95 95 94 91 92 91 90 88 85 83 74 64 64 70 78 75 66 67

GFSNW_sfc_rhum_063.txt.gz
RH
65 67 66 67 65 72 86 94 98 86 90 97 93 100 91 85 96 88 96 93 75 84 78 76 78 76 69 57 60 72 78 87 97 91 74 68 75 82 83 92 88 95 96 80
60 61 61 65 66 72 98 94 96 90 87 98 98 86 96 96 97 96 91 77 66 64 70 78 70 69 62 59 59 67 66 84 97 84 72 72 76 78 76 78 86 97 94 72
59 61 62 64 66 72 95 99 96 95 95 97 97 94 99 99 89 91 92 73 66 78 86 76 77 78 77 62 55 64 61 75 76 88 79 82 92 84 78 83 97 91 90 79
59 57 62 64 66 71 94 93 96 93 99 94 97 95 99 100 90 87 76 74 80 81 86 77 88 83 76 70 72 67 65 80 82 77 75 78 81 83 84 90 80 87 81 72
61 57 62 63 66 73 94 96 98 96 97 92 95 93 98 95 79 84 87 87 81 76 78 75 83 76 80 80 74 79 72 92 85 82 72 80 85 78 79 83 78 80 75 77
62 60 60 63 65 75 98 95 91 99 91 90 92 95 94 94 86 84 75 78 78 82 85 73 66 66 73 71 78 88 74 83 86 97 78 80 80 78 76 77 81 73 86 65
64 60 60 62 63 73 98 95 99 98 92 88 94 83 89 89 82 90 78 79 79 74 67 66 62 66 73 76 78 66 76 77 83 97 85 95 60 65 65 68 62 59 54 50
63 61 58 58 61 64 95 95 99 98 95 81 91 93 81 78 77 87 88 85 85 79 72 80 82 82 79 80 78 73 67 85 95 97 91 74 72 90 88 81 71 61 56 53
60 63 62 57 57 63 92 95 96 99 100 92 88 90 94 86 91 91 89 84 85 78 90 86 84 94 80 87 89 83 84 91 90 98 96 95 58 77 81 78 92 72 77 71
65 62 67 58 54 59 88 92 89 98 99 86 90 91 99 88 89 94 94 92 88 83 92 93 90 88 71 92 87 95 98 100 98 94 96 82 61 63 73 94 81 64 73 67
67 63 64 65 58 59 82 92 89 98 90 89 87 81 91 96 92 92 89 87 85 93 94 91 85 89 86 88 85 90 83 94 92 91 92 91 57 78 81 64 59 59 64 69
67 66 63 65 63 59 71 95 90 87 98 94 86 80 75 78 90 95 90 82 88 91 94 96 96 94 95 88 92 88 91 80 86 84 79 57 56 71 55 52 55 73 83 83
67 67 65 64 64 61 65 92 92 92 97 94 95 95 75 74 78 76 94 90 83 87 84 95 95 95 94 87 81 90 82 74 82 76 65 65 58 54 53 52 68 74 80 82
66 64 63 71 72 71 67 91 95 94 98 99 92 76 90 90 92 91 87 82 89 89 91 93 92 90 81 92 84 78 71 68 75 79 64 59 59 58 64 69 67 71 75 81
67 65 68 66 69 72 80 95 94 87 96 99 98 83 77 92 92 94 92 87 89 95 96 97 98 93 92 94 94 96 82 78 77 77 56 56 61 69 70 74 72 70 76 86
67 68 68 68 75 78 93 97 97 86 84 99 100 84 95 96 94 96 97 95 92 95 96 95 93 80 84 96 96 75 72 70 69 68 75 68 68 74 78 75 73 76 83 87
68 68 70 75 79 93 95 92 99 82 80 98 98 98 94 92 94 98 98 97 99 99 98 98 94 92 87 93 97 78 90 88 82 76 75 76 80 80 76 71 78 77 81 85
68 69 84 77 79 82 95 83 76 89 94 97 100 98 89 94 99 97 96 96 99 99 94 94 96 96 95 99 80 71 76 74 83 82 87 84 82 80 77 74 75 84 84 83
70 71 78 86 92 98 94 82 90 95 99 98 100 100 95 95 96 95 99 97 100 95 98 95 98 96 99 93 84 81 82 89 86 88 82 83 84 84 77 74 81 83 82 81
78 94 94 92 91 83 93 99 98 99 99 99 100 90 97 95 96 98 98 99 100 100 98 98 99 99 90 74 75 80 87 90 96 98 94 91 94 89 87 80 76 76 78 77
97 98 99 98 93 99 99 100 99 99 98 96 97 94 94 92 95 97 98 100 100 99 99 100 98 97 92 76 85 92 81 86 83 85 92 93 93 88 85 88 77 76 75 75
85 90 91 98 100 100 100 100 99 100 98 96 98 96 93 98 96 100 100 100 100 99 99 100 99 93 82 91 94 92 85 95 83 79 81 89 84 81 81 78 72 70 67 69
96 99 100 100 100 99 99 97 100 100 100 100 100 100 98 99 98 100 100 100 99 99 100 98 97 88 81 87 93 91 89 98 89 81 78 82 87 80 72 68 64 64 69 71
99 100 99 99 99 99 98 95 98 99 100 100 100 100 99 98 100 99 100 99 100 99 98 98 95 88 86 83 84 91 92 99 99 91 82 80 78 89 87 74 71 72 78 84
100 100 99 99 100 100 100 100 100 100 100 100 100 100 97 100 100 99 99 99 98 96 96 98 94 88 86 88 88 90 91 92 97 95 84 81 75 72 86 79 77 68 80 82
100 99 99 98 100 100 100 100 100 100 99 100 99 99 100 99 100 100 97 99 96 97 100 99 97 90 88 90 89 90 87 89 88 85 83 78 74 74 67 70 81 82 67 66
96 99 98 99 100 99 100 99 99 91 99 99 100 99 95 98 99 98 96 97 96 99 99 99 93 94 96 94 93 91 91 90 91 88 89 83 78 68 65 70 78 80 81 84

GFSNW_sfc_rhum_066.txt.gz
RH
63 60 63 63 65 70 86 94 97 83 86 95 95 98 99 96 96 88 95 90 77 79 79 75 79 79 74 61 60 76 79 82 89 86 72 70 76 81 80 91 91 96 95 75
63 60 62 63 66 71 98 97 97 88 87 99 98 89 94 94 95 93 91 72 68 67 73 76 73 73 63 60 60 67 68 86 92 88 74 77 82 81 75 79 85 98 93 63
64 61 61 63 67 70 96 98 98 95 95 93 98 96 97 96 83 90 86 74 73 79 85 79 79 85 76 65 60 66 61 77 77 89 77 84 93 87 77 82 95 92 91 75
64 63 61 64 67 70 94 94 93 95 99 90 99 99 99 100 92 87 79 79 79 79 84 85 91 80 75 69 69 69 65 85 84 77 77 81 81 86 87 88 83 87 80 81
65 63 61 64 66 71 95 99 99 96 97 89 90 93 95 91 86 89 92 90 81 76 80 81 84 80 82 79 77 77 71 94 84 81 75 81 86 80 84 83 81 82 78 79
67 63 62 61 65 77 98 95 92 99 86 88 95 97 94 89 74 77 82 84 80 83 85 79 72 75 77 74 79 85 77 83 83 92 78 81 83 80 81 86 86 77 91 66
64 64 61 60 61 80 97 94 98 99 92 91 92 91 86 85 85 85 85 81 81 79 68 70 61 70 77 76 75 67 75 79 86 95 82 86 57 60 65 70 65 69 59 52
67 62 66 62 58 64 94 94 99 98 98 82 83 90 86 76 79 90 93 89 86 85 70 80 79 82 79 81 84 76 64 83 95 96 98 73 74 90 82 82 70 58 61 54
69 65 64 67 58 57 93 94 95 98 99 86 87 90 95 93 91 89 86 82 83 76 87 81 83 94 80 90 94 83 89 88 87 99 99 93 56 79 82 83 94 73 72 75
68 69 64 64 65 58 90 93 91 98 99 76 88 94 98 95 92 94 94 93 87 80 89 92 91 90 77 93 87 97 97 95 95 97 99 85 62 65 74 90 84 64 66 61
66 67 66 66 64 64 85 92 91 98 98 88 83 80 92 93 95 95 87 83 83 92 92 90 88 88 89 89 86 90 86 94 91 83 98 88 59 74 82 64 56 59 58 72
66 69 65 67 65 67 77 93 87 86 97 93 86 83 72 76 81 98 92 84 88 92 96 97 97 95 96 89 91 89 92 79 90 83 81 58 56 68 63 56 52 59 78 82
66 65 65 64 65 70 74 93 92 91 98 94 93 94 81 73 74 70 98 92 85 86 86 95 95 91 94 87 78 91 86 78 84 77 73 67 61 59 58 56 55 69 72 79
65 65 65 64 70 66 70 94 93 91 97 99 89 72 88 87 81 82 89 87 89 90 92 94 92 86 87 90 90 89 81 76 76 82 67 62 58 56 59 74 76 71 70 76
67 66 66 66 68 70 88 95 91 87 96 99 97 90 79 89 94 96 93 88 88 94 94 96 94 93 90 96 95 97 86 84 85 86 62 63 64 64 73 73 76 73 76 81
62 66 68 68 71 74 93 99 96 89 88 99 100 87 91 96 93 96 98 95 93 94 94 93 92 84 87 96 96 86 85 80 82 77 86 74 70 73 78 78 78 74 82 86
66 65 69 73 77 93 96 91 95 83 89 99 100 99 90 94 96 98 99 98 98 99 98 98 93 91 86 93 90 90 88 76 81 79 78 79 81 88 81 76 80 77 86 87
66 69 72 83 79 88 93 90 85 87 93 97 100 99 90 95 99 98 97 95 99 99 96 96 97 94 96 99 86 78 88 86 86 86 83 90 89 86 78 80 78 82 83 85
72 70 79 86 89 96 96 81 83 93 98 100 98 100 95 96 96 96 99 96 100 96 99 87 96 90 98 91 84 81 92 93 90 87 87 84 88 88 86 81 79 82 84 84
72 92 93 83 93 82 88 99 99 99 98 99 99 92 97 96 97 99 100 100 100 100 96 97 99 95 96 80 77 81 83 85 90 97 94 94 96 92 90 88 86 81 79 80
93 98 100 97 94 97 98 100 100 99 100 98 89 97 95 96 98 98 98 100 100 99 99 100 99 99 94 78 83 84 85 90 95 84 82 83 89 96 90 87 88 83 78 79
85 87 89 98 100 100 100 99 100 100 98 98 99 98 95 97 97 100 100 100 100 98 99 100 99 97 85 87 92 93 91 92 96 85 82 78 80 90 89 84 82 73 71 71
95 98 100 100 99 99 100 99 100 100 100 100 100 100 98 99 98 100 100 100 99 99 100 98 97 94 89 83 87 93 91 97 96 94 84 78 80 86 83 69 68 68 68 68
100 100 98 99 99 99 99 98 99 100 100 100 99 100 99 98 100 99 100 99 99 99 99 97 99 92 85 84 87 89 93 100 99 99 98 86 81 86 87 79 70 72 77 84
100 100 98 99 98 100 100 100 100 100 100 100 99 100 98 100 100 99 99 99 98 95 94 99 92 90 92 94 92 92 88 93 97 98 98 98 92 86 81 83 76 74 84 88
100 100 99 97 99 100 100 100 100 99 99 100 99 99 100 99 100 99 98 99 97 94 100 99 96 91 91 86 89 91 88 88 89 88 85 80 81 86 89 88 88 84 75 83
96 99 99 99 99 100 100 99 98 91 99 99 100 100 93 99 99 99 95 97 98 98 100 99 94 94 94 95 92 88 90 85 90 92 92 89 83 76 72 78 82 84 90 88

GFSNW_sfc_rhum_069.txt.gz
RH
68 65 62 64 65 71 86 96 93 81 88 94 98 99 99 96 95 88 92 89 76 84 83 81 81 81 73 58 61 78 78 81 97 89 71 66 70 75 72 86 88 91 84 56
68 67 63 64 66 70 99 94 94 87 86 99 95 88 83 92 81 82 88 73 69 73 79 79 75 75 64 58 61 67 67 82 95 84 70 73 77 77 70 73 81 98 83 47
67 67 64 63 66 70 95 98 97 95 94 93 99 98 97 95 87 89 87 78 74 79 83 77 80 86 73 63 69 65 59 74 74 82 68 81 92 84 72 77 92 83 84 60
69 67 64 63 66 70 93 97 96 96 99 97 99 98 99 99 96 86 81 80 85 78 83 85 90 81 75 71 69 66 65 87 79 77 78 77 80 86 80 86 76 80 67 71
69 66 64 63 65 72 96 97 99 97 98 90 91 97 95 91 89 90 91 88 85 81 87 86 85 79 79 74 72 72 71 94 75 79 74 80 84 78 82 81 78 76 75 74
69 66 66 64 63 77 98 95 91 99 87 90 96 99 97 84 79 77 89 84 84 85 87 83 76 74 75 73 75 81 76 82 76 88 76 77 81 80 84 83 81 73 86 65
68 66 64 66 60 80 97 95 97 98 92 91 94 98 89 86 87 85 89 85 82 80 75 73 69 74 79 77 79 66 75 80 81 89 75 85 56 63 67 71 66 71 61 55
66 69 65 64 63 62 93 95 99 98 96 86 87 95 88 77 77 94 93 90 89 89 73 80 82 84 77 80 84 84 64 82 94 90 93 68 82 84 76 76 72 57 64 58
67 69 70 63 66 61 90 95 97 97 100 87 86 95 93 97 95 86 87 85 84 74 83 79 84 94 83 82 90 79 80 75 83 98 94 85 56 73 77 81 98 69 58 73
66 67 68 67 66 65 86 93 92 97 99 80 87 96 98 94 94 96 93 94 88 79 86 90 90 89 80 93 86 88 94 88 93 94 98 80 61 55 69 86 84 69 61 54
67 66 70 66 69 66 86 91 92 97 98 88 80 76 89 89 94 96 89 83 84 90 91 87 88 89 89 89 85 90 91 90 87 76 98 78 56 71 79 63 58 58 53 66
68 67 66 65 65 66 80 93 87 91 98 93 91 73 66 76 78 95 95 86 90 91 94 96 96 94 96 89 91 90 92 79 88 82 76 58 58 66 61 62 56 51 67 72
67 65 64 65 64 68 77 93 89 94 98 95 95 88 75 68 66 65 98 95 89 87 82 94 95 88 94 88 82 91 87 80 85 79 71 68 60 58 60 60 58 55 71 70
66 65 65 65 66 66 72 94 94 90 95 98 83 65 84 82 78 82 81 94 87 91 92 93 92 85 89 85 87 90 82 81 82 82 70 68 65 60 62 65 72 72 72 71
68 67 63 66 67 69 85 96 93 85 91 98 94 79 76 87 86 89 85 94 89 93 94 96 93 92 90 96 96 98 88 84 86 86 69 69 68 70 73 76 76 71 72 74
69 67 61 66 67 69 93 99 95 91 87 99 99 88 88 98 97 98 99 96 94 95 94 92 91 78 82 97 96 83 84 87 83 80 90 88 83 84 84 80 74 72 76 82
69 62 64 68 77 94 98 94 94 85 89 99 99 99 88 93 96 98 99 98 98 97 95 97 92 92 86 92 99 81 91 89 79 80 75 79 80 88 89 81 77 75 81 83
70 67 70 71 79 88 96 92 86 84 96 98 99 99 94 96 99 98 98 99 99 98 96 95 93 93 88 98 85 87 90 90 89 92 91 90 89 91 89 81 79 80 81 81
74 72 76 89 90 96 94 82 84 93 97 100 100 100 98 96 96 97 99 96 96 95 96 93 95 97 99 85 82 80 82 88 94 94 92 89 87 87 87 87 79 82 84 81
69 92 93 98 88 81 81 97 100 100 100 99 99 92 93 97 97 100 98 99 100 100 95 97 99 99 89 81 77 81 82 82 91 97 95 92 94 94 91 91 91 88 85 82
91 97 100 97 91 96 99 100 100 99 100 98 97 96 96 97 98 97 97 100 100 99 98 100 98 99 98 78 82 82 84 83 92 94 89 91 89 89 92 94 88 88 86 79
86 86 90 96 99 100 100 99 100 99 98 98 98 97 95 98 96 99 100 100 100 97 99 100 98 97 83 85 88 90 94 87 95 91 89 82 80 80 87 95 91 84 76 72
94 98 100 100 100 99 99 98 100 100 100 100 100 100 99 99 99 100 100 100 99 99 99 96 95 96 90 92 91 92 86 95 95 95 93 88 84 79 88 80 69 67 68 68
100 100 98 99 99 99 99 99 99 100 100 100 100 100 99 99 100 99 100 99 100 99 98 96 99 95 95 98 98 95 96 98 97 95 96 97 96 91 86 86 79 78 73 78
99 100 98 99 99 100 100 100 100 100 100 100 99 100 98 100 100 100 99 99 98 94 96 99 97 94 97 97 97 97 96 97 98 98 98 98 98 99 99 95 90 84 85 86
100 99 99 98 99 99 100 100 100 99 99 100 99 98 99 99 99 99 96 99 97 93 99 98 98 98 96 89 89 89 84 81 91 94 95 87 82 82 92 98 98 97 92 91
96 99 98 99 99 99 100 100 100 98 100 100 99 99 98 98 99 99 96 98 97 99 99 98 94 93 90 90 84 84 82 86 89 91 91 93 87 81 77 82 82 89 97 99

GFSNW_sfc_rhum_072.txt.gz
RH
70 69 66 64 65 69 75 83 92 67 69 89 90 98 97 96 81 80 86 78 59 62 57 59 60 66 75 48 49 54 55 56 86 78 59 51 53 55 49 74 78 71 66 40
70 70 66 66 66 69 90 90 85 66 73 100 97 79 81 85 77 75 73 62 55 54 57 64 56 59 52 48 50 48 46 62 85 74 59 59 61 60 53 56 66 88 65 38
70 68 66 66 65 68 86 88 100 84 81 92 98 95 91 88 73 71 67 63 53 53 55 53 64 60 59 57 54 64 48 53 56 58 57 62 86 66 53 64 84 62 52 40
68 70 67 67 66 68 82 84 91 88 100 89 98 94 94 93 88 67 61 57 63 56 59 57 64 62 56 53 58 49 46 64 62 64 61 63 69 71 64 95 56 58 46 41
67 71 67 68 66 69 75 96 95 93 92 78 89 96 95 85 71 74 70 70 66 57 65 66 61 58 55 53 50 50 51 66 58 67 62 67 74 65 66 63 59 55 52 50
67 71 67 68 66 67 85 85 82 96 76 78 87 97 98 82 70 70 71 68 63 65 71 65 59 54 52 53 52 57 55 58 55 79 62 65 69 60 64 64 58 54 63 44
67 68 70 65 66 75 86 84 96 94 82 83 97 98 95 86 79 74 72 65 62 63 60 57 49 51 54 52 56 49 55 56 59 64 57 63 51 51 53 58 52 53 50 46
68 69 69 68 66 68 78 83 90 97 89 74 88 96 93 81 68 74 74 71 70 66 57 60 63 59 57 64 65 57 47 55 71 69 58 52 70 64 57 63 70 48 51 46
64 67 69 70 68 66 71 83 85 86 99 74 80 86 96 97 80 65 70 63 62 57 64 63 70 74 59 62 73 61 56 49 58 77 70 60 64 63 60 66 91 50 47 53
68 67 67 72 67 68 73 82 80 86 88 65 74 94 95 90 89 82 75 77 70 61 66 71 68 63 60 64 64 70 74 73 74 71 76 51 41 46 58 74 73 60 51 50
68 68 67 67 67 67 74 79 81 84 84 68 62 64 80 81 89 97 82 74 71 72 72 69 64 62 61 63 61 69 68 76 75 66 77 66 41 53 71 52 45 42 49 50
69 67 65 64 66 65 73 89 77 85 92 70 61 55 55 64 70 87 84 84 80 74 75 78 74 66 70 64 63 64 66 55 54 56 48 43 41 50 45 45 43 43 46 53
67 64 64 65 66 65 70 90 80 89 95 76 76 65 52 52 54 50 88 85 80 76 67 76 74 71 68 63 58 64 61 57 57 61 51 49 43 43 45 46 49 46 47 55
67 66 66 65 59 64 67 91 83 84 87 91 63 54 67 59 69 63 62 83 84 81 83 83 80 71 67 64 64 62 55 60 60 57 49 47 48 51 58 55 56 57 55 55
64 68 69 64 60 64 77 81 80 75 91 80 75 58 53 56 80 76 76 77 90 94 92 89 84 82 74 74 74 72 60 55 56 49 52 53 51 61 62 61 62 59 59 59
65 68 69 61 62 69 92 87 88 83 87 97 89 66 77 80 85 90 88 89 94 91 87 82 80 68 67 79 75 47 57 58 56 57 68 64 62 64 62 64 63 60 61 63
70 72 72 69 69 86 98 92 82 84 86 96 95 97 82 80 90 98 98 97 96 91 90 88 79 77 75 77 74 50 64 65 64 68 69 71 71 70 66 67 63 61 60 61
73 74 75 72 73 82 97 83 83 86 97 97 100 97 98 96 97 98 91 99 98 90 87 92 87 87 87 99 78 68 71 68 67 74 73 73 72 72 68 70 64 64 62 60
76 74 74 88 87 92 96 83 84 87 94 100 100 100 100 87 98 96 96 86 95 86 96 90 90 93 98 80 76 70 75 78 80 80 79 73 75 74 75 79 82 79 70 69
69 84 96 97 91 84 80 96 99 100 99 99 99 96 99 92 80 94 89 95 96 100 96 92 99 97 83 73 74 75 76 73 81 95 90 87 90 85 79 77 74 73 72 73
84 84 96 94 85 97 99 100 100 99 100 98 97 95 98 96 98 98 91 100 100 100 92 100 99 93 96 74 75 75 78 79 80 87 88 84 81 78 74 72 72 75 74 76
85 84 85 90 99 100 100 99 100 100 97 98 94 82 82 97 97 98 99 99 100 96 98 100 98 93 77 73 78 79 79 79 84 81 84 82 79 74 77 87 83 67 64 68
88 97 100 100 100 100 99 97 100 100 100 100 100 100 95 97 97 100 100 100 98 98 100 87 79 82 76 77 80 85 85 81 78 80 84 89 88 81 84 85 77 64 60 61
95 100 99 100 99 98 100 100 100 100 100 100 99 100 99 99 100 99 100 99 100 99 95 90 89 82 79 85 91 94 94 95 94 92 93 95 95 97 96 91 84 80 78 76
95 100 99 96 97 99 100 100 100 100 100 99 99 100 96 100 100 99 100 100 97 88 90 98 83 82 85 92 95 96 96 97 99 100 100 99 98 98 99 99 99 98 95 92
99 97 99 92 97 97 99 100 100 100 99 100 98 100 100 100 100 99 100 96 93 93 99 97 94 95 94 92 80 75 69 72 81 84 90 92 93 95 96 90 89 95 98 98
97 96 90 95 98 98 96 100 99 99 100 100 100 100 98 99 97 98 91 94 86 90 90 95 96 94 80 73 67 65 70 73 74 75 79 84 86 82 81 86 84 89 83 97

GFSNW_sfc_rhum_075.txt.gz
RH
68 69 68 67 66 71 64 68 91 53 60 85 84 92 86 85 72 73 78 68 50 49 46 52 55 62 52 42 41 48 46 53 90 76 56 61 62 65 61 78 70 63 71 44
67 70 68 68 66 66 75 68 70 51 53 100 91 65 69 71 70 61 60 52 48 44 46 55 52 53 45 45 46 42 39 55 80 72 54 50 54 50 46 46 63 93 69 42
68 71 69 69 67 66 70 71 100 72 64 89 96 94 77 74 62 58 53 49 42 41 45 42 54 53 54 48 44 62 45 43 52 57 58 54 74 56 48 57 85 57 43 40
67 69 70 69 69 67 62 68 89 88 99 80 86 87 78 81 65 52 48 47 47 46 48 47 54 50 47 43 54 41 37 55 53 52 51 52 60 62 54 93 49 54 37 34
68 68 72 68 69 68 57 93 97 83 89 68 76 85 80 91 66 62 58 58 49 46 57 56 48 49 46 47 41 42 40 55 50 57 53 57 67 55 54 53 48 47 42 40
68 69 72 69 69 60 53 65 73 94 74 65 78 98 98 91 71 58 59 61 52 60 66 54 48 43 42 44 44 46 45 46 49 76 52 58 70 54 54 51 47 45 52 38
68 68 69 70 68 67 57 59 93 87 78 74 76 96 95 92 79 66 58 56 53 56 51 50 40 40 42 42 43 41 47 46 50 53 50 72 53 46 46 50 45 43 42 41
64 68 68 71 70 68 59 63 70 84 82 63 68 88 95 93 66 63 62 60 57 51 53 56 57 54 52 53 49 43 38 45 58 64 47 45 57 57 52 57 62 44 46 44
68 70 70 68 70 71 60 67 70 63 86 71 55 77 93 98 92 63 60 53 50 50 52 56 65 67 50 57 58 48 44 40 55 65 62 52 60 59 52 60 79 44 45 52
69 69 69 68 68 69 69 69 68 73 73 45 56 81 94 96 96 86 64 69 61 53 58 64 60 52 50 56 56 58 58 59 65 58 67 44 43 40 48 71 82 50 49 53
69 68 68 67 67 70 70 66 69 79 80 60 52 47 62 72 84 98 82 74 66 63 66 63 55 52 50 54 52 57 55 62 62 58 65 66 41 56 64 54 46 47 43 51
70 69 65 66 67 68 71 75 67 77 97 71 52 51 49 47 55 80 75 88 76 69 70 62 60 54 55 54 54 52 57 49 51 51 49 42 38 42 38 38 43 44 42 47
69 67 68 66 66 62 66 76 69 81 95 67 57 49 42 42 43 47 70 78 80 72 64 69 61 65 57 55 50 54 50 47 50 54 44 40 40 42 45 46 50 46 44 49
68 64 68 69 68 63 62 76 69 83 86 88 53 35 52 47 54 49 45 64 79 83 79 85 75 66 56 55 58 56 50 52 51 50 43 40 40 49 53 52 52 53 52 52
72 69 66 70 68 58 69 72 66 68 87 79 67 52 42 41 40 71 62 64 67 91 92 83 76 70 62 58 62 56 48 45 52 43 46 46 46 53 57 56 57 55 56 56
75 72 70 72 71 68 93 97 69 70 84 99 88 47 54 62 61 83 72 76 81 94 90 86 74 63 60 66 66 41 42 42 40 45 55 56 56 57 55 58 59 55 56 56
74 73 73 75 75 79 97 94 85 76 81 96 84 77 67 63 82 93 95 88 94 96 88 78 67 68 70 67 73 42 43 45 54 60 60 62 66 66 62 62 60 58 54 53
74 75 76 73 74 78 92 86 83 81 96 91 98 79 96 78 93 87 94 97 95 96 91 81 71 71 83 95 64 54 55 58 60 60 63 65 62 62 64 62 62 65 61 56
77 77 71 81 86 89 84 84 86 87 95 97 98 99 100 86 94 83 97 86 97 90 94 77 73 72 94 74 67 59 61 69 73 74 75 74 70 68 68 68 69 71 68 62
74 73 82 87 87 86 85 96 99 99 98 99 98 72 99 98 94 97 93 90 95 100 85 85 98 97 64 69 70 70 71 71 74 81 80 82 84 79 76 71 64 64 68 66
73 70 81 92 77 92 99 100 100 95 99 91 85 78 97 94 98 99 86 100 98 99 87 94 100 85 88 71 73 71 72 72 75 78 79 79 80 79 72 68 66 70 71 72
80 84 76 81 88 99 100 97 98 99 84 95 96 94 94 97 96 99 99 100 100 98 96 100 94 86 75 69 69 73 72 71 72 72 75 76 78 76 74 75 81 77 65 58
75 92 100 100 100 100 98 96 98 100 100 100 100 100 88 96 98 99 100 100 99 98 99 84 75 80 69 67 73 81 80 78 75 76 77 80 85 84 88 89 85 79 72 59
86 98 88 97 98 98 100 99 100 100 100 100 100 100 100 98 100 100 100 100 100 100 95 86 93 81 71 77 87 88 93 96 94 93 93 94 96 98 99 98 96 92 88 84
93 96 90 91 91 97 100 100 100 100 100 100 100 100 100 100 100 99 98 100 97 86 89 99 98 73 80 90 92 92 93 98 100 100 100 100 100 99 99 99 96 95 95 92
93 90 91 79 94 97 94 100 100 100 99 100 100 100 100 100 100 99 100 97 94 100 100 100 99 98 87 85 73 63 59 62 68 75 85 84 85 88 88 92 94 94 94 96
96 94 84 90 90 92 88 88 93 96 100 100 100 100 100 100 99 93 97 98 96 90 88 99 100 99 96 65 60 56 59 60 61 63 68 71 75 75 74 84 88 84 85 97

GFSNW_sfc_rhum_078.txt.gz
RH
70 68 70 69 68 72 67 76 98 66 66 94 89 96 74 78 76 73 80 72 52 55 49 58 63 65 57 46 47 62 75 92 100 99 80 69 68 82 76 96 90 87 91 73
70 69 70 70 68 67 83 74 80 66 64 97 96 69 65 65 67 65 59 53 52 45 49 68 55 58 50 47 53 53 49 79 98 99 95 77 80 82 80 62 82 92 97 67
70 69 71 70 72 70 76 73 98 82 76 87 95 93 74 84 67 63 49 49 46 46 51 49 61 61 58 54 47 66 60 54 70 83 72 74 79 70 76 74 97 77 69 51
70 70 71 71 74 74 68 71 94 90 99 85 90 84 84 85 82 56 51 54 50 51 59 52 57 56 54 50 55 49 51 71 64 61 57 59 70 67 60 88 73 79 47 46
69 69 70 72 73 74 64 88 96 85 88 70 87 94 87 94 76 70 62 67 54 59 69 63 60 56 55 58 48 52 47 70 62 68 57 64 74 62 61 62 59 56 48 49
68 68 70 72 71 69 64 63 67 94 69 72 88 98 99 95 90 77 57 63 60 67 72 63 55 52 49 54 56 56 56 61 64 89 60 68 87 66 62 59 56 54 65 52
67 68 69 70 71 72 71 66 82 88 74 64 91 93 98 96 92 90 58 62 59 63 56 56 55 51 49 49 52 49 56 56 65 84 66 89 70 54 56 56 50 49 49 50
69 70 70 69 69 70 77 67 73 79 86 62 69 67 97 96 85 74 64 64 63 59 64 72 69 71 62 59 55 51 50 57 77 91 74 61 61 64 62 64 61 47 51 50
70 71 70 69 69 69 75 75 76 73 84 67 50 62 94 99 97 92 67 61 59 63 69 73 85 96 62 68 58 58 50 51 78 86 84 76 80 61 57 71 79 53 52 63
70 70 69 68 68 69 80 80 75 84 78 58 57 69 73 95 99 99 82 77 75 67 79 85 82 72 61 70 68 60 70 74 84 78 89 64 60 50 59 90 83 58 60 59
70 70 68 66 67 69 80 79 77 86 86 70 60 53 66 64 84 99 96 88 83 84 87 84 74 73 70 74 70 77 71 82 85 76 83 83 58 70 84 68 60 57 60 66
72 71 68 69 67 67 68 85 73 77 96 75 58 56 55 58 57 72 81 88 88 86 86 91 79 73 73 70 77 71 78 69 76 70 72 52 52 53 50 50 58 60 59 64
71 68 66 69 69 67 68 84 82 88 93 73 65 63 48 48 54 51 85 84 92 87 89 94 84 85 76 80 75 74 70 60 69 66 56 52 48 60 58 61 66 62 60 63
68 69 69 66 70 70 60 82 80 89 94 98 61 37 49 43 50 53 54 66 69 80 89 91 90 80 68 74 74 72 70 72 63 64 56 55 60 67 68 65 66 66 63 65
72 74 74 70 70 73 77 81 79 80 96 93 80 62 52 49 53 58 60 60 66 89 95 93 90 83 79 74 82 80 65 63 74 74 66 63 71 72 66 69 70 68 69 70
76 75 74 73 74 78 88 94 84 76 86 100 97 61 52 46 56 53 75 81 79 93 96 93 90 72 80 87 78 54 54 52 55 70 72 72 72 68 69 71 71 69 71 69
75 75 75 75 76 88 92 92 93 83 92 99 92 88 69 65 72 85 92 80 93 96 93 93 87 80 80 85 88 54 54 55 70 71 72 77 77 84 75 75 73 69 70 67
75 76 76 74 72 79 94 87 80 87 97 99 95 89 78 80 96 97 93 98 98 96 93 92 91 86 85 92 78 75 73 71 71 74 76 78 74 79 71 76 72 76 78 75
77 77 70 86 88 95 96 82 83 93 95 99 92 96 97 94 95 90 94 94 98 95 97 92 89 86 98 81 73 72 77 82 86 77 76 77 76 76 82 83 82 84 81 79
74 79 84 90 97 83 86 95 99 100 100 99 96 75 91 94 97 98 98 96 99 100 92 93 99 96 77 80 82 82 82 81 77 83 86 88 89 86 81 79 78 78 80 81
83 89 93 88 74 91 96 100 99 91 97 92 87 79 89 89 100 100 95 100 99 99 97 94 93 88 88 78 82 75 75 74 76 79 81 80 80 81 79 76 76 79 78 77
90 91 84 89 85 93 100 98 99 99 96 96 99 99 98 98 98 100 100 98 100 99 96 100 94 92 84 76 76 77 79 73 74 72 76 76 78 80 82 82 82 82 78 76
78 94 99 99 99 97 98 97 98 98 100 100 99 99 99 98 99 100 100 99 99 96 99 83 79 91 78 81 84 88 80 78 77 80 81 81 84 84 93 93 87 88 85 79
90 97 90 95 98 98 99 99 98 99 100 99 98 99 100 99 100 100 99 99 99 99 99 96 99 99 81 88 88 86 94 95 98 97 97 98 99 98 99 99 98 98 96 93
96 95 96 90 89 98 99 95 97 95 99 98 99 100 100 100 100 99 100 100 92 88 97 100 100 100 93 97 95 94 95 97 99 97 96 95 98 98 98 99 99 98 96 96
93 89 97 88 96 96 96 94 91 97 96 98 100 100 100 100 100 99 99 99 98 100 100 100 100 100 99 98 74 62 62 66 71 78 85 86 89 90 92 94 95 95 97 98
92 97 80 84 88 93 85 84 82 84 97 99 99 99 99 99 99 99 100 100 100 100 99 100 100 99 99 94 77 60 64 66 69 71 76 73 68 80 75 83 92 94 93 95

GFSNW_sfc_rhum_081.txt.gz
RH
72 69 69 70 68 74 81 98 97 73 85 93 96 97 78 75 74 74 83 88 79 63 59 70 72 73 70 65 73 92 87 79 94 98 77 73 80 91 88 92 99 94 95 79
72 70 70 71 69 72 96 97 96 78 77 97 98 82 70 66 79 72 66 69 58 50 61 77 67 69 57 53 55 66 76 90 98 92 92 78 81 88 83 80 89 92 93 77
72 70 70 73 75 74 94 97 98 92 94 92 94 95 89 82 70 76 60 57 58 60 63 61 69 67 60 56 52 69 67 82 86 91 80 86 94 90 81 77 96 89 84 58
70 70 71 74 77 76 84 96 96 87 98 94 90 90 88 89 92 71 67 68 71 74 79 68 69 62 59 51 55 49 57 79 74 66 67 68 75 90 88 98 77 78 53 52
70 70 71 73 75 75 83 97 98 90 90 80 87 85 91 97 86 93 81 85 75 76 86 84 80 68 66 70 56 57 55 76 68 74 66 70 79 69 84 76 82 64 51 54
71 72 72 71 72 78 90 88 86 96 82 70 91 93 97 95 93 87 79 77 72 81 80 76 75 77 56 60 66 65 60 68 74 91 70 75 87 72 69 66 58 57 64 53
72 72 71 70 70 75 94 87 95 91 94 82 78 78 80 95 96 91 77 72 76 74 67 68 66 69 58 58 60 56 63 64 75 89 78 89 70 60 60 61 55 56 57 55
72 72 70 70 69 70 96 83 95 94 84 82 72 68 80 89 90 92 88 70 71 70 74 81 79 84 71 70 62 58 58 70 81 88 84 73 66 66 65 67 64 51 56 60
75 72 71 69 69 69 93 94 80 94 93 83 68 73 89 99 99 94 85 69 70 72 80 84 90 98 70 74 74 58 57 65 84 89 83 81 76 67 66 74 88 57 55 68
74 72 72 66 70 70 90 95 84 94 99 77 71 86 78 86 95 96 96 91 88 80 92 92 90 86 66 84 75 66 81 81 87 86 91 81 79 60 71 86 83 68 64 63
72 72 72 69 71 69 87 92 89 85 94 83 71 66 78 78 89 96 98 97 92 93 94 92 90 87 81 79 77 82 75 87 90 79 87 85 65 74 83 75 61 58 59 67
72 72 71 69 70 70 71 96 84 85 97 86 70 62 59 60 61 76 92 98 97 93 92 96 92 84 87 81 90 75 79 72 75 74 74 56 59 60 58 56 61 65 64 69
73 70 69 70 67 69 75 95 93 95 98 87 85 70 60 54 63 59 83 90 88 84 86 98 98 89 86 92 89 83 75 68 72 69 63 59 68 70 67 68 70 68 69 69
70 69 71 73 72 69 74 92 90 93 97 98 84 49 63 52 56 64 62 69 71 75 88 94 98 89 73 82 78 77 74 76 71 72 64 72 77 78 76 73 71 70 69 70
72 74 75 74 73 74 86 95 96 88 95 98 88 74 64 60 63 61 66 66 68 86 97 96 95 93 81 82 87 90 75 72 79 76 75 72 84 83 76 76 75 74 75 75
75 76 76 74 75 76 90 94 93 91 93 100 96 80 72 58 58 69 74 70 76 88 91 91 93 85 79 93 92 62 62 62 60 74 80 77 80 78 79 80 80 78 78 77
75 75 76 77 76 91 95 91 91 80 92 98 93 94 72 71 67 77 80 85 90 93 92 96 92 88 77 91 93 64 66 73 79 77 74 84 85 87 84 79 78 76 80 78
75 76 76 76 72 79 94 92 82 87 96 98 99 91 89 88 95 96 92 96 96 93 94 92 94 85 87 98 86 83 81 79 82 84 80 81 82 83 80 79 77 77 77 79
78 75 72 91 91 96 95 84 83 95 94 96 95 99 96 86 97 94 95 95 99 92 95 90 93 95 99 86 82 83 85 86 89 86 80 77 78 80 81 81 86 88 85 85
73 83 91 92 97 77 84 96 99 100 100 100 95 82 92 92 92 97 91 97 100 100 97 91 99 97 82 89 91 89 81 78 83 89 92 90 90 87 84 81 77 86 90 91
92 96 98 94 78 94 91 90 98 97 98 98 96 98 97 88 99 100 97 100 99 99 93 94 97 95 95 90 88 80 76 76 79 80 84 84 82 83 82 80 78 80 81 80
93 94 92 94 92 97 96 99 99 99 97 99 99 99 99 99 97 100 100 100 100 96 92 99 98 94 92 86 81 82 82 78 77 77 82 80 79 82 85 86 86 86 84 81
85 92 92 98 97 90 100 100 97 96 98 99 98 98 99 99 99 100 100 99 98 89 99 96 83 94 89 92 95 92 83 82 80 88 88 89 91 92 97 97 96 95 92 86
93 98 92 98 99 99 99 99 97 91 99 97 96 98 100 99 100 100 100 99 98 99 99 91 94 94 88 95 92 90 97 98 98 96 95 95 95 96 97 98 96 94 92 95
98 95 97 94 91 99 96 89 86 88 97 95 95 99 99 100 100 99 100 99 98 89 91 100 99 99 99 100 98 96 97 98 98 97 97 92 89 88 96 94 94 96 94 92
94 92 96 92 97 97 98 96 93 92 90 95 99 99 99 99 100 99 99 98 98 99 100 100 100 99 100 99 76 64 65 66 71 78 85 84 85 95 94 94 95 95 98 98
92 93 84 97 97 96 97 97 96 85 95 99 100 99 98 99 99 99 100 99 100 99 99 100 100 99 99 98 96 88 63 64 64 69 75 74 70 78 76 85 86 92 94 95

GFSNW_sfc_rhum_084.txt.gz
RH
73 70 70 70 69 75 86 95 94 75 84 92 96 96 81 74 78 82 89 93 94 76 65 83 82 95 93 95 94 98 95 99 98 85 79 76 73 91 84 90 96 95 94 81
72 71 71 71 69 72 97 97 96 77 77 98 98 80 77 72 78 80 76 73 65 57 68 77 70 70 55 77 86 94 87 91 98 99 95 88 96 91 82 85 85 93 91 80
72 72 72 72 73 73 92 96 96 91 90 88 91 92 84 87 68 76 72 67 69 73 72 63 70 66 58 60 66 70 68 91 78 85 80 87 95 94 79 79 94 92 89 74
72 72 72 72 76 74 82 96 93 86 98 92 90 88 82 93 90 76 79 75 83 83 88 80 79 72 63 56 61 65 60 94 82 79 85 78 76 92 84 90 80 83 71 60
73 73 72 72 74 71 88 94 98 95 97 78 82 82 88 91 86 91 95 88 88 81 92 94 95 91 71 71 61 62 57 74 67 78 76 80 89 88 86 84 82 73 60 54
73 73 72 71 71 80 93 93 90 92 83 86 87 94 87 87 97 78 76 78 91 81 82 82 80 81 80 73 67 68 62 74 76 88 73 74 96 91 88 82 81 60 62 49
73 73 71 70 70 83 96 94 96 94 85 88 83 76 71 80 92 94 73 81 86 75 74 74 74 80 67 63 64 60 64 68 76 90 77 92 69 60 64 66 62 55 57 55
74 72 70 69 70 72 95 95 92 96 98 87 81 81 75 70 77 92 93 78 82 77 82 83 79 82 74 69 68 65 61 74 83 87 87 72 67 62 69 68 67 55 60 68
74 72 71 66 71 71 95 96 91 92 97 82 79 83 81 93 91 87 88 76 77 82 86 87 89 95 80 74 66 65 65 74 82 91 82 80 82 72 66 69 87 58 62 71
73 72 73 70 71 71 93 95 88 90 96 87 81 90 88 80 94 94 82 90 94 86 94 94 92 87 76 86 84 74 83 87 90 89 91 81 82 68 78 79 75 72 70 72
73 72 72 70 70 72 89 92 92 94 88 86 75 72 83 82 85 91 82 85 97 95 95 96 93 89 85 78 80 84 80 88 91 83 88 84 70 77 79 76 75 65 70 73
74 72 69 69 70 68 80 95 86 89 99 88 72 69 68 68 68 77 81 97 99 91 97 92 97 91 91 86 92 78 79 74 78 77 75 60 66 71 65 62 58 60 68 75
72 67 67 71 72 71 73 90 89 94 98 94 89 76 55 68 70 58 85 87 84 93 77 98 96 91 90 93 83 86 80 74 74 71 65 67 75 75 73 74 72 73 70 71
68 68 72 73 73 72 73 93 86 93 94 96 86 59 64 58 69 71 64 71 83 94 90 98 98 98 79 84 81 81 72 76 73 75 77 84 84 82 82 77 74 74 73 73
70 73 74 74 74 75 87 96 96 91 94 94 93 83 72 66 72 73 75 77 78 99 98 98 95 95 91 90 90 90 76 71 77 77 70 71 82 81 78 77 78 77 77 79
74 74 74 74 76 78 87 91 90 91 90 100 94 81 79 63 70 74 78 81 82 88 99 94 90 89 86 96 93 67 66 63 61 73 83 81 83 78 81 83 83 83 82 79
75 74 75 75 75 90 90 88 88 83 92 99 97 86 74 68 77 82 93 81 90 94 96 94 95 90 82 92 96 67 74 75 81 80 79 86 86 88 85 81 82 79 84 84
76 76 73 72 70 80 95 91 85 89 89 93 99 90 85 88 99 95 92 95 95 97 94 90 89 87 89 96 87 85 87 86 85 85 83 84 82 83 85 86 82 83 78 81
76 71 73 88 91 96 94 82 84 94 93 97 97 98 98 86 92 97 95 94 100 95 97 91 92 96 95 90 84 85 87 87 88 87 84 84 85 85 81 80 82 85 88 84
72 83 88 95 93 77 82 94 94 94 96 99 97 93 94 94 99 99 100 93 99 100 97 92 99 90 89 92 92 91 88 79 82 86 94 92 91 87 84 83 79 82 86 92
92 94 97 93 80 91 96 92 94 95 96 97 97 97 95 91 99 99 98 100 99 98 95 99 98 98 96 93 91 87 78 79 81 81 82 82 83 84 84 83 82 83 83 85
90 91 92 95 94 95 94 98 96 94 98 94 97 93 91 96 98 100 99 100 99 98 96 99 97 93 94 89 86 84 82 77 82 81 84 82 82 85 88 90 90 89 86 84
91 84 86 90 94 89 99 99 92 94 96 90 88 92 92 96 99 99 100 99 98 93 99 93 86 94 92 95 94 90 86 80 84 90 90 92 94 96 96 96 92 89 88 88
93 94 75 94 98 93 97 98 88 87 94 91 88 94 98 97 100 99 100 99 99 99 99 94 97 95 84 92 94 90 97 98 95 93 92 94 96 93 93 90 90 92 91 94
97 94 83 95 91 98 94 88 92 94 82 91 92 96 99 99 99 99 99 99 98 92 94 100 99 98 98 99 99 99 98 98 98 98 97 94 91 90 94 89 94 95 95 92
95 97 97 93 97 98 99 99 98 96 89 92 96 99 99 99 99 99 99 98 98 99 100 100 100 99 99 99 98 73 71 73 75 78 80 75 79 94 92 92 94 95 98 95
93 94 81 91 97 96 98 98 97 91 94 96 97 100 98 98 98 99 99 99 99 99 99 99 99 99 99 99 98 97 66 61 61 64 68 67 68 70 77 86 90 94 94 95

GFSNW_sfc_rhum_087.txt.gz
RH
74 74 71 70 69 71 86 94 93 77 88 91 97 99 88 76 77 78 84 90 92 92 91 98 96 97 98 85 68 88 81 96 97 84 87 71 79 88 74 97 94 96 94 72
74 74 71 71 69 68 96 97 96 75 78 98 97 81 72 72 82 89 78 79 73 63 71 88 76 69 90 84 94 83 88 95 98 99 95 82 77 89 89 81 84 95 88 69
74 74 72 71 70 68 90 94 91 86 91 87 93 92 81 81 70 80 77 77 77 82 78 75 77 78 90 94 94 91 66 98 79 84 79 74 90 86 90 87 94 90 88 76
74 73 72 72 71 70 79 94 95 94 99 93 88 85 81 83 84 73 82 81 84 95 94 88 87 83 70 84 84 90 94 97 84 84 79 73 76 91 86 88 76 83 74 72
74 73 72 72 72 69 91 93 96 92 97 91 81 87 86 83 79 88 96 92 85 92 95 94 94 93 85 74 62 64 62 90 75 81 82 80 90 84 81 78 76 72 70 60
74 72 71 72 74 78 95 96 92 88 84 88 89 92 89 80 69 79 74 85 94 89 90 88 84 84 83 86 76 67 63 75 80 93 77 88 96 94 85 84 83 63 67 53
73 71 69 71 72 83 95 97 96 95 79 83 87 84 80 73 69 94 80 85 91 83 78 79 86 89 83 70 71 64 67 74 77 92 74 94 68 70 79 76 69 70 59 56
73 70 67 71 71 77 95 97 94 96 96 87 83 84 86 78 73 77 82 87 76 77 92 84 78 77 71 66 67 69 65 77 85 89 83 68 69 67 76 76 72 58 57 64
74 71 70 70 72 74 94 96 94 96 93 80 82 88 85 93 97 82 78 56 64 88 92 88 89 93 84 77 69 66 67 71 80 92 83 75 88 71 67 63 82 59 62 72
74 72 71 70 71 76 90 94 91 97 98 90 86 90 89 84 91 95 75 79 68 87 94 93 92 88 82 87 87 83 82 87 90 90 90 78 76 76 79 82 70 68 70 74
75 72 69 70 69 75 87 93 92 92 96 90 80 77 88 87 90 96 80 78 96 97 95 93 95 91 88 84 83 87 83 88 92 86 88 79 72 79 77 71 80 69 76 77
75 72 67 69 70 70 79 91 82 87 96 89 74 69 64 68 70 85 86 88 93 99 99 90 88 94 92 89 89 81 84 78 85 78 78 64 75 78 68 68 60 60 69 77
76 69 68 71 71 69 74 92 91 93 98 93 85 71 61 75 77 65 90 89 96 99 98 99 91 99 92 92 84 86 81 78 79 74 74 80 84 83 81 78 73 76 76 76
72 70 72 71 71 72 77 91 94 93 96 96 84 64 72 62 75 77 69 76 90 95 97 99 97 98 85 90 87 86 73 79 75 78 83 86 86 86 85 82 80 78 76 78
72 73 72 72 73 76 93 98 97 94 93 98 91 75 76 72 75 77 80 82 86 98 97 98 96 92 95 93 92 94 83 76 81 78 70 70 81 84 82 80 80 78 78 80
76 75 72 72 74 79 90 90 91 92 93 98 97 80 73 68 78 82 84 90 90 95 99 96 92 85 92 97 95 73 70 67 64 69 84 81 82 80 83 85 86 84 82 82
76 74 74 72 72 88 92 86 88 84 93 99 94 91 74 65 84 88 94 87 90 92 98 97 93 92 86 90 95 71 80 82 85 84 82 85 87 88 85 82 82 79 84 85
74 73 71 72 74 80 94 95 86 90 94 96 98 91 82 88 96 96 94 97 95 97 96 91 94 89 90 96 81 85 89 88 85 86 85 88 87 86 87 86 83 83 84 85
72 69 79 88 94 92 96 79 85 94 94 100 100 100 98 91 94 94 93 91 94 90 97 90 95 98 96 90 86 85 89 88 87 88 87 87 89 89 87 85 83 85 85 89
73 81 88 96 93 77 80 94 96 97 98 98 95 96 98 94 92 96 91 98 100 100 92 94 98 97 88 91 92 91 89 88 82 86 92 92 92 88 87 84 82 83 86 88
90 91 96 92 81 91 96 94 92 92 91 89 89 94 96 87 97 98 94 100 100 99 94 99 99 94 96 93 91 89 86 80 80 82 83 82 83 85 86 84 86 86 85 87
85 88 92 95 94 96 87 97 94 91 98 84 96 92 88 94 97 99 95 99 100 98 95 100 96 90 95 92 87 84 83 81 87 84 88 84 86 91 91 91 90 89 86 86
88 86 87 88 93 92 98 99 91 95 96 91 90 92 85 91 99 100 100 99 98 97 100 94 88 95 93 96 90 90 85 83 86 91 91 93 95 95 94 92 90 91 91 88
91 86 73 86 99 95 96 96 96 93 98 96 86 96 95 94 99 99 100 99 99 99 98 95 96 94 86 90 91 88 97 92 90 90 90 91 90 90 90 87 94 96 96 91
96 88 74 98 91 96 89 90 93 96 97 92 91 95 96 98 99 99 99 99 98 93 96 99 98 98 92 98 98 98 97 99 99 99 98 96 96 96 96 88 89 94 92 93
94 96 99 94 98 98 100 98 100 97 98 97 96 97 98 97 99 99 98 98 98 98 99 99 98 100 100 99 99 99 86 86 85 82 83 74 80 91 91 92 95 95 98 96
94 95 86 95 95 94 98 97 97 92 91 93 92 94 94 97 98 98 99 98 98 98 98 98 99 99 99 99 98 98 89 63 63 64 64 63 68 67 70 77 88 96 94 96

GFSNW_sfc_rhum_090.txt.gz
RH
76 75 72 71 70 69 84 93 93 78 88 92 97 99 97 80 76 80 86 89 90 96 97 97 97 97 98 79 68 86 86 95 94 81 77 67 73 83 87 95 97 96 94 73
76 75 72 72 69 68 95 95 94 72 78 99 98 81 70 67 91 92 73 88 84 76 87 95 98 98 97 84 68 74 77 91 98 97 88 84 76 91 71 81 85 97 89 63
76 74 72 72 69 68 89 89 88 84 90 93 93 93 85 78 64 85 77 89 74 84 86 86 89 95 98 91 68 60 58 86 82 87 73 77 85 88 87 77 94 90 87 72
76 73 73 72 70 69 77 93 97 94 99 91 91 85 74 81 81 72 78 92 89 96 93 82 91 87 92 98 98 98 89 96 93 84 81 66 67 85 96 98 81 79 70 72
74 72 72 72 71 67 92 88 91 94 95 90 88 88 93 90 78 73 86 95 95 96 98 99 98 96 88 82 96 100 99 99 82 83 83 83 84 84 87 86 84 79 76 67
74 71 72 72 72 73 95 97 94 91 81 85 90 94 90 81 75 69 85 93 97 90 98 95 92 92 87 89 89 92 75 87 75 96 82 86 96 92 90 85 78 68 76 59
72 69 69 71 71 81 95 97 96 87 74 77 85 83 85 82 73 79 69 73 94 89 72 83 92 98 96 90 73 68 70 73 78 90 76 96 69 66 79 78 77 70 60 56
73 69 67 70 71 75 96 98 94 95 91 86 83 86 88 80 80 79 68 82 71 64 90 89 83 76 71 70 66 70 66 77 85 93 91 69 72 77 88 84 82 69 70 60
75 72 68 71 73 75 94 97 95 96 88 79 82 92 89 93 94 87 70 56 62 77 95 94 89 93 87 80 74 73 66 69 78 90 81 74 89 75 74 64 84 63 61 64
76 74 70 69 71 74 90 94 93 96 96 88 84 84 88 87 92 94 87 76 72 89 97 96 94 93 85 89 89 86 84 86 89 90 89 75 72 76 78 82 68 69 66 74
76 74 70 70 68 75 86 93 91 88 95 89 80 80 89 90 92 93 85 85 89 91 97 94 97 95 90 89 84 89 86 89 93 86 86 78 68 79 74 64 77 72 78 78
77 75 69 70 70 74 81 94 84 87 96 85 78 74 69 71 71 88 91 87 95 99 96 96 91 93 94 92 91 81 84 82 88 80 78 66 76 80 82 72 67 66 74 82
78 72 70 72 70 70 79 96 93 95 96 92 80 68 71 80 80 70 91 90 96 99 98 99 99 96 93 94 87 88 81 81 85 78 76 82 87 86 76 77 71 78 72 77
76 70 73 71 72 74 84 91 92 95 97 99 80 66 77 71 77 82 75 78 93 92 95 99 99 93 88 94 89 90 78 83 79 81 81 87 87 88 85 85 83 81 81 82
72 74 74 72 74 85 95 96 97 95 90 96 94 83 73 74 76 83 86 84 88 97 97 96 98 92 95 92 94 97 86 78 83 77 71 71 81 86 84 83 84 83 80 82
76 76 75 73 74 80 89 94 93 95 91 98 93 81 84 65 65 86 91 91 93 98 89 88 89 85 92 94 96 77 77 73 69 77 85 84 86 84 85 86 86 85 85 84
78 77 75 73 74 94 90 83 88 86 91 96 95 93 74 72 86 92 95 92 94 96 97 91 95 93 90 94 89 78 85 88 89 88 85 87 87 89 87 85 84 80 86 88
77 75 74 75 76 84 93 95 84 91 90 90 97 93 83 85 97 94 96 96 94 94 93 93 95 90 92 98 82 86 90 90 89 88 88 88 90 88 88 88 84 86 89 90
76 78 80 88 93 92 96 81 87 94 90 99 94 98 98 87 93 92 97 96 98 91 97 94 94 88 97 88 86 88 90 91 89 90 89 89 90 91 88 88 88 90 90 86
79 79 86 95 93 76 80 93 96 96 98 95 87 96 97 90 94 91 99 97 98 99 90 89 98 96 88 93 93 92 90 90 89 89 90 91 93 91 90 91 85 87 92 88
83 87 92 91 80 93 95 88 90 92 88 86 86 96 97 87 96 98 94 99 99 99 96 99 99 96 96 94 92 91 90 84 84 82 82 83 83 85 86 88 88 89 86 89
83 87 91 94 94 93 88 94 89 88 94 81 94 97 94 92 97 100 99 99 100 98 96 99 92 92 96 94 91 84 84 82 86 86 86 89 89 92 91 89 89 88 85 85
85 85 90 88 93 94 91 100 90 93 95 95 95 95 92 86 98 99 100 99 97 94 99 97 93 95 94 95 91 89 84 83 84 86 85 90 92 90 88 91 92 87 86 86
84 84 82 83 97 94 96 93 93 93 98 98 98 98 98 91 98 96 100 97 100 99 99 97 98 98 86 88 90 89 95 88 88 86 87 87 82 93 93 90 94 96 96 94
94 86 72 97 89 95 96 93 95 97 98 96 97 97 99 98 98 98 99 99 98 94 98 99 97 97 98 97 98 96 98 95 100 100 98 98 98 98 98 91 94 94 87 87
94 96 92 93 99 100 99 95 95 98 98 98 89 94 98 98 98 98 98 98 97 97 98 98 98 98 99 100 100 99 99 90 88 85 85 76 84 91 91 94 95 94 95 91
94 97 93 95 97 97 98 98 97 88 88 97 90 95 86 96 99 98 98 97 97 97 86 89 98 98 99 100 99 99 97 71 65 62 62 61 68 67 67 69 83 96 94 97

GFSNW_sfc_rhum_093.txt.gz
RH
76 76 73 71 70 71 82 92 91 80 91 92 98 98 95 65 76 78 84 91 81 92 98 98 97 97 98 79 67 84 81 94 93 76 71 63 71 79 78 90 92 92 84 67
77 76 73 72 70 72 93 92 91 69 78 99 98 71 72 74 73 84 80 93 80 75 97 98 99 99 98 84 65 75 77 83 96 93 73 79 83 83 74 75 80 96 82 59
77 74 73 73 71 68 86 82 85 77 91 94 88 90 85 83 72 87 73 95 77 81 80 85 94 98 100 81 63 61 61 74 76 77 62 77 90 89 75 72 87 75 75 63
75 73 73 74 70 66 74 90 98 92 91 81 92 92 81 85 78 70 74 90 83 98 96 95 94 93 99 99 95 93 77 97 84 78 78 73 73 86 81 82 66 67 55 61
73 71 73 73 70 66 91 82 91 94 94 89 90 87 88 85 71 77 85 89 84 91 99 99 99 99 91 99 100 100 99 94 90 92 83 78 75 77 79 66 69 71 63 61
73 70 73 72 71 69 94 98 94 85 76 83 87 93 86 76 79 67 68 81 81 84 96 89 81 83 85 89 98 99 100 97 90 96 86 89 90 88 88 83 78 71 80 61
74 68 71 72 71 81 95 97 95 81 67 76 79 82 83 80 75 81 70 65 91 82 61 76 92 96 94 99 90 86 90 93 80 91 93 98 68 70 76 75 73 67 63 54
74 69 69 72 71 74 97 98 94 88 77 82 83 86 88 80 82 87 78 74 66 58 85 91 82 81 74 71 66 71 68 75 80 89 86 70 70 83 90 81 82 71 61 56
76 73 69 72 74 75 94 98 95 91 80 71 81 91 88 94 96 89 76 61 58 74 91 94 92 99 90 83 75 67 65 70 82 85 82 74 89 72 73 70 84 66 68 65
77 75 72 70 75 72 89 95 93 94 84 83 85 80 88 89 92 96 90 80 82 79 98 97 98 96 87 92 91 88 82 82 88 88 88 76 69 70 74 79 68 74 63 68
77 76 73 71 72 76 85 94 90 91 96 90 82 79 88 89 92 97 85 84 87 84 95 92 87 87 94 92 86 91 88 90 91 82 79 78 65 76 72 69 75 72 76 76
78 76 72 74 72 75 81 94 84 87 95 85 83 78 74 74 72 88 91 90 96 99 96 91 97 81 95 94 92 81 85 80 89 78 76 66 68 75 77 71 68 73 76 76
78 74 73 75 73 74 81 96 94 94 96 84 77 74 80 83 81 72 89 91 94 97 96 99 97 98 88 96 90 92 83 83 87 76 74 75 86 84 78 74 72 74 74 75
78 73 76 74 74 77 84 82 97 95 96 86 65 68 82 78 80 85 80 87 88 93 94 96 99 94 86 96 88 92 82 84 81 82 79 84 85 88 78 77 78 80 80 82
75 75 76 75 81 85 94 96 98 95 88 83 88 77 76 70 75 83 89 87 90 97 94 93 96 93 95 93 90 98 88 78 84 78 72 73 78 88 84 82 84 82 79 81
78 78 76 76 83 78 88 95 94 91 92 96 93 81 84 72 72 84 91 88 88 95 83 86 91 87 96 98 84 80 80 80 75 76 86 84 86 84 86 86 86 84 85 82
79 78 78 77 82 92 88 84 90 83 90 91 92 88 73 75 92 93 96 93 95 96 97 95 84 95 95 82 85 77 84 90 91 90 88 89 87 89 88 84 83 82 87 89
78 78 77 78 78 84 93 96 87 84 91 90 98 89 81 84 94 97 92 93 92 93 94 92 94 85 92 97 86 83 90 90 89 90 90 88 91 88 87 86 82 85 88 90
77 78 78 86 90 96 95 84 86 95 88 98 94 99 97 87 91 95 97 92 97 89 98 95 92 95 96 89 87 89 91 91 89 90 90 90 91 91 88 88 88 90 92 87
82 81 85 93 90 77 83 86 92 94 95 90 92 94 98 92 89 96 90 99 99 100 94 88 98 95 85 94 94 93 92 91 89 91 93 92 91 88 91 91 85 86 89 87
82 87 93 94 79 93 93 90 90 92 88 88 93 96 93 89 92 99 95 100 99 99 93 97 98 96 94 94 93 92 89 84 85 84 85 84 83 84 84 88 87 85 85 90
81 84 91 92 89 93 92 93 88 93 94 94 98 96 95 94 97 100 96 93 99 96 92 100 96 96 95 95 91 84 83 82 87 87 92 92 91 89 88 88 89 88 85 85
84 85 88 85 95 92 85 99 99 97 96 96 96 94 93 86 96 94 98 98 97 97 99 95 96 98 98 96 97 88 85 83 82 84 86 87 91 85 85 94 94 92 93 94
84 85 85 83 93 94 93 90 90 91 98 99 99 99 98 95 97 89 99 83 99 99 98 98 97 96 94 97 98 97 97 96 88 87 84 83 80 93 89 88 96 94 93 93
91 84 75 92 89 98 98 97 97 99 98 97 96 93 98 99 96 98 98 98 98 96 96 99 92 92 93 95 98 99 99 98 98 100 98 98 98 98 97 92 93 93 85 82
92 91 91 89 97 99 97 93 94 98 98 97 89 91 98 95 98 99 96 98 96 95 97 94 92 93 93 96 98 99 99 98 91 88 88 76 82 91 91 96 97 97 97 96
93 99 86 92 97 97 99 94 98 92 92 97 87 95 87 95 99 100 98 97 96 97 98 97 90 93 95 97 99 100 98 97 75 60 59 58 66 67 65 66 82 96 94 96

GFSNW_sfc_rhum_096.txt.gz
RH
74 75 72 72 70 67 63 65 82 63 72 80 83 80 72 65 62 63 75 90 80 77 74 100 99 99 100 75 52 66 61 78 72 62 49 60 85 58 56 91 87 73 74 51
75 73 72 73 70 71 64 58 58 52 62 95 81 57 60 61 64 69 72 93 81 84 80 93 98 99 97 69 50 48 50 69 73 72 49 60 82 58 49 57 66 90 74 48
74 71 72 72 70 69 54 52 96 55 54 64 71 77 58 52 51 73 65 90 67 79 72 66 91 98 99 68 50 53 42 48 58 46 46 50 67 56 54 54 75 54 48 42
72 70 73 71 69 64 46 53 79 72 82 58 66 72 57 55 52 51 63 74 72 89 88 77 85 98 99 96 88 70 52 58 49 49 53 61 59 53 55 77 45 49 42 38
72 71 73 70 67 65 56 53 74 68 60 62 62 60 51 57 52 62 72 72 66 76 91 94 98 98 97 90 99 98 88 74 85 64 57 58 78 51 46 44 40 41 48 42
72 71 73 69 68 56 56 75 72 60 58 58 52 55 56 52 59 49 58 60 70 76 86 63 60 63 82 95 97 93 95 75 69 93 84 71 77 58 53 42 36 37 45 37
72 71 72 69 70 68 60 70 70 50 41 43 49 59 63 58 57 65 56 59 77 62 49 61 75 79 83 88 88 88 91 91 64 76 83 82 57 57 50 49 43 44 43 45
72 71 73 71 68 72 70 74 56 52 47 46 59 62 61 57 59 66 63 56 49 54 70 71 60 59 64 62 62 87 85 72 60 74 68 59 57 64 73 68 59 50 50 41
74 72 74 74 72 74 72 82 68 52 46 44 57 58 62 71 65 57 57 50 55 66 78 72 77 81 70 63 60 53 56 56 64 64 66 61 67 58 58 61 71 52 49 46
76 73 74 74 72 72 67 81 77 65 47 53 58 58 62 68 69 68 63 64 70 62 73 78 81 72 66 67 69 69 63 62 64 62 64 61 52 53 59 77 65 62 51 47
76 73 75 74 75 72 66 77 78 70 65 61 65 61 66 64 66 70 60 71 66 75 84 82 82 72 70 67 60 70 69 70 64 62 62 69 48 58 61 65 56 57 56 53
77 74 76 75 76 76 71 76 75 73 78 64 64 60 58 59 59 66 67 75 90 86 75 73 86 74 68 75 62 57 64 61 67 61 57 53 53 59 65 58 60 61 58 58
78 74 76 76 76 76 74 80 83 80 78 59 51 54 57 64 62 55 66 71 77 83 79 80 86 96 76 70 61 69 55 59 63 61 58 55 66 64 63 62 61 62 63 59
77 73 76 74 74 79 76 76 82 81 76 56 49 54 61 59 62 66 62 75 71 72 76 78 91 97 71 72 69 74 56 59 59 57 54 56 66 69 65 65 64 66 70 68
75 74 76 75 79 84 85 82 83 75 72 56 54 58 57 57 61 68 71 69 72 81 76 81 84 88 88 75 80 75 59 55 52 52 54 54 59 67 64 64 68 66 64 67
79 79 76 80 83 81 79 87 79 80 78 79 71 62 62 53 65 72 80 78 79 80 76 72 74 70 80 93 73 55 56 57 55 54 63 61 66 66 65 67 69 68 65 64
83 78 78 80 77 85 81 72 81 73 79 76 75 62 59 60 77 80 80 79 78 77 82 88 72 72 82 89 74 53 59 65 66 68 68 71 69 68 70 67 70 71 69 68
80 78 80 79 78 80 87 86 79 76 80 70 86 67 61 67 72 75 83 82 81 83 75 73 78 70 82 87 67 65 66 71 70 70 71 72 71 71 72 69 68 70 71 72
82 80 79 82 87 91 92 83 83 83 73 87 80 78 74 68 74 76 89 88 88 76 84 75 77 78 92 78 81 74 78 79 77 75 75 76 76 76 74 73 73 74 77 74
83 76 77 88 87 81 85 80 80 82 81 79 79 79 76 75 71 80 82 95 94 99 81 77 89 77 82 88 81 77 78 77 77 80 81 81 82 79 79 78 75 78 80 78
79 81 88 93 82 87 83 86 85 81 84 75 74 77 78 73 81 85 83 92 94 98 87 92 89 90 90 89 90 82 77 73 74 75 76 76 76 77 78 83 80 78 79 81
77 82 88 90 83 85 87 92 83 82 80 83 82 82 82 77 85 96 91 90 90 88 93 100 88 90 88 94 93 90 78 79 82 82 84 83 83 80 79 79 78 79 75 75
81 83 90 84 93 88 85 93 96 96 90 89 88 83 75 75 83 86 92 95 88 83 100 86 87 83 75 79 97 98 95 84 80 83 83 84 84 79 78 76 75 73 72 74
78 86 82 83 91 84 85 78 84 78 89 92 85 90 84 82 86 80 90 74 92 97 94 90 75 63 62 76 81 98 99 99 98 93 83 80 77 81 70 71 75 67 66 70
85 84 68 88 84 93 89 89 90 92 87 88 88 88 84 95 88 85 89 89 91 85 82 83 74 68 70 80 89 96 99 100 99 95 97 93 91 89 81 76 75 71 63 60
90 86 90 89 93 98 93 96 96 92 88 82 81 86 89 84 94 94 94 93 88 83 89 87 84 90 85 86 87 95 97 99 96 85 81 66 73 79 76 79 81 82 82 79
88 96 77 87 91 92 90 85 90 81 80 91 87 96 85 87 96 96 90 93 83 84 80 81 89 92 87 89 94 98 100 97 95 87 74 58 84 68 55 54 65 79 80 87

GFSNW_sfc_rhum_099.txt.gz
RH
75 73 68 70 68 65 67 57 77 52 63 75 70 75 57 62 54 55 68 76 68 68 62 100 100 100 100 62 43 55 45 70 64 57 53 55 96 79 58 90 74 64 77 52
76 72 69 68 66 66 47 41 46 48 56 94 72 50 50 53 56 63 65 71 61 64 68 83 98 94 91 55 44 41 45 60 68 58 51 65 70 54 51 51 62 86 85 47
78 72 70 66 65 66 49 42 96 48 43 50 60 59 47 43 45 64 64 78 55 65 64 58 88 96 85 58 41 51 46 42 50 51 50 48 67 54 49 52 82 58 44 39
76 72 70 65 65 65 49 38 66 56 82 46 46 56 42 44 49 46 56 83 62 70 85 66 94 96 87 74 71 54 47 55 38 40 53 51 50 49 51 77 52 76 39 38
74 72 70 65 66 62 42 40 53 47 41 47 46 48 40 44 42 53 62 64 58 64 86 88 95 97 89 93 84 90 67 68 70 64 36 41 52 49 40 44 44 40 37 38
73 73 69 66 67 65 42 50 50 41 46 38 39 43 45 43 46 40 48 50 61 64 69 56 55 58 75 96 91 78 83 61 82 95 85 66 77 53 43 37 32 34 40 32
72 74 69 66 69 58 42 45 40 34 32 30 37 43 48 47 47 54 43 49 65 51 48 54 62 60 63 70 96 77 76 76 69 92 76 90 54 50 47 41 33 26 34 40
72 74 71 66 68 60 51 52 40 31 30 30 40 45 46 44 44 54 52 45 44 49 64 68 59 62 70 65 70 98 93 92 87 87 63 52 53 53 58 59 48 33 33 32
73 75 73 70 68 64 57 61 51 35 31 33 40 45 48 54 46 48 47 43 47 56 69 63 70 73 57 60 59 59 74 68 73 64 65 58 59 53 51 53 71 48 44 39
74 76 76 74 72 65 58 66 64 42 37 43 46 46 49 54 54 49 47 54 61 54 63 71 71 61 57 63 64 64 59 58 64 65 62 58 52 57 52 75 71 55 49 44
74 76 76 72 71 67 58 69 66 54 39 53 53 52 52 52 52 58 52 66 61 63 70 68 67 65 60 62 53 61 63 65 56 54 56 68 48 57 70 64 49 51 50 44
75 76 77 75 72 70 61 63 60 56 57 56 50 49 50 52 53 57 58 71 85 76 69 60 65 63 57 60 74 48 69 58 64 59 59 48 51 58 62 54 56 56 52 48
78 76 76 77 75 70 64 62 66 61 53 52 49 49 50 52 52 48 57 63 69 67 69 72 75 82 58 63 64 58 48 50 57 58 50 50 56 56 55 57 57 58 57 53
75 76 76 76 76 75 67 63 64 64 55 48 50 44 53 50 53 57 55 60 58 59 66 74 81 84 65 62 65 64 48 52 50 47 50 49 58 61 57 67 56 58 61 59
75 77 76 75 78 76 77 69 67 62 70 50 49 48 50 48 51 57 64 61 62 68 67 74 81 76 85 66 71 64 48 53 53 68 55 52 57 62 65 63 70 60 60 64
80 81 78 78 82 74 77 82 67 66 68 70 69 53 51 48 62 64 70 70 66 64 71 61 61 59 74 79 71 48 48 47 51 53 49 56 58 60 59 62 64 61 60 60
83 81 82 82 74 77 83 83 79 68 70 67 69 56 53 55 68 72 72 69 70 71 74 80 62 60 77 84 75 50 51 53 57 57 62 62 62 62 62 62 64 64 62 62
83 81 80 75 77 75 83 86 74 68 66 61 97 66 58 56 63 72 79 78 73 75 69 63 67 59 64 76 60 61 63 61 60 61 62 66 65 64 66 63 62 64 64 64
84 81 76 73 75 86 86 81 76 76 73 82 74 76 79 58 64 65 83 84 84 70 80 68 67 62 83 90 79 75 70 73 76 69 66 68 70 70 70 68 68 68 71 70
84 69 71 84 83 84 86 82 78 80 73 71 66 63 69 65 62 73 76 90 92 97 79 66 81 69 86 81 87 86 78 73 70 79 77 75 75 73 72 72 71 74 75 74
69 76 89 95 83 86 78 89 83 79 82 65 64 62 70 64 77 80 72 91 88 94 88 90 83 88 80 72 76 82 76 76 78 76 72 72 74 75 73 76 75 73 73 74
76 82 83 83 79 84 90 90 86 84 73 73 75 75 67 71 72 82 82 85 91 86 85 100 85 80 69 67 72 87 88 82 79 78 80 78 77 75 75 74 73 72 70 67
75 78 96 84 91 86 83 89 92 92 86 89 83 85 68 73 73 74 86 90 84 66 96 76 74 69 58 64 70 73 83 94 95 88 81 82 83 77 75 74 67 64 61 61
80 94 74 89 85 76 85 85 86 84 91 87 78 85 78 72 81 73 81 67 79 88 86 81 62 59 48 48 64 78 84 96 96 91 90 92 79 77 65 62 64 59 54 59
95 100 76 79 89 92 90 88 86 86 83 83 86 86 74 87 84 76 81 87 84 74 73 76 70 67 67 69 68 77 88 96 99 100 97 92 89 88 82 70 69 66 60 55
97 86 86 83 90 95 93 94 95 85 80 77 79 84 87 85 85 89 91 84 82 80 86 87 83 95 92 87 73 70 84 92 96 90 89 78 75 80 78 75 76 78 80 83
93 93 75 89 90 92 90 82 84 73 76 86 83 84 75 83 90 90 80 85 82 82 73 72 89 95 91 90 87 86 92 90 90 89 87 62 78 86 91 88 60 74 79 91

GFSNW_sfc_rhum_102.txt.gz
RH
79 76 73 71 67 64 75 74 96 66 73 92 72 91 54 62 52 53 65 71 62 70 65 100 100 100 99 68 47 63 56 80 86 80 61 73 87 89 74 99 94 92 96 74
79 77 73 72 67 66 66 68 72 66 73 99 88 53 48 50 54 60 63 68 55 58 76 94 85 88 77 55 49 55 55 81 91 82 63 64 78 63 69 80 82 91 97 74
79 76 73 72 66 66 75 63 100 72 67 60 64 60 47 44 52 60 66 75 51 60 70 75 95 88 78 66 52 58 54 57 64 89 67 63 75 61 56 65 95 98 86 60
79 74 74 70 66 66 72 58 87 73 96 63 53 61 47 46 50 48 53 78 57 64 86 84 94 97 78 71 68 64 66 76 54 54 48 55 57 58 58 80 90 98 52 53
77 74 73 67 67 64 68 59 66 59 51 49 46 63 51 48 41 51 60 61 56 60 82 82 89 89 92 90 82 94 80 86 58 77 56 48 60 52 48 54 76 66 44 54
76 75 72 67 68 68 61 62 59 65 52 45 49 59 53 45 48 45 45 49 65 60 67 62 61 61 78 96 84 87 84 83 82 97 84 66 87 60 52 44 42 47 50 49
75 74 69 67 67 70 59 58 52 51 46 41 49 43 48 47 49 54 42 47 61 57 54 61 67 68 62 96 97 91 72 76 77 98 87 96 75 60 60 50 40 35 40 45
75 73 67 67 65 63 65 64 61 50 43 40 43 46 51 49 48 57 52 48 48 55 69 82 85 84 90 80 81 96 91 79 93 98 98 64 63 63 70 67 60 45 39 36
78 73 68 67 62 63 70 78 72 58 48 49 40 49 54 67 60 63 54 50 53 62 76 73 86 84 70 84 83 90 90 88 98 91 90 97 71 65 59 64 88 67 61 49
80 75 69 68 66 65 73 82 75 71 58 57 54 61 65 64 68 65 59 60 70 62 75 74 77 76 65 80 84 86 87 85 90 84 90 81 64 70 62 84 97 66 60 57
80 76 74 70 67 65 74 84 76 80 63 66 54 54 63 64 66 78 69 77 76 80 72 70 65 66 65 76 72 78 76 87 95 76 81 96 61 67 84 81 62 67 63 58
81 77 73 70 68 65 67 84 63 59 74 72 55 57 56 58 61 74 77 80 84 80 88 71 74 68 59 70 96 71 90 74 87 78 78 60 74 78 74 66 70 75 72 66
81 75 71 70 68 67 68 80 79 73 70 72 68 62 59 54 57 58 82 80 72 68 76 81 78 80 66 65 82 77 62 64 76 67 64 68 70 69 73 75 70 71 68 65
79 76 75 72 70 69 66 81 82 78 71 70 70 50 63 58 59 63 65 66 67 69 76 83 85 87 80 75 76 80 68 67 66 74 72 65 76 75 70 79 66 69 71 74
79 78 76 76 73 72 77 81 82 74 86 74 71 56 60 54 59 68 71 69 72 71 88 80 84 83 89 75 77 79 59 72 74 84 68 75 80 81 88 74 81 69 70 77
82 82 80 76 75 73 85 87 80 75 81 91 91 66 62 60 69 73 70 77 68 76 88 89 78 65 75 85 82 64 65 66 68 78 73 68 73 70 69 74 74 69 73 74
84 82 81 77 72 90 93 89 90 72 84 86 85 78 65 66 65 73 74 68 75 72 76 85 82 76 77 86 76 77 79 75 72 73 76 77 76 77 74 71 71 69 70 72
84 85 78 74 76 77 91 93 77 81 80 78 99 89 82 70 86 92 80 88 80 83 74 74 77 66 76 83 91 72 76 73 70 77 77 82 79 81 76 75 74 78 76 75
84 77 71 79 84 92 97 80 79 90 90 96 95 94 98 74 82 75 85 90 93 82 84 74 71 70 93 91 88 87 88 84 85 78 77 72 75 76 74 77 83 84 84 81
80 71 80 94 95 82 81 90 95 96 90 87 93 79 96 86 82 76 81 94 95 98 87 75 96 85 89 81 86 83 87 83 80 92 88 85 83 80 78 83 78 81 82 79
82 88 96 99 82 91 90 96 96 94 94 84 83 90 96 78 94 84 74 95 94 96 98 94 94 90 89 80 83 78 78 80 78 80 82 84 84 85 85 82 81 76 76 78
80 88 91 94 92 94 93 95 92 92 89 91 96 92 90 91 78 80 91 87 85 92 93 99 93 95 81 80 84 87 77 86 88 85 89 86 83 83 79 78 78 77 75 71
86 90 96 93 96 95 80 86 98 98 93 97 95 96 91 92 84 80 86 87 90 70 96 88 91 87 69 73 79 85 84 74 83 86 82 87 85 80 78 77 68 67 67 68
88 89 84 86 94 90 92 93 95 97 96 93 94 97 96 88 94 88 87 82 88 97 88 81 95 78 62 62 70 80 86 83 90 97 92 90 95 88 76 68 69 69 64 66
90 91 79 92 97 97 97 95 93 95 91 93 96 96 94 94 94 88 87 86 81 76 90 97 96 82 82 86 84 87 91 92 89 94 99 97 95 92 93 78 78 76 72 68
92 90 94 88 93 98 98 96 98 96 91 95 95 96 95 97 95 90 88 82 87 93 98 98 96 95 94 95 93 89 86 88 83 93 98 93 94 93 92 91 90 90 92 93
91 99 87 96 90 92 97 88 93 86 94 98 96 89 87 90 95 94 94 88 97 97 96 96 93 94 94 95 95 94 94 90 81 84 92 91 86 91 93 95 92 95 92 94

GFSNW_sfc_rhum_105.txt.gz
RH
88 82 78 74 72 69 83 94 97 74 88 96 85 97 68 60 54 59 66 76 74 74 72 98 96 97 99 77 66 65 58 85 92 85 68 83 92 88 87 98 98 98 95 82
89 83 77 73 72 73 88 90 93 74 88 99 97 68 59 60 54 57 56 76 58 53 91 97 94 79 78 75 64 74 65 85 94 81 71 76 84 75 75 85 98 98 97 80
91 83 77 74 72 69 87 84 94 88 95 81 79 73 56 66 61 58 64 76 53 63 75 71 90 80 83 78 75 56 56 66 79 94 86 73 82 69 68 78 98 98 92 71
91 83 78 75 71 70 76 83 94 78 94 80 68 71 55 57 66 61 57 73 55 62 89 89 93 96 84 78 76 77 80 85 71 71 67 62 63 66 67 88 97 97 87 70
86 81 79 75 69 70 80 69 73 71 66 52 55 74 59 56 52 57 60 60 63 60 86 81 89 95 94 96 83 97 89 77 69 80 66 62 67 56 60 72 94 87 77 62
84 81 79 73 71 67 78 77 72 59 63 56 65 69 57 58 54 54 52 57 71 60 72 71 64 65 80 97 83 90 89 94 84 97 85 62 80 71 56 83 86 64 81 56
83 79 75 70 70 73 72 73 68 63 56 56 62 54 55 54 56 62 54 53 69 66 64 70 78 71 75 95 95 83 79 73 80 98 88 96 82 62 59 56 82 60 53 50
82 76 74 67 68 71 75 77 66 62 53 55 55 54 56 54 58 65 59 56 58 64 78 87 93 84 90 81 76 84 89 87 97 98 97 77 66 72 75 69 82 71 47 43
82 75 70 67 66 66 84 91 84 68 57 66 52 58 62 79 77 72 63 61 60 69 78 89 95 90 87 96 96 82 86 88 93 95 97 96 79 74 68 68 92 75 66 64
81 74 71 69 71 66 83 92 86 68 78 78 68 75 76 76 80 79 73 69 78 72 85 80 83 85 72 90 89 93 88 89 93 95 97 90 72 69 66 87 93 76 72 65
80 75 72 70 69 70 81 91 84 72 87 81 67 68 76 75 81 86 77 87 84 88 75 70 65 63 73 82 79 81 86 92 98 90 91 94 71 78 87 83 68 80 78 73
80 75 71 70 69 68 76 83 72 70 81 81 69 69 67 67 72 83 87 87 83 88 95 81 79 63 65 76 98 76 92 83 89 84 87 67 83 85 81 81 82 83 83 78
82 75 70 70 67 64 73 86 85 77 84 86 79 78 68 62 68 67 89 82 75 77 86 85 82 85 82 66 93 88 70 73 85 75 72 79 83 85 79 83 73 74 74 75
76 72 70 70 69 65 71 86 91 80 80 85 82 60 74 67 67 70 72 78 72 78 83 76 88 87 82 79 77 84 76 76 77 91 85 83 87 87 82 79 72 73 75 75
75 73 71 71 73 75 79 90 88 84 73 84 85 71 70 62 66 78 73 74 80 91 94 80 81 86 90 81 83 88 67 76 91 85 79 81 87 85 93 88 82 76 74 81
82 80 77 75 75 68 74 65 82 80 88 88 94 77 74 78 78 77 74 76 80 87 94 96 87 67 77 84 90 90 83 85 84 91 87 82 78 83 78 79 76 76 78 77
86 80 78 75 78 93 93 79 87 77 90 85 90 86 76 75 65 77 80 71 79 82 88 93 92 83 76 77 90 87 78 82 83 85 86 83 84 86 81 80 74 72 73 74
86 79 75 76 74 78 91 92 81 86 83 87 95 97 90 81 94 86 83 87 84 84 78 82 88 78 90 93 91 87 79 80 81 74 74 82 82 84 85 80 77 82 82 80
86 79 72 82 89 93 97 76 79 93 90 94 94 93 97 82 90 72 91 90 95 86 87 72 77 77 95 85 92 93 95 92 88 80 86 79 77 76 75 77 78 82 83 84
82 76 84 98 99 80 79 85 93 93 92 91 93 92 96 88 92 76 81 95 97 97 90 78 96 93 93 89 89 90 82 83 87 86 88 86 86 84 82 80 78 83 86 82
91 95 99 99 81 88 91 96 94 97 94 88 90 94 95 84 93 86 76 91 95 97 92 90 98 78 94 88 86 87 84 81 82 83 85 88 88 91 93 88 85 82 80 82
82 91 92 95 92 97 91 96 92 94 90 95 94 95 94 95 83 84 89 82 84 82 91 93 82 93 86 85 86 88 86 80 78 84 88 86 88 88 86 89 85 80 78 74
90 91 97 92 98 96 78 84 97 99 96 98 94 97 94 93 86 84 83 84 92 82 95 77 93 92 83 82 83 85 87 86 76 75 77 84 85 83 83 86 80 76 77 67
89 91 96 90 94 92 88 87 91 96 95 90 93 98 95 91 93 83 95 88 91 83 93 91 97 88 70 67 73 77 78 83 90 84 83 90 91 94 90 79 81 85 66 66
93 92 75 96 95 99 99 97 96 98 87 93 95 96 92 96 95 95 91 84 93 90 89 96 97 81 81 86 85 89 92 92 95 94 92 90 98 97 95 86 78 78 73 66
95 92 96 94 95 99 99 97 97 96 92 94 93 96 95 99 95 92 93 93 93 88 99 98 98 96 96 96 94 91 92 92 93 93 86 89 97 96 96 97 94 92 92 91
93 100 94 96 92 93 98 92 96 89 91 95 95 81 79 93 98 98 97 94 92 98 99 98 95 94 94 96 97 94 94 95 94 90 82 89 85 84 86 92 95 97 97 97

GFSNW_sfc_rhum_108.txt.gz
RH
96 94 88 78 75 75 85 96 98 80 89 96 96 96 70 63 56 66 71 77 82 78 93 97 90 84 94 81 79 69 61 89 93 86 81 86 88 84 92 93 96 100 97 82
95 93 86 77 75 75 90 97 93 82 82 99 97 77 61 64 54 60 57 74 61 55 92 96 73 87 78 78 74 72 63 84 95 79 69 72 85 82 84 92 95 98 100 85
95 94 84 79 75 74 82 82 97 96 92 93 84 77 63 75 65 58 60 71 53 70 79 70 94 68 80 78 79 64 59 68 79 91 80 76 81 72 75 87 96 98 97 92
95 92 83 80 78 78 67 87 88 83 98 85 78 66 56 72 72 64 59 71 55 64 90 87 91 80 90 80 79 78 79 80 75 69 66 66 65 64 68 94 98 95 81 83
94 89 83 82 79 77 78 80 82 80 78 67 73 71 60 57 56 66 65 58 66 56 82 81 88 93 90 91 86 96 89 66 74 79 72 66 67 56 65 90 98 94 80 66
93 87 84 82 78 69 75 82 78 62 66 65 69 74 60 57 55 56 56 61 77 61 69 65 63 65 76 94 90 87 90 94 89 96 85 71 84 81 68 96 96 90 96 87
91 85 83 78 78 71 67 71 74 61 62 59 63 59 56 61 59 64 55 55 73 70 68 70 75 71 84 91 90 80 91 74 79 99 91 95 93 70 62 90 96 81 72 67
91 83 79 74 72 72 70 80 66 62 62 62 60 58 62 60 66 63 57 58 58 67 79 87 92 81 87 83 73 79 86 96 93 99 99 94 76 77 81 75 91 79 79 69
88 84 77 73 69 72 79 91 82 63 62 62 60 62 67 78 82 74 65 63 66 71 90 86 95 96 92 97 92 82 85 88 89 97 97 96 79 68 76 72 96 81 83 67
86 83 76 69 74 72 76 91 86 71 79 79 69 70 75 78 81 82 78 77 81 78 93 89 85 86 80 90 92 92 87 90 91 98 98 92 72 70 65 83 88 82 82 77
87 80 73 75 75 70 74 90 87 72 88 83 76 74 75 81 84 81 77 86 84 87 82 83 79 78 82 86 84 83 88 93 98 93 91 97 75 82 89 87 73 74 86 81
83 76 76 72 76 70 74 81 72 69 81 83 75 75 74 71 72 88 89 87 88 93 91 87 70 73 79 83 98 81 92 84 88 84 87 74 87 85 78 79 76 79 88 82
79 80 71 76 72 67 72 84 83 79 84 78 78 80 73 68 74 72 89 89 79 87 90 93 92 78 91 88 94 91 75 80 86 81 83 88 89 77 81 80 82 76 78 78
84 75 71 70 69 72 73 83 93 79 76 82 82 64 78 73 75 72 77 79 79 83 90 80 85 88 88 88 82 86 76 82 78 89 79 89 84 87 79 85 83 76 80 76
83 73 72 72 74 74 81 91 90 85 65 84 86 75 69 70 80 78 75 76 84 94 94 80 85 84 89 81 85 88 81 87 92 87 86 88 86 85 91 85 80 77 77 87
84 79 78 77 71 71 64 63 77 84 78 89 95 82 82 86 78 77 75 79 86 93 94 96 87 72 76 90 92 87 82 77 89 90 91 88 84 85 85 83 78 80 81 78
85 83 80 74 76 92 87 72 83 80 85 84 90 88 80 77 64 76 82 79 87 89 92 91 93 87 84 84 95 89 78 77 89 87 88 86 80 85 84 85 78 76 75 76
86 80 76 76 76 78 85 90 80 85 86 80 96 97 91 78 91 87 86 86 91 90 88 90 90 85 94 98 87 90 90 87 88 87 77 82 86 83 83 80 79 84 84 85
83 76 71 79 89 86 90 74 82 93 78 94 91 95 97 86 89 70 86 89 97 88 88 82 84 86 92 80 91 90 93 95 94 90 90 87 84 80 79 80 82 81 80 80
77 84 84 97 98 78 80 83 86 90 92 91 96 92 97 90 93 75 80 95 96 97 90 84 84 97 88 90 88 91 92 80 82 87 86 84 86 86 85 84 80 81 85 84
95 97 99 99 82 88 90 97 86 94 89 89 92 94 98 87 93 88 82 95 95 94 91 91 93 93 95 91 90 90 88 89 85 82 82 82 84 88 93 94 87 89 88 89
85 90 92 95 93 95 87 94 95 95 81 98 95 95 94 95 88 93 90 92 86 94 89 94 85 89 90 89 87 89 90 89 85 76 77 79 86 84 85 85 86 86 80 79
89 92 98 91 97 91 85 87 97 98 98 99 98 98 95 94 88 94 87 86 93 77 93 77 88 92 88 87 87 87 88 88 87 87 83 82 85 83 86 87 82 75 85 84
88 94 96 91 97 94 88 87 89 93 96 90 94 99 95 91 93 78 92 86 89 87 89 90 96 91 85 78 75 78 75 78 82 86 90 89 81 83 88 94 82 86 94 88
93 92 78 99 92 99 99 98 96 96 84 91 95 96 93 99 97 95 89 88 99 93 92 94 97 86 78 84 84 88 93 94 96 95 95 94 93 95 96 92 87 76 78 76
96 92 98 92 97 99 99 97 96 94 91 92 92 96 95 99 95 96 96 92 94 88 95 97 97 95 96 96 93 90 91 91 93 93 94 94 87 90 96 94 93 90 94 94
96 99 96 96 96 96 98 90 95 88 86 91 92 74 73 94 98 99 96 93 91 95 100 99 96 93 94 95 97 96 95 96 96 95 92 78 86 89 89 91 93 96 95 96

GFSNW_sfc_rhum_111.txt.gz
RH
84 92 95 90 81 81 80 93 99 85 93 95 98 96 73 63 50 68 79 83 90 80 94 82 87 87 88 79 84 78 66 87 89 84 72 85 90 88 88 90 94 99 97 86
88 95 94 86 78 77 88 94 97 80 84 98 98 83 66 66 52 55 66 82 63 62 85 92 83 88 79 80 78 87 77 82 93 78 67 69 83 79 89 91 90 98 97 92
94 94 92 87 81 76 79 89 97 91 92 90 87 81 72 73 69 55 59 66 56 70 86 75 87 82 83 79 84 66 63 71 76 91 79 77 80 72 77 90 97 98 98 95
94 93 92 87 80 74 71 81 90 87 98 95 86 68 65 77 76 68 58 67 59 65 95 83 90 76 91 81 80 81 79 74 81 69 68 72 68 70 73 97 91 94 98 96
93 92 91 84 80 75 71 82 86 84 87 79 77 66 61 71 61 73 73 68 63 54 84 82 89 90 87 92 82 95 88 66 88 89 70 71 63 64 86 95 89 88 87 94
93 91 88 82 81 70 73 80 76 68 74 74 69 80 62 57 58 61 64 66 75 65 71 65 64 67 79 92 92 86 91 92 91 99 86 69 92 92 87 90 86 85 96 87
93 90 87 83 81 71 68 74 72 60 67 63 64 63 59 61 63 66 58 66 75 71 65 70 70 72 87 89 91 84 93 79 81 98 95 95 90 80 79 90 89 94 84 76
90 86 88 80 78 72 72 85 64 62 70 66 62 60 65 70 65 61 60 62 65 67 81 82 84 76 91 82 80 79 85 94 93 98 98 96 87 86 90 89 91 86 84 77
89 86 85 80 72 73 78 95 80 66 66 63 61 65 71 80 84 75 67 66 72 76 88 91 97 98 93 92 93 83 83 89 95 95 95 93 84 66 74 83 83 78 80 83
89 86 84 83 72 74 71 94 86 72 81 81 73 68 75 77 81 82 78 80 85 82 94 89 86 88 82 91 95 84 83 88 87 93 98 93 74 76 70 85 84 88 89 88
88 88 84 78 76 69 69 88 87 73 90 88 81 76 81 83 82 81 75 87 86 91 85 84 83 82 85 89 86 88 89 94 97 96 93 95 84 84 89 89 83 84 90 89
87 84 80 76 76 70 69 74 72 71 85 87 80 80 82 78 72 89 90 85 90 90 88 90 86 80 86 87 97 83 90 84 83 86 88 79 89 82 82 81 79 81 90 87
86 77 73 73 73 66 68 75 79 79 82 82 81 84 74 72 81 76 88 93 83 90 90 94 93 81 87 91 92 92 84 83 88 86 82 92 88 80 84 81 84 78 79 77
81 78 80 75 73 71 68 75 89 74 74 79 86 66 81 70 79 76 80 82 84 86 93 92 92 92 87 91 86 88 81 85 83 92 88 89 81 89 82 84 85 77 79 80
82 83 82 75 74 74 80 87 89 84 64 85 91 76 71 83 81 75 75 78 87 94 93 92 91 92 92 91 88 91 91 86 91 92 87 88 86 87 88 86 81 80 77 85
87 86 83 79 76 70 63 63 75 86 79 90 95 83 85 84 79 77 76 81 90 95 94 95 92 79 84 90 95 89 89 89 88 89 93 90 87 87 87 82 77 78 82 80
88 87 84 79 74 89 77 70 78 82 80 85 93 94 77 69 64 81 88 86 92 90 94 89 94 90 88 91 95 90 86 87 91 89 89 92 80 84 81 78 76 74 74 76
87 84 81 77 75 75 80 86 80 81 82 80 97 94 85 70 78 80 88 92 94 90 91 94 92 87 90 98 83 91 82 88 89 92 90 90 88 83 82 78 78 79 81 79
87 81 72 77 85 86 86 72 80 90 76 91 92 96 98 82 75 77 83 93 96 93 94 89 85 88 97 83 86 92 89 88 93 93 90 90 88 87 80 80 82 86 84 81
81 83 86 95 94 78 79 80 82 87 90 89 92 93 98 88 93 85 92 95 98 99 89 89 95 92 81 88 86 88 93 90 87 86 92 89 93 92 87 83 82 83 86 84
97 99 98 100 83 90 91 95 85 89 85 87 96 95 97 91 92 96 87 96 98 99 89 93 91 93 94 92 92 92 91 89 89 89 89 85 84 85 87 87 88 86 85 86
90 90 92 94 96 98 91 90 94 92 76 98 95 95 94 96 89 93 94 93 93 97 91 94 96 87 90 94 89 92 92 90 88 87 89 86 85 83 82 83 84 84 85 82
91 92 96 96 97 93 81 81 99 97 98 99 98 98 95 95 88 95 93 91 95 84 95 88 89 90 92 90 90 90 90 90 91 88 88 88 88 82 77 88 89 85 82 82
92 96 98 96 99 93 88 86 89 92 95 91 95 100 95 92 93 94 90 85 92 87 91 91 94 91 91 90 84 74 76 79 82 82 82 86 89 92 89 91 94 92 93 88
96 94 73 98 90 97 98 98 94 96 81 88 95 96 92 99 95 95 92 94 100 91 93 93 97 90 87 84 82 87 92 94 95 96 97 94 94 95 94 92 92 91 89 82
96 96 99 95 95 100 99 97 96 89 78 90 91 96 94 99 95 99 95 90 90 86 94 96 96 92 94 95 91 88 87 86 91 93 95 94 95 95 93 96 94 94 92 95
97 99 93 96 97 96 99 88 91 75 68 83 91 67 66 95 99 98 96 89 88 92 100 98 95 91 95 97 97 97 95 96 97 96 94 92 89 92 91 93 90 95 96 96

GFSNW_sfc_rhum_117.txt.gz
RH
87 86 87 78 78 74 83 97 99 93 84 94 94 98 77 56 66 72 89 81 82 83 77 88 94 94 87 77 89 92 82 89 94 77 65 71 96 92 93 92 94 94 89 97
88 88 82 76 72 79 96 98 98 92 89 99 99 85 77 58 54 71 76 74 71 67 79 90 85 90 76 82 86 96 85 82 89 75 61 67 77 69 84 83 83 99 93 96
83 82 80 80 77 71 81 92 98 98 98 80 90 84 83 73 63 53 65 68 67 71 74 76 84 87 81 82 83 69 61 72 74 89 80 73 80 86 79 82 92 91 97 94
86 83 85 83 82 68 70 78 96 90 98 92 91 82 80 81 76 70 61 65 69 72 84 86 91 79 87 79 78 80 67 89 85 76 71 65 89 93 82 95 91 93 95 94
83 83 84 85 80 74 75 79 87 86 93 91 85 69 83 80 74 77 77 71 72 75 90 89 90 89 90 77 83 94 85 83 87 87 78 68 86 92 90 88 93 98 83 81
84 85 85 85 77 63 78 85 73 72 79 84 81 77 74 70 67 66 71 70 83 83 73 66 69 78 84 89 89 83 88 89 87 98 90 73 85 95 94 82 82 93 94 85
84 82 82 85 76 68 74 80 68 69 72 76 67 62 60 69 68 71 70 72 77 78 64 68 76 80 77 78 86 89 94 92 90 100 75 93 94 88 87 85 79 90 90 90
84 82 78 78 73 69 80 86 66 68 71 66 65 64 73 69 71 66 70 69 75 76 84 74 72 79 88 77 77 80 86 93 92 90 84 91 82 81 82 95 94 90 94 89
85 83 81 75 77 72 81 96 79 68 67 69 70 70 76 76 80 74 75 74 76 83 92 79 90 95 82 83 74 80 82 85 88 91 92 94 84 68 82 85 85 81 91 91
87 82 84 76 78 73 75 94 79 73 79 88 77 70 67 74 76 78 80 82 85 84 93 93 93 88 86 92 89 70 69 82 75 69 93 89 76 83 77 84 76 84 92 93
87 89 84 77 74 73 71 84 83 74 90 92 89 85 79 80 80 77 74 88 88 94 88 85 86 84 89 91 87 92 90 96 93 95 93 92 90 85 83 80 79 84 88 93
86 86 80 79 75 71 66 76 74 76 86 90 86 87 86 86 76 86 91 84 88 90 87 89 87 80 91 88 93 89 91 84 89 83 77 78 91 92 84 80 86 84 90 92
76 87 80 80 75 70 65 76 80 79 82 81 81 86 80 77 86 84 87 93 85 90 88 92 90 78 85 92 91 91 88 87 90 88 88 92 81 91 87 88 85 78 81 83
81 82 83 78 76 70 66 73 84 73 74 72 84 70 83 76 81 82 81 84 88 89 93 92 92 87 88 88 84 89 85 86 87 88 90 92 83 89 90 88 79 81 77 81
85 86 82 82 78 70 77 87 85 78 63 80 91 81 82 82 78 79 81 82 88 93 91 91 89 94 93 95 91 94 88 86 91 86 84 85 86 87 89 88 90 84 86 83
80 88 87 85 84 74 69 73 83 82 79 90 92 82 88 83 82 80 81 84 91 94 91 94 94 86 90 94 94 77 86 86 81 86 89 86 86 89 88 81 77 78 78 81
78 89 88 89 84 82 82 69 76 77 78 87 94 87 78 83 79 89 89 90 93 88 93 90 93 91 93 94 95 72 91 91 92 90 90 95 92 94 88 87 79 74 74 75
76 90 89 91 77 76 84 86 83 78 78 79 97 91 93 76 88 90 94 92 93 90 92 96 94 92 95 98 84 88 93 94 92 90 89 88 90 91 90 88 87 85 85 82
77 93 88 92 90 89 84 78 81 89 79 90 94 92 96 88 89 88 94 92 93 94 94 92 89 92 97 80 84 94 94 93 91 92 89 90 93 93 92 90 90 92 91 89
90 89 97 100 97 75 82 83 88 87 88 85 86 86 96 91 89 94 93 96 98 97 89 94 99 92 79 78 81 86 90 88 92 92 95 94 93 93 93 93 91 91 92 92
96 99 100 99 87 95 93 94 86 89 88 89 95 95 95 89 94 96 89 98 98 100 90 96 97 96 90 85 87 90 91 91 88 86 89 89 89 93 94 92 91 92 93 94
92 95 94 97 99 100 99 94 93 90 73 99 98 96 93 96 90 94 97 94 96 94 90 96 99 88 84 94 96 96 94 92 93 90 89 87 87 90 91 92 90 88 92 93
96 98 100 99 99 98 98 90 95 99 97 97 98 98 94 98 89 96 92 93 94 92 98 90 88 85 94 96 96 97 93 89 89 88 83 80 78 81 84 86 90 92 94 93
99 99 98 98 98 96 91 90 89 89 96 90 84 99 93 90 95 92 88 84 94 96 96 92 94 88 96 95 94 95 94 89 77 73 74 78 84 85 89 89 93 94 95 95
99 100 97 97 93 98 97 97 97 98 81 86 93 95 91 98 98 90 95 100 98 94 88 89 94 93 94 96 92 89 88 92 93 96 96 96 97 98 97 92 92 93 93 95
99 99 98 96 97 100 98 99 99 95 75 87 90 94 91 94 93 99 93 88 86 79 93 95 96 95 94 92 85 85 85 85 91 93 96 95 96 97 97 96 96 96 98 100
99 98 94 93 97 96 97 95 92 74 68 80 89 67 60 95 99 97 92 88 82 89 94 98 96 91 91 91 91 91 91 94 96 96 95 94 88 93 92 96 93 91 94 98

GFSNW_sfc_rhum_120.txt.gz
RH
87 82 80 78 78 78 81 91 99 92 76 83 78 82 62 60 59 59 65 58 62 60 60 80 81 87 91 61 69 75 60 77 76 57 45 54 97 87 77 88 90 88 86 98
81 80 78 76 75 75 93 98 98 90 89 96 85 63 60 54 50 58 59 56 56 55 60 73 65 70 56 64 63 72 59 58 74 58 47 50 80 72 68 72 80 96 90 97
76 77 78 77 68 67 64 72 99 94 91 69 67 62 60 54 52 50 51 54 50 50 56 52 60 56 65 67 68 67 52 54 59 74 79 76 88 73 63 64 88 87 98 92
78 79 77 79 77 64 53 62 86 75 93 70 67 61 60 59 58 52 50 51 53 57 59 63 65 59 63 60 68 58 49 65 58 58 56 61 76 83 78 94 87 93 92 91
78 80 84 82 75 64 60 59 73 63 67 70 68 55 63 62 63 59 58 56 60 56 64 64 66 73 64 69 64 79 66 67 61 55 55 55 71 76 66 74 81 75 69 75
82 78 85 78 72 64 59 62 54 48 72 71 62 54 61 60 56 56 58 55 57 59 64 58 59 56 56 59 68 66 72 64 60 76 58 55 64 94 96 93 90 86 94 88
85 82 84 82 74 66 56 59 48 44 62 60 56 48 48 57 54 59 57 54 55 58 56 61 63 60 58 58 60 68 71 70 64 78 52 76 69 69 83 96 94 87 74 68
83 83 80 77 70 64 64 65 48 47 60 49 49 48 56 52 51 55 58 56 57 57 68 65 61 57 65 56 57 58 63 63 68 72 74 69 66 66 70 76 97 78 73 66
88 84 77 75 74 63 67 73 62 47 47 48 46 49 51 54 52 54 60 57 54 62 73 72 77 72 65 64 59 55 63 59 62 69 71 68 63 64 66 66 76 72 66 68
88 88 86 80 78 70 65 73 68 52 52 58 52 45 49 49 53 52 57 60 61 64 66 75 68 58 66 64 66 62 57 60 63 57 71 59 56 69 67 65 72 78 72 70
82 84 83 84 76 75 64 70 71 57 60 70 70 63 54 55 52 55 58 65 68 69 76 64 57 56 58 65 63 66 62 70 72 69 68 68 70 70 67 67 72 78 82 76
77 87 88 84 82 78 60 61 63 62 65 70 70 69 67 64 52 54 71 68 75 66 61 56 54 53 60 60 55 64 68 56 55 57 52 66 72 70 69 70 75 74 78 75
79 75 88 85 83 80 64 68 66 63 64 65 65 67 62 65 66 65 62 66 65 69 65 58 55 59 51 54 56 62 62 62 62 66 63 70 66 69 69 71 72 68 69 72
79 76 81 86 82 79 63 68 66 59 55 56 63 59 66 64 66 69 64 64 69 68 63 65 64 61 58 53 57 61 51 63 61 63 64 70 67 63 64 71 68 69 67 68
80 80 85 86 82 74 76 78 65 63 58 54 71 68 66 64 64 69 69 67 67 66 67 64 65 67 72 66 65 63 56 56 57 48 48 54 59 65 68 66 69 68 69 69
81 88 88 86 85 76 67 70 68 71 65 78 77 67 72 65 65 66 67 68 67 65 64 60 62 68 69 72 66 48 51 55 50 50 58 60 62 63 67 64 65 66 66 68
81 86 90 90 85 81 75 63 74 72 68 71 86 79 69 64 67 74 71 71 69 64 66 68 64 68 74 72 70 45 52 57 65 63 67 73 71 68 66 67 68 67 65 66
79 81 92 91 80 74 74 72 76 71 62 64 92 82 78 65 74 74 78 73 72 69 62 72 70 72 76 84 56 55 66 70 72 70 68 66 68 68 72 72 71 74 73 70
83 78 92 92 92 93 79 79 80 82 72 82 78 84 88 70 74 73 83 75 74 77 71 66 69 63 83 56 53 60 77 76 73 73 71 72 71 75 74 72 72 72 70 69
86 88 94 100 97 78 82 81 80 81 78 75 71 67 84 74 76 80 82 84 81 91 69 74 79 67 54 53 54 53 72 70 71 80 84 79 80 78 76 73 70 70 69 68
98 99 100 99 82 93 95 96 84 76 77 72 68 73 86 75 82 84 75 89 88 92 74 81 80 75 65 58 60 64 70 68 68 63 62 64 63 70 72 70 67 68 65 64
91 94 94 98 100 100 98 95 83 80 72 81 87 84 75 81 75 84 90 89 92 85 76 90 90 65 62 67 66 72 69 69 71 68 72 70 64 63 62 63 63 62 63 65
97 98 100 100 99 98 97 97 92 93 89 91 92 91 83 88 80 86 87 94 89 77 93 76 55 60 70 76 80 82 75 74 74 71 64 62 62 61 59 57 61 67 68 67
100 99 98 97 98 90 90 83 83 78 88 89 82 94 84 76 89 83 87 74 84 93 95 83 59 66 76 80 81 84 84 78 73 63 57 56 58 63 68 71 72 74 73 69
100 100 96 97 81 89 88 81 85 88 81 81 89 91 81 90 91 77 88 97 96 82 77 75 68 76 85 90 89 85 84 85 86 86 88 88 87 86 85 79 77 75 76 77
100 100 98 90 94 99 97 97 92 87 78 83 91 93 91 83 84 97 91 81 78 76 88 82 84 92 90 90 84 79 72 68 70 74 80 81 85 86 86 85 82 80 84 91
100 99 83 86 90 91 92 86 86 73 69 88 89 81 67 86 91 84 84 84 77 78 78 80 85 91 92 89 85 83 79 78 75 78 79 78 76 79 77 80 75 77 83 95

GFSNW_sfc_rhum_123.txt.gz
RH
88 82 78 81 74 74 75 77 97 74 65 74 60 67 54 56 48 48 50 46 49 46 46 71 77 93 88 50 53 64 51 70 78 58 48 55 93 80 63 90 93 93 92 98
79 78 81 80 78 72 62 91 94 65 74 89 64 51 48 45 46 50 46 48 46 43 47 63 49 53 44 49 52 56 50 56 76 66 51 49 96 70 66 75 94 98 89 97
81 82 84 79 73 66 52 59 96 73 65 50 49 48 50 50 45 45 44 45 42 41 45 40 48 44 56 53 55 64 52 47 56 75 76 88 93 80 71 81 95 88 98 98
80 83 85 79 76 68 50 49 73 58 85 54 53 52 48 52 52 44 42 46 46 48 52 45 46 47 51 53 56 46 48 55 49 53 58 77 68 77 72 94 97 95 99 98
79 79 87 87 82 72 47 49 60 49 50 50 52 54 54 53 54 51 51 51 48 46 55 51 57 53 49 56 55 78 58 54 50 50 48 51 64 71 73 89 82 69 65 93
83 83 87 87 81 62 44 46 45 37 61 51 46 44 51 52 50 52 49 47 48 52 57 48 45 42 45 51 60 60 64 60 53 75 46 47 60 77 91 84 80 87 97 77
84 84 88 84 78 64 46 48 42 38 50 46 48 46 48 53 51 54 49 47 48 53 47 50 48 45 46 45 46 52 61 56 53 72 46 70 60 55 70 84 74 68 64 56
86 84 83 74 70 69 53 48 48 39 42 41 44 44 46 49 47 51 51 51 50 49 56 56 57 47 50 47 46 45 48 53 60 67 64 58 59 56 61 65 74 60 61 55
84 82 78 79 78 74 51 62 54 46 40 41 36 42 43 46 44 53 54 50 47 55 63 61 68 61 53 52 47 43 47 47 56 58 67 60 53 58 56 56 73 59 58 60
85 84 83 79 76 71 57 59 62 51 40 42 40 38 46 40 43 44 51 54 57 57 60 68 59 47 53 53 52 49 49 51 56 52 62 49 49 57 56 70 82 64 65 62
78 81 84 83 77 75 62 58 60 58 45 49 54 48 44 44 42 46 51 56 58 60 69 57 49 48 44 54 47 50 52 54 56 55 56 62 56 59 64 62 65 70 74 67
80 78 87 85 78 77 63 53 50 52 59 63 61 57 57 57 53 42 56 61 63 54 58 49 46 45 44 46 43 50 56 46 48 49 50 58 60 57 57 55 60 68 70 70
74 80 81 88 83 80 62 63 63 51 55 54 57 57 54 55 56 55 52 52 56 61 56 52 47 54 40 41 42 44 46 47 51 56 45 55 58 56 56 54 57 59 63 64
74 77 78 77 86 80 64 60 63 50 44 51 52 50 58 55 57 60 57 57 58 59 54 58 58 55 46 40 47 49 40 52 48 49 50 54 54 52 53 59 57 59 59 60
75 80 80 88 87 81 68 64 59 46 41 54 49 58 54 55 57 62 60 60 60 58 60 59 60 53 60 51 56 50 43 43 49 37 36 44 43 50 54 58 60 59 60 61
76 84 88 88 86 74 71 67 67 54 50 68 69 55 63 58 58 62 63 62 60 56 58 51 49 58 63 61 54 34 33 33 33 38 39 42 48 52 55 54 56 57 57 59
77 82 90 90 81 77 74 64 64 63 55 60 72 62 61 57 59 64 64 62 60 59 59 62 54 60 68 63 59 28 36 39 44 47 55 62 60 61 58 55 58 63 57 59
76 79 89 90 80 74 82 65 76 64 52 53 93 72 66 59 64 65 65 64 63 64 58 59 60 61 66 75 43 32 38 42 50 52 54 49 52 56 60 60 61 63 63 62
79 84 91 93 93 90 83 80 72 70 65 80 74 81 79 62 64 61 69 65 68 65 64 55 58 50 78 52 34 37 46 56 59 59 61 63 64 64 65 64 65 65 62 62
82 87 96 100 97 80 80 85 83 77 73 72 74 52 79 66 65 68 69 70 75 90 64 60 69 60 44 39 37 33 46 54 58 73 77 69 69 69 66 64 60 62 62 56
96 99 99 99 84 94 98 100 98 77 84 68 63 58 85 71 77 77 64 84 82 91 70 77 76 69 55 38 39 40 48 56 60 55 55 56 54 60 62 65 60 53 50 48
90 94 94 97 99 100 100 93 83 86 76 63 80 74 71 83 70 79 83 87 88 87 68 83 84 56 52 49 42 46 54 59 59 55 56 56 56 56 53 46 48 49 50 52
93 98 100 100 100 100 96 93 92 87 79 86 85 86 81 87 82 78 84 94 88 61 88 74 53 53 58 55 56 59 60 61 60 60 58 51 53 48 47 48 49 53 56 57
100 100 99 98 96 89 87 80 87 72 85 89 79 90 84 85 93 87 93 69 76 90 89 82 58 54 61 62 68 71 73 72 70 63 57 55 51 53 54 58 60 62 63 62
100 100 97 97 76 84 89 81 76 76 79 80 86 89 82 93 94 86 84 93 93 71 70 78 76 63 69 80 83 82 85 86 82 78 78 78 77 78 78 72 70 67 68 69
100 100 100 83 94 97 93 96 95 81 75 76 86 88 94 88 89 91 89 76 76 79 86 93 86 87 88 90 84 82 78 71 70 69 72 74 79 83 83 83 82 80 81 89
100 100 89 80 91 92 86 82 77 67 74 87 86 91 76 85 88 83 76 84 83 86 77 85 88 92 93 91 88 83 75 70 66 67 67 68 70 72 71 74 76 80 84 96